﻿<?xml version="1.0" encoding="utf-8"?><gpx creator="Garmin Desktop App" version="1.1" xsi:schemaLocation="http://www.topografix.com/GPX/1/1 http://www.topografix.com/GPX/1/1/gpx.xsd http://www.garmin.com/xmlschemas/WaypointExtension/v1 http://www8.garmin.com/xmlschemas/WaypointExtensionv1.xsd http://www.garmin.com/xmlschemas/TrackPointExtension/v1 http://www.garmin.com/xmlschemas/TrackPointExtensionv1.xsd http://www.garmin.com/xmlschemas/GpxExtensions/v3 http://www8.garmin.com/xmlschemas/GpxExtensionsv3.xsd http://www.garmin.com/xmlschemas/ActivityExtension/v1 http://www8.garmin.com/xmlschemas/ActivityExtensionv1.xsd http://www.garmin.com/xmlschemas/AdventuresExtensions/v1 http://www8.garmin.com/xmlschemas/AdventuresExtensionv1.xsd http://www.garmin.com/xmlschemas/PressureExtension/v1 http://www.garmin.com/xmlschemas/PressureExtensionv1.xsd http://www.garmin.com/xmlschemas/TripExtensions/v1 http://www.garmin.com/xmlschemas/TripExtensionsv1.xsd http://www.garmin.com/xmlschemas/TripMetaDataExtensions/v1 http://www.garmin.com/xmlschemas/TripMetaDataExtensionsv1.xsd http://www.garmin.com/xmlschemas/ViaPointTransportationModeExtensions/v1 http://www.garmin.com/xmlschemas/ViaPointTransportationModeExtensionsv1.xsd http://www.garmin.com/xmlschemas/CreationTimeExtension/v1 http://www.garmin.com/xmlschemas/CreationTimeExtensionsv1.xsd http://www.garmin.com/xmlschemas/AccelerationExtension/v1 http://www.garmin.com/xmlschemas/AccelerationExtensionv1.xsd http://www.garmin.com/xmlschemas/PowerExtension/v1 http://www.garmin.com/xmlschemas/PowerExtensionv1.xsd http://www.garmin.com/xmlschemas/VideoExtension/v1 http://www.garmin.com/xmlschemas/VideoExtensionv1.xsd" xmlns="http://www.topografix.com/GPX/1/1" xmlns:xsi="http://www.w3.org/2001/XMLSchema-instance" xmlns:wptx1="http://www.garmin.com/xmlschemas/WaypointExtension/v1" xmlns:gpxtrx="http://www.garmin.com/xmlschemas/GpxExtensions/v3" xmlns:gpxtpx="http://www.garmin.com/xmlschemas/TrackPointExtension/v1" xmlns:gpxx="http://www.garmin.com/xmlschemas/GpxExtensions/v3" xmlns:trp="http://www.garmin.com/xmlschemas/TripExtensions/v1" xmlns:adv="http://www.garmin.com/xmlschemas/AdventuresExtensions/v1" xmlns:prs="http://www.garmin.com/xmlschemas/PressureExtension/v1" xmlns:tmd="http://www.garmin.com/xmlschemas/TripMetaDataExtensions/v1" xmlns:vptm="http://www.garmin.com/xmlschemas/ViaPointTransportationModeExtensions/v1" xmlns:ctx="http://www.garmin.com/xmlschemas/CreationTimeExtension/v1" xmlns:gpxacc="http://www.garmin.com/xmlschemas/AccelerationExtension/v1" xmlns:gpxpx="http://www.garmin.com/xmlschemas/PowerExtension/v1" xmlns:vidx1="http://www.garmin.com/xmlschemas/VideoExtension/v1">

  <metadata>
    <link href="http://www.garmin.com">
      <text>Garmin International</text>
    </link>
    <time>2022-02-20T20:13:59Z</time>
    <bounds maxlat="46.432544281706214" maxlon="8.433487499132752" minlat="46.416161181405187" minlon="8.415000708773732" />
  </metadata>

  <trk>
    <name>lago-kasel2022-02-20</name>
    <extensions>
      <gpxx:TrackExtension>
        <gpxx:DisplayColor>Yellow</gpxx:DisplayColor>
      </gpxx:TrackExtension>
      <gpxtrkx:TrackStatsExtension xmlns:gpxtrkx="http://www.garmin.com/xmlschemas/TrackStatsExtension/v1">
        <gpxtrkx:Distance>7801</gpxtrkx:Distance>
        <gpxtrkx:TotalElapsedTime>23842</gpxtrkx:TotalElapsedTime>
        <gpxtrkx:MovingTime>9653</gpxtrkx:MovingTime>
        <gpxtrkx:StoppedTime>14179</gpxtrkx:StoppedTime>
        <gpxtrkx:MovingSpeed>0.808</gpxtrkx:MovingSpeed>
        <gpxtrkx:MaxSpeed>2.016</gpxtrkx:MaxSpeed>
        <gpxtrkx:MaxElevation>2239.398</gpxtrkx:MaxElevation>
        <gpxtrkx:MinElevation>1733.137</gpxtrkx:MinElevation>
        <gpxtrkx:Ascent>523</gpxtrkx:Ascent>
        <gpxtrkx:Descent>522.1</gpxtrkx:Descent>
        <gpxtrkx:AvgAscentRate>0.027</gpxtrkx:AvgAscentRate>
        <gpxtrkx:MaxAscentRate>0.261</gpxtrkx:MaxAscentRate>
        <gpxtrkx:AvgDescentRate>0.031</gpxtrkx:AvgDescentRate>
        <gpxtrkx:MaxDescentRate>-0.451</gpxtrkx:MaxDescentRate>
      </gpxtrkx:TrackStatsExtension>
    </extensions>
    <trkseg>
      <trkpt lat="46.416634591296315" lon="8.415634045377374">
        <ele>1734.5699999999999</ele>
        <time>2022-02-20T08:39:00Z</time>
      </trkpt>
      <trkpt lat="46.416634758934379" lon="8.415634883567691">
        <ele>1734.5699999999999</ele>
        <time>2022-02-20T08:39:01Z</time>
      </trkpt>
      <trkpt lat="46.416641129180789" lon="8.415635889396071">
        <ele>1734.2</ele>
        <time>2022-02-20T08:39:19Z</time>
      </trkpt>
      <trkpt lat="46.416649594902992" lon="8.415620634332299">
        <ele>1734.26</ele>
        <time>2022-02-20T08:39:29Z</time>
      </trkpt>
      <trkpt lat="46.416701059788465" lon="8.415626585483551">
        <ele>1734.0899999999999</ele>
        <time>2022-02-20T08:39:33Z</time>
      </trkpt>
      <trkpt lat="46.416837014257908" lon="8.415759354829788">
        <ele>1734.04</ele>
        <time>2022-02-20T08:39:46Z</time>
      </trkpt>
      <trkpt lat="46.416956288740039" lon="8.415940655395389">
        <ele>1733.5699999999999</ele>
        <time>2022-02-20T08:39:59Z</time>
      </trkpt>
      <trkpt lat="46.417085453867912" lon="8.416076945140958">
        <ele>1733.3699999999999</ele>
        <time>2022-02-20T08:40:11Z</time>
      </trkpt>
      <trkpt lat="46.417139936238527" lon="8.416119022294879">
        <ele>1733.25</ele>
        <time>2022-02-20T08:40:16Z</time>
      </trkpt>
      <trkpt lat="46.417272370308638" lon="8.416109886020422">
        <ele>1733.6099999999999</ele>
        <time>2022-02-20T08:40:27Z</time>
      </trkpt>
      <trkpt lat="46.417446881532669" lon="8.416190603747964">
        <ele>1733.6400000000001</ele>
        <time>2022-02-20T08:40:40Z</time>
      </trkpt>
      <trkpt lat="46.417690627276897" lon="8.416286576539278">
        <ele>1733.8</ele>
        <time>2022-02-20T08:40:58Z</time>
      </trkpt>
      <trkpt lat="46.417933199554682" lon="8.416349273175001">
        <ele>1734.47</ele>
        <time>2022-02-20T08:41:16Z</time>
      </trkpt>
      <trkpt lat="46.418164791539311" lon="8.416439127177">
        <ele>1736</ele>
        <time>2022-02-20T08:41:35Z</time>
      </trkpt>
      <trkpt lat="46.418376183137298" lon="8.416531579568982">
        <ele>1737.01</ele>
        <time>2022-02-20T08:41:53Z</time>
      </trkpt>
      <trkpt lat="46.418670220300555" lon="8.416579775512219">
        <ele>1737.3299999999999</ele>
        <time>2022-02-20T08:42:15Z</time>
      </trkpt>
      <trkpt lat="46.418903404846787" lon="8.416550355032086">
        <ele>1737.1400000000001</ele>
        <time>2022-02-20T08:42:32Z</time>
      </trkpt>
      <trkpt lat="46.419149916619062" lon="8.416522946208715">
        <ele>1737.1199999999999</ele>
        <time>2022-02-20T08:42:50Z</time>
      </trkpt>
      <trkpt lat="46.419405564665794" lon="8.416532417759299">
        <ele>1736.3399999999999</ele>
        <time>2022-02-20T08:43:08Z</time>
      </trkpt>
      <trkpt lat="46.419596923515201" lon="8.416601568460465">
        <ele>1736.1700000000001</ele>
        <time>2022-02-20T08:43:23Z</time>
      </trkpt>
      <trkpt lat="46.419600192457438" lon="8.416670635342598">
        <ele>1735.79</ele>
        <time>2022-02-20T08:43:33Z</time>
      </trkpt>
      <trkpt lat="46.419598096981645" lon="8.416717322543263">
        <ele>1735.9100000000001</ele>
        <time>2022-02-20T08:43:43Z</time>
      </trkpt>
      <trkpt lat="46.419594157487154" lon="8.416718663647771">
        <ele>1735.24</ele>
        <time>2022-02-20T08:43:53Z</time>
      </trkpt>
      <trkpt lat="46.419599689543247" lon="8.416729727759957">
        <ele>1734.4400000000001</ele>
        <time>2022-02-20T08:44:09Z</time>
      </trkpt>
      <trkpt lat="46.41960522159934" lon="8.416741294786334">
        <ele>1734.5699999999999</ele>
        <time>2022-02-20T08:44:30Z</time>
      </trkpt>
      <trkpt lat="46.4195866137743" lon="8.416737942025065">
        <ele>1735.6700000000001</ele>
        <time>2022-02-20T08:44:45Z</time>
      </trkpt>
      <trkpt lat="46.419595079496503" lon="8.416731068864465">
        <ele>1735.3</ele>
        <time>2022-02-20T08:45:04Z</time>
      </trkpt>
      <trkpt lat="46.419622572138906" lon="8.41672201640904">
        <ele>1735.4100000000001</ele>
        <time>2022-02-20T08:45:18Z</time>
      </trkpt>
      <trkpt lat="46.419616956263781" lon="8.416723106056452">
        <ele>1735.29</ele>
        <time>2022-02-20T08:45:41Z</time>
      </trkpt>
      <trkpt lat="46.419611759483814" lon="8.416714305058122">
        <ele>1735.6099999999999</ele>
        <time>2022-02-20T08:46:00Z</time>
      </trkpt>
      <trkpt lat="46.419605137780309" lon="8.41672645881772">
        <ele>1735.5699999999999</ele>
        <time>2022-02-20T08:46:18Z</time>
      </trkpt>
      <trkpt lat="46.419610418379307" lon="8.416746240109205">
        <ele>1735.8</ele>
        <time>2022-02-20T08:46:33Z</time>
      </trkpt>
      <trkpt lat="46.419609496369958" lon="8.416747078299522">
        <ele>1735.6500000000001</ele>
        <time>2022-02-20T08:46:50Z</time>
      </trkpt>
      <trkpt lat="46.419606981799006" lon="8.416747413575649">
        <ele>1735.48</ele>
        <time>2022-02-20T08:47:03Z</time>
      </trkpt>
      <trkpt lat="46.419609412550926" lon="8.416752694174647">
        <ele>1735.49</ele>
        <time>2022-02-20T08:47:12Z</time>
      </trkpt>
      <trkpt lat="46.419638497754931" lon="8.416749676689506">
        <ele>1735.45</ele>
        <time>2022-02-20T08:47:21Z</time>
      </trkpt>
      <trkpt lat="46.419638833031058" lon="8.416752358898521">
        <ele>1735.5799999999999</ele>
        <time>2022-02-20T08:47:29Z</time>
      </trkpt>
      <trkpt lat="46.419643107801676" lon="8.416753029450774">
        <ele>1735.6400000000001</ele>
        <time>2022-02-20T08:47:40Z</time>
      </trkpt>
      <trkpt lat="46.41964771784842" lon="8.416758561506867">
        <ele>1735.6099999999999</ele>
        <time>2022-02-20T08:47:53Z</time>
      </trkpt>
      <trkpt lat="46.419634893536568" lon="8.416751101613045">
        <ele>1735.6300000000001</ele>
        <time>2022-02-20T08:48:15Z</time>
      </trkpt>
      <trkpt lat="46.41962424851954" lon="8.41669904999435">
        <ele>1735.53</ele>
        <time>2022-02-20T08:48:27Z</time>
      </trkpt>
      <trkpt lat="46.419619806110859" lon="8.416694104671478">
        <ele>1735.6700000000001</ele>
        <time>2022-02-20T08:48:44Z</time>
      </trkpt>
      <trkpt lat="46.41960815526545" lon="8.416728973388672">
        <ele>1735.6700000000001</ele>
        <time>2022-02-20T08:49:07Z</time>
      </trkpt>
      <trkpt lat="46.419612849131227" lon="8.416733248159289">
        <ele>1735.26</ele>
        <time>2022-02-20T08:49:25Z</time>
      </trkpt>
      <trkpt lat="46.419618716463447" lon="8.416724866256118">
        <ele>1735.22</ele>
        <time>2022-02-20T08:49:37Z</time>
      </trkpt>
      <trkpt lat="46.419620728120208" lon="8.416692512109876">
        <ele>1734.8499999999999</ele>
        <time>2022-02-20T08:49:54Z</time>
      </trkpt>
      <trkpt lat="46.419628020375967" lon="8.416719501838088">
        <ele>1735.0899999999999</ele>
        <time>2022-02-20T08:50:05Z</time>
      </trkpt>
      <trkpt lat="46.41963648609817" lon="8.416730901226401">
        <ele>1735.04</ele>
        <time>2022-02-20T08:50:19Z</time>
      </trkpt>
      <trkpt lat="46.419653920456767" lon="8.416786473244429">
        <ele>1734.8699999999999</ele>
        <time>2022-02-20T08:50:30Z</time>
      </trkpt>
      <trkpt lat="46.419658614322543" lon="8.416810110211372">
        <ele>1735.04</ele>
        <time>2022-02-20T08:50:32Z</time>
      </trkpt>
      <trkpt lat="46.419663392007351" lon="8.416841123253107">
        <ele>1734.9100000000001</ele>
        <time>2022-02-20T08:50:34Z</time>
      </trkpt>
      <trkpt lat="46.419722568243742" lon="8.416900802403688">
        <ele>1734.8199999999999</ele>
        <time>2022-02-20T08:50:41Z</time>
      </trkpt>
      <trkpt lat="46.419930858537555" lon="8.416878925636411">
        <ele>1734.79</ele>
        <time>2022-02-20T08:51:00Z</time>
      </trkpt>
      <trkpt lat="46.41995164565742" lon="8.416874064132571">
        <ele>1734.95</ele>
        <time>2022-02-20T08:51:03Z</time>
      </trkpt>
      <trkpt lat="46.420009816065431" lon="8.416869034990668">
        <ele>1734.9200000000001</ele>
        <time>2022-02-20T08:51:11Z</time>
      </trkpt>
      <trkpt lat="46.420092210173607" lon="8.416884122416377">
        <ele>1734.99</ele>
        <time>2022-02-20T08:51:18Z</time>
      </trkpt>
      <trkpt lat="46.420182567089796" lon="8.416874902322888">
        <ele>1735.3599999999999</ele>
        <time>2022-02-20T08:51:26Z</time>
      </trkpt>
      <trkpt lat="46.420258255675435" lon="8.417053185403347">
        <ele>1735.3900000000001</ele>
        <time>2022-02-20T08:51:38Z</time>
      </trkpt>
      <trkpt lat="46.420453889295459" lon="8.417059974744916">
        <ele>1735.23</ele>
        <time>2022-02-20T08:51:52Z</time>
      </trkpt>
      <trkpt lat="46.420609457418323" lon="8.417108254507184">
        <ele>1736.51</ele>
        <time>2022-02-20T08:52:05Z</time>
      </trkpt>
      <trkpt lat="46.420821435749531" lon="8.417251417413354">
        <ele>1736.8199999999999</ele>
        <time>2022-02-20T08:52:23Z</time>
      </trkpt>
      <trkpt lat="46.420978931710124" lon="8.417453588917851">
        <ele>1737.03</ele>
        <time>2022-02-20T08:52:40Z</time>
      </trkpt>
      <trkpt lat="46.420982787385583" lon="8.417462725192308">
        <ele>1737.22</ele>
        <time>2022-02-20T08:52:43Z</time>
      </trkpt>
      <trkpt lat="46.42100315541029" lon="8.417521649971604">
        <ele>1737.03</ele>
        <time>2022-02-20T08:52:47Z</time>
      </trkpt>
      <trkpt lat="46.421090327203274" lon="8.417702950537205">
        <ele>1737.52</ele>
        <time>2022-02-20T08:53:01Z</time>
      </trkpt>
      <trkpt lat="46.421077251434326" lon="8.417756343260407">
        <ele>1737.3699999999999</ele>
        <time>2022-02-20T08:53:10Z</time>
      </trkpt>
      <trkpt lat="46.421083202585578" lon="8.417762881144881">
        <ele>1737.3599999999999</ele>
        <time>2022-02-20T08:53:23Z</time>
      </trkpt>
      <trkpt lat="46.421070797368884" lon="8.417764473706484">
        <ele>1737.1500000000001</ele>
        <time>2022-02-20T08:53:34Z</time>
      </trkpt>
      <trkpt lat="46.421048333868384" lon="8.417779142037034">
        <ele>1737.1600000000001</ele>
        <time>2022-02-20T08:53:39Z</time>
      </trkpt>
      <trkpt lat="46.421054201200604" lon="8.417906714603305">
        <ele>1734.0699999999999</ele>
        <time>2022-02-20T08:53:47Z</time>
      </trkpt>
      <trkpt lat="46.421054536476731" lon="8.417921969667077">
        <ele>1734.0699999999999</ele>
        <time>2022-02-20T08:53:48Z</time>
      </trkpt>
      <trkpt lat="46.421065265312791" lon="8.41803353279829">
        <ele>1738.21</ele>
        <time>2022-02-20T08:53:55Z</time>
      </trkpt>
      <trkpt lat="46.421064762398601" lon="8.418048284947872">
        <ele>1737.1199999999999</ele>
        <time>2022-02-20T08:53:56Z</time>
      </trkpt>
      <trkpt lat="46.421060152351856" lon="8.418095726519823">
        <ele>1738.51</ele>
        <time>2022-02-20T08:53:59Z</time>
      </trkpt>
      <trkpt lat="46.42106618732214" lon="8.418143419548869">
        <ele>1738.4000000000001</ele>
        <time>2022-02-20T08:54:02Z</time>
      </trkpt>
      <trkpt lat="46.421243967488408" lon="8.418201506137848">
        <ele>1738.7</ele>
        <time>2022-02-20T08:54:17Z</time>
      </trkpt>
      <trkpt lat="46.421283865347505" lon="8.418413400650024">
        <ele>1739.72</ele>
        <time>2022-02-20T08:54:30Z</time>
      </trkpt>
      <trkpt lat="46.421276237815619" lon="8.41866091825068">
        <ele>1742.04</ele>
        <time>2022-02-20T08:54:45Z</time>
      </trkpt>
      <trkpt lat="46.42117565497756" lon="8.418849930167198">
        <ele>1743.98</ele>
        <time>2022-02-20T08:55:01Z</time>
      </trkpt>
      <trkpt lat="46.421112455427647" lon="8.418991835787892">
        <ele>1746.24</ele>
        <time>2022-02-20T08:55:16Z</time>
      </trkpt>
      <trkpt lat="46.421145480126143" lon="8.419064003974199">
        <ele>1747.6700000000001</ele>
        <time>2022-02-20T08:55:26Z</time>
      </trkpt>
      <trkpt lat="46.42116928473115" lon="8.41910314746201">
        <ele>1748.25</ele>
        <time>2022-02-20T08:55:37Z</time>
      </trkpt>
      <trkpt lat="46.42122938297689" lon="8.419204819947481">
        <ele>1749.3299999999999</ele>
        <time>2022-02-20T08:55:51Z</time>
      </trkpt>
      <trkpt lat="46.421235920861363" lon="8.419213285669684">
        <ele>1749.27</ele>
        <time>2022-02-20T08:55:52Z</time>
      </trkpt>
      <trkpt lat="46.421329379081726" lon="8.419261733070016">
        <ele>1750.1300000000001</ele>
        <time>2022-02-20T08:56:03Z</time>
      </trkpt>
      <trkpt lat="46.421379083767533" lon="8.419353766366839">
        <ele>1751.53</ele>
        <time>2022-02-20T08:56:15Z</time>
      </trkpt>
      <trkpt lat="46.421386376023293" lon="8.419454181566834">
        <ele>1753.3800000000001</ele>
        <time>2022-02-20T08:56:28Z</time>
      </trkpt>
      <trkpt lat="46.421385956928134" lon="8.419480249285698">
        <ele>1753.6700000000001</ele>
        <time>2022-02-20T08:56:44Z</time>
      </trkpt>
      <trkpt lat="46.421372042968869" lon="8.419465413317084">
        <ele>1753.79</ele>
        <time>2022-02-20T08:56:55Z</time>
      </trkpt>
      <trkpt lat="46.421365588903427" lon="8.419418977573514">
        <ele>1752.6300000000001</ele>
        <time>2022-02-20T08:56:58Z</time>
      </trkpt>
      <trkpt lat="46.421352848410606" lon="8.419306324794889">
        <ele>1751.1600000000001</ele>
        <time>2022-02-20T08:57:05Z</time>
      </trkpt>
      <trkpt lat="46.421470195055008" lon="8.419297020882368">
        <ele>1750.8399999999999</ele>
        <time>2022-02-20T08:57:15Z</time>
      </trkpt>
      <trkpt lat="46.421707989647985" lon="8.4193748049438">
        <ele>1751.6800000000001</ele>
        <time>2022-02-20T08:57:35Z</time>
      </trkpt>
      <trkpt lat="46.421847213059664" lon="8.419436076655984">
        <ele>1752.4400000000001</ele>
        <time>2022-02-20T08:57:47Z</time>
      </trkpt>
      <trkpt lat="46.422005882486701" lon="8.419443117454648">
        <ele>1753.04</ele>
        <time>2022-02-20T08:58:00Z</time>
      </trkpt>
      <trkpt lat="46.422057179734111" lon="8.419423922896385">
        <ele>1753.54</ele>
        <time>2022-02-20T08:58:08Z</time>
      </trkpt>
      <trkpt lat="46.422076374292374" lon="8.419412691146135">
        <ele>1753.25</ele>
        <time>2022-02-20T08:58:10Z</time>
      </trkpt>
      <trkpt lat="46.422151811420918" lon="8.419388886541128">
        <ele>1753.96</ele>
        <time>2022-02-20T08:58:23Z</time>
      </trkpt>
      <trkpt lat="46.42218709923327" lon="8.419441608712077">
        <ele>1754.99</ele>
        <time>2022-02-20T08:58:36Z</time>
      </trkpt>
      <trkpt lat="46.422242587432265" lon="8.419512268155813">
        <ele>1756.95</ele>
        <time>2022-02-20T08:58:49Z</time>
      </trkpt>
      <trkpt lat="46.422277120873332" lon="8.419628944247961">
        <ele>1759.5799999999999</ele>
        <time>2022-02-20T08:59:05Z</time>
      </trkpt>
      <trkpt lat="46.422320874407887" lon="8.419617293402553">
        <ele>1760.28</ele>
        <time>2022-02-20T08:59:15Z</time>
      </trkpt>
      <trkpt lat="46.422403939068317" lon="8.419611342251301">
        <ele>1761.1500000000001</ele>
        <time>2022-02-20T08:59:28Z</time>
      </trkpt>
      <trkpt lat="46.422461522743106" lon="8.419682253152132">
        <ele>1762.8499999999999</ele>
        <time>2022-02-20T08:59:44Z</time>
      </trkpt>
      <trkpt lat="46.422496307641268" lon="8.419743608683348">
        <ele>1764.4400000000001</ele>
        <time>2022-02-20T08:59:59Z</time>
      </trkpt>
      <trkpt lat="46.422557914629579" lon="8.419744530692697">
        <ele>1765.28</ele>
        <time>2022-02-20T09:00:13Z</time>
      </trkpt>
      <trkpt lat="46.422619353979826" lon="8.419761881232262">
        <ele>1766.72</ele>
        <time>2022-02-20T09:00:28Z</time>
      </trkpt>
      <trkpt lat="46.422654390335083" lon="8.41982826590538">
        <ele>1769.5999999999999</ele>
        <time>2022-02-20T09:00:45Z</time>
      </trkpt>
      <trkpt lat="46.422653887420893" lon="8.419876378029585">
        <ele>1771.3699999999999</ele>
        <time>2022-02-20T09:00:57Z</time>
      </trkpt>
      <trkpt lat="46.422674171626568" lon="8.419917114078999">
        <ele>1773.1099999999999</ele>
        <time>2022-02-20T09:01:13Z</time>
      </trkpt>
      <trkpt lat="46.422721445560455" lon="8.419966399669647">
        <ele>1776.01</ele>
        <time>2022-02-20T09:01:33Z</time>
      </trkpt>
      <trkpt lat="46.422723960131407" lon="8.420000765472651">
        <ele>1777.49</ele>
        <time>2022-02-20T09:01:55Z</time>
      </trkpt>
      <trkpt lat="46.422755643725395" lon="8.419995149597526">
        <ele>1778.3399999999999</ele>
        <time>2022-02-20T09:02:10Z</time>
      </trkpt>
      <trkpt lat="46.42280912026763" lon="8.41999045573175">
        <ele>1779.6500000000001</ele>
        <time>2022-02-20T09:02:21Z</time>
      </trkpt>
      <trkpt lat="46.422865949571133" lon="8.420036723837256">
        <ele>1782.53</ele>
        <time>2022-02-20T09:02:37Z</time>
      </trkpt>
      <trkpt lat="46.4228589925915" lon="8.420057510957122">
        <ele>1783.8399999999999</ele>
        <time>2022-02-20T09:02:50Z</time>
      </trkpt>
      <trkpt lat="46.42285019159317" lon="8.420080309733748">
        <ele>1785.3599999999999</ele>
        <time>2022-02-20T09:03:05Z</time>
      </trkpt>
      <trkpt lat="46.422812892124057" lon="8.420061115175486">
        <ele>1785.6400000000001</ele>
        <time>2022-02-20T09:03:19Z</time>
      </trkpt>
      <trkpt lat="46.422814317047596" lon="8.420056840404868">
        <ele>1786.6300000000001</ele>
        <time>2022-02-20T09:03:23Z</time>
      </trkpt>
      <trkpt lat="46.422803923487663" lon="8.420052314177156">
        <ele>1785.9000000000001</ele>
        <time>2022-02-20T09:03:25Z</time>
      </trkpt>
      <trkpt lat="46.42279788851738" lon="8.420067820698023">
        <ele>1784.8800000000001</ele>
        <time>2022-02-20T09:03:38Z</time>
      </trkpt>
      <trkpt lat="46.422805180773139" lon="8.420064216479659">
        <ele>1784.8599999999999</ele>
        <time>2022-02-20T09:04:31Z</time>
      </trkpt>
      <trkpt lat="46.422798559069633" lon="8.420076202601194">
        <ele>1785.1400000000001</ele>
        <time>2022-02-20T09:04:58Z</time>
      </trkpt>
      <trkpt lat="46.422799145802855" lon="8.420075699687004">
        <ele>1786.29</ele>
        <time>2022-02-20T09:05:07Z</time>
      </trkpt>
      <trkpt lat="46.422809958457947" lon="8.420079303905368">
        <ele>1785.8399999999999</ele>
        <time>2022-02-20T09:05:20Z</time>
      </trkpt>
      <trkpt lat="46.422810880467296" lon="8.42007645405829">
        <ele>1786.1700000000001</ele>
        <time>2022-02-20T09:05:37Z</time>
      </trkpt>
      <trkpt lat="46.422814652323723" lon="8.420117190107703">
        <ele>1786.1199999999999</ele>
        <time>2022-02-20T09:05:53Z</time>
      </trkpt>
      <trkpt lat="46.422820016741753" lon="8.420169996097684">
        <ele>1787.3399999999999</ele>
        <time>2022-02-20T09:06:06Z</time>
      </trkpt>
      <trkpt lat="46.422822782769799" lon="8.420176450163126">
        <ele>1788.27</ele>
        <time>2022-02-20T09:06:12Z</time>
      </trkpt>
      <trkpt lat="46.422908026725054" lon="8.420260855928063">
        <ele>1790.2</ele>
        <time>2022-02-20T09:06:28Z</time>
      </trkpt>
      <trkpt lat="46.422960497438908" lon="8.420343585312367">
        <ele>1792.72</ele>
        <time>2022-02-20T09:06:43Z</time>
      </trkpt>
      <trkpt lat="46.423033503815532" lon="8.420381722971797">
        <ele>1794.98</ele>
        <time>2022-02-20T09:06:58Z</time>
      </trkpt>
      <trkpt lat="46.423089746385813" lon="8.420389099046588">
        <ele>1797.1099999999999</ele>
        <time>2022-02-20T09:07:13Z</time>
      </trkpt>
      <trkpt lat="46.423165770247579" lon="8.420390859246254">
        <ele>1799.4100000000001</ele>
        <time>2022-02-20T09:07:27Z</time>
      </trkpt>
      <trkpt lat="46.423206506296992" lon="8.420415502041578">
        <ele>1797.99</ele>
        <time>2022-02-20T09:07:40Z</time>
      </trkpt>
      <trkpt lat="46.423204578459263" lon="8.420420112088323">
        <ele>1801.21</ele>
        <time>2022-02-20T09:07:53Z</time>
      </trkpt>
      <trkpt lat="46.423242799937725" lon="8.42044492252171">
        <ele>1801.3299999999999</ele>
        <time>2022-02-20T09:08:06Z</time>
      </trkpt>
      <trkpt lat="46.423309436067939" lon="8.420497560873628">
        <ele>1804.0599999999999</ele>
        <time>2022-02-20T09:08:21Z</time>
      </trkpt>
      <trkpt lat="46.423303233459592" lon="8.420553803443909">
        <ele>1807.1700000000001</ele>
        <time>2022-02-20T09:08:35Z</time>
      </trkpt>
      <trkpt lat="46.423368277028203" lon="8.420610213652253">
        <ele>1809.4300000000001</ele>
        <time>2022-02-20T09:08:52Z</time>
      </trkpt>
      <trkpt lat="46.423395518213511" lon="8.420662516728044">
        <ele>1811.21</ele>
        <time>2022-02-20T09:09:05Z</time>
      </trkpt>
      <trkpt lat="46.423356458544731" lon="8.420698810368776">
        <ele>1812.98</ele>
        <time>2022-02-20T09:09:19Z</time>
      </trkpt>
      <trkpt lat="46.423361571505666" lon="8.420730158686638">
        <ele>1814.6900000000001</ele>
        <time>2022-02-20T09:09:31Z</time>
      </trkpt>
      <trkpt lat="46.423366349190474" lon="8.420773409307003">
        <ele>1816.3900000000001</ele>
        <time>2022-02-20T09:09:45Z</time>
      </trkpt>
      <trkpt lat="46.42328848131001" lon="8.42082604765892">
        <ele>1818.24</ele>
        <time>2022-02-20T09:10:03Z</time>
      </trkpt>
      <trkpt lat="46.423247242346406" lon="8.420920427888632">
        <ele>1820.4100000000001</ele>
        <time>2022-02-20T09:10:19Z</time>
      </trkpt>
      <trkpt lat="46.423216564580798" lon="8.421024195849896">
        <ele>1822.78</ele>
        <time>2022-02-20T09:10:35Z</time>
      </trkpt>
      <trkpt lat="46.423188149929047" lon="8.421092759817839">
        <ele>1824.3199999999999</ele>
        <time>2022-02-20T09:10:51Z</time>
      </trkpt>
      <trkpt lat="46.423187144100666" lon="8.421094939112663">
        <ele>1824.4100000000001</ele>
        <time>2022-02-20T09:11:07Z</time>
      </trkpt>
      <trkpt lat="46.423255037516356" lon="8.421076163649559">
        <ele>1826.1199999999999</ele>
        <time>2022-02-20T09:11:22Z</time>
      </trkpt>
      <trkpt lat="46.423326702788472" lon="8.421044563874602">
        <ele>1829.1500000000001</ele>
        <time>2022-02-20T09:11:38Z</time>
      </trkpt>
      <trkpt lat="46.423396188765764" lon="8.421014305204153">
        <ele>1832.1700000000001</ele>
        <time>2022-02-20T09:11:53Z</time>
      </trkpt>
      <trkpt lat="46.423443630337715" lon="8.421006677672267">
        <ele>1833.0899999999999</ele>
        <time>2022-02-20T09:12:06Z</time>
      </trkpt>
      <trkpt lat="46.423534322530031" lon="8.421026626601815">
        <ele>1832.79</ele>
        <time>2022-02-20T09:12:21Z</time>
      </trkpt>
      <trkpt lat="46.423597102984786" lon="8.421038696542382">
        <ele>1835.8</ele>
        <time>2022-02-20T09:12:36Z</time>
      </trkpt>
      <trkpt lat="46.423653932288289" lon="8.421012293547392">
        <ele>1838.6099999999999</ele>
        <time>2022-02-20T09:12:49Z</time>
      </trkpt>
      <trkpt lat="46.423757867887616" lon="8.421006258577108">
        <ele>1839.5599999999999</ele>
        <time>2022-02-20T09:13:06Z</time>
      </trkpt>
      <trkpt lat="46.423830203711987" lon="8.421050515025854">
        <ele>1839.1800000000001</ele>
        <time>2022-02-20T09:13:20Z</time>
      </trkpt>
      <trkpt lat="46.423877058550715" lon="8.421020172536373">
        <ele>1841.1300000000001</ele>
        <time>2022-02-20T09:13:32Z</time>
      </trkpt>
      <trkpt lat="46.423889715224504" lon="8.420996367931366">
        <ele>1841.8399999999999</ele>
        <time>2022-02-20T09:13:36Z</time>
      </trkpt>
      <trkpt lat="46.423888960853219" lon="8.420984717085958">
        <ele>1841.8199999999999</ele>
        <time>2022-02-20T09:13:45Z</time>
      </trkpt>
      <trkpt lat="46.423948388546705" lon="8.421003241091967">
        <ele>1843.3599999999999</ele>
        <time>2022-02-20T09:13:58Z</time>
      </trkpt>
      <trkpt lat="46.424007397145033" lon="8.421040121465921">
        <ele>1845.8399999999999</ele>
        <time>2022-02-20T09:14:13Z</time>
      </trkpt>
      <trkpt lat="46.424049977213144" lon="8.421102734282613">
        <ele>1848.95</ele>
        <time>2022-02-20T09:14:29Z</time>
      </trkpt>
      <trkpt lat="46.424092389643192" lon="8.421130478382111">
        <ele>1850.9000000000001</ele>
        <time>2022-02-20T09:14:43Z</time>
      </trkpt>
      <trkpt lat="46.424112841486931" lon="8.421142632141709">
        <ele>1851</ele>
        <time>2022-02-20T09:14:55Z</time>
      </trkpt>
      <trkpt lat="46.424105213955045" lon="8.421183032914996">
        <ele>1852.5999999999999</ele>
        <time>2022-02-20T09:15:06Z</time>
      </trkpt>
      <trkpt lat="46.424136226996779" lon="8.421219829469919">
        <ele>1854.6099999999999</ele>
        <time>2022-02-20T09:15:20Z</time>
      </trkpt>
      <trkpt lat="46.424117535352707" lon="8.421262325718999">
        <ele>1856.6300000000001</ele>
        <time>2022-02-20T09:15:34Z</time>
      </trkpt>
      <trkpt lat="46.424085348844528" lon="8.421328961849213">
        <ele>1858.8299999999999</ele>
        <time>2022-02-20T09:15:50Z</time>
      </trkpt>
      <trkpt lat="46.424130778759718" lon="8.421349916607142">
        <ele>1859.9400000000001</ele>
        <time>2022-02-20T09:16:02Z</time>
      </trkpt>
      <trkpt lat="46.424142681062222" lon="8.421353604644537">
        <ele>1859.8900000000001</ele>
        <time>2022-02-20T09:16:12Z</time>
      </trkpt>
      <trkpt lat="46.424136394634843" lon="8.421383863314986">
        <ele>1860.0699999999999</ele>
        <time>2022-02-20T09:16:27Z</time>
      </trkpt>
      <trkpt lat="46.424139160662889" lon="8.421439100056887">
        <ele>1862.74</ele>
        <time>2022-02-20T09:16:39Z</time>
      </trkpt>
      <trkpt lat="46.424138657748699" lon="8.421495845541358">
        <ele>1865.23</ele>
        <time>2022-02-20T09:16:53Z</time>
      </trkpt>
      <trkpt lat="46.424193056300282" lon="8.421502634882927">
        <ele>1867.4400000000001</ele>
        <time>2022-02-20T09:17:06Z</time>
      </trkpt>
      <trkpt lat="46.424207473173738" lon="8.421548651531339">
        <ele>1868.5999999999999</ele>
        <time>2022-02-20T09:17:14Z</time>
      </trkpt>
      <trkpt lat="46.424209736287594" lon="8.42158829793334">
        <ele>1869.3599999999999</ele>
        <time>2022-02-20T09:17:19Z</time>
      </trkpt>
      <trkpt lat="46.424226751551032" lon="8.421663902699947">
        <ele>1870.47</ele>
        <time>2022-02-20T09:17:29Z</time>
      </trkpt>
      <trkpt lat="46.424258602783084" lon="8.42175493016839">
        <ele>1872.45</ele>
        <time>2022-02-20T09:17:43Z</time>
      </trkpt>
      <trkpt lat="46.424324568361044" lon="8.421779237687588">
        <ele>1874.75</ele>
        <time>2022-02-20T09:17:57Z</time>
      </trkpt>
      <trkpt lat="46.424403777346015" lon="8.421768927946687">
        <ele>1876.3599999999999</ele>
        <time>2022-02-20T09:18:12Z</time>
      </trkpt>
      <trkpt lat="46.424410985782743" lon="8.421763898804784">
        <ele>1876.5599999999999</ele>
        <time>2022-02-20T09:18:14Z</time>
      </trkpt>
      <trkpt lat="46.424464043229818" lon="8.421735567972064">
        <ele>1877.9300000000001</ele>
        <time>2022-02-20T09:18:25Z</time>
      </trkpt>
      <trkpt lat="46.424495559185743" lon="8.421724755316973">
        <ele>1880.22</ele>
        <time>2022-02-20T09:18:37Z</time>
      </trkpt>
      <trkpt lat="46.424525314942002" lon="8.421698855236173">
        <ele>1882.03</ele>
        <time>2022-02-20T09:18:48Z</time>
      </trkpt>
      <trkpt lat="46.424526823684573" lon="8.421691646799445">
        <ele>1882.8900000000001</ele>
        <time>2022-02-20T09:18:57Z</time>
      </trkpt>
      <trkpt lat="46.424543671309948" lon="8.421673541888595">
        <ele>1883.6900000000001</ele>
        <time>2022-02-20T09:19:02Z</time>
      </trkpt>
      <trkpt lat="46.424569571390748" lon="8.421609168872237">
        <ele>1884.48</ele>
        <time>2022-02-20T09:19:09Z</time>
      </trkpt>
      <trkpt lat="46.424624305218458" lon="8.421612605452538">
        <ele>1887.05</ele>
        <time>2022-02-20T09:19:22Z</time>
      </trkpt>
      <trkpt lat="46.424683229997754" lon="8.421579245477915">
        <ele>1887.8599999999999</ele>
        <time>2022-02-20T09:19:30Z</time>
      </trkpt>
      <trkpt lat="46.424742490053177" lon="8.421547980979085">
        <ele>1888.5599999999999</ele>
        <time>2022-02-20T09:19:38Z</time>
      </trkpt>
      <trkpt lat="46.424856400117278" lon="8.421539347618818">
        <ele>1889.8</ele>
        <time>2022-02-20T09:19:53Z</time>
      </trkpt>
      <trkpt lat="46.424896968528628" lon="8.42161176726222">
        <ele>1891.3399999999999</ele>
        <time>2022-02-20T09:20:04Z</time>
      </trkpt>
      <trkpt lat="46.424963856115937" lon="8.421627776697278">
        <ele>1892.9300000000001</ele>
        <time>2022-02-20T09:20:17Z</time>
      </trkpt>
      <trkpt lat="46.425017081201077" lon="8.421652503311634">
        <ele>1894.47</ele>
        <time>2022-02-20T09:20:29Z</time>
      </trkpt>
      <trkpt lat="46.425042729824781" lon="8.421730371192098">
        <ele>1897.47</ele>
        <time>2022-02-20T09:20:45Z</time>
      </trkpt>
      <trkpt lat="46.425060667097569" lon="8.421750739216805">
        <ele>1899.1900000000001</ele>
        <time>2022-02-20T09:20:56Z</time>
      </trkpt>
      <trkpt lat="46.425048597157001" lon="8.421812430024147">
        <ele>1900.01</ele>
        <time>2022-02-20T09:21:12Z</time>
      </trkpt>
      <trkpt lat="46.425089333206415" lon="8.421841012313962">
        <ele>1902.1800000000001</ele>
        <time>2022-02-20T09:21:24Z</time>
      </trkpt>
      <trkpt lat="46.425129566341639" lon="8.421866493299604">
        <ele>1904.4300000000001</ele>
        <time>2022-02-20T09:21:38Z</time>
      </trkpt>
      <trkpt lat="46.425176504999399" lon="8.421884095296264">
        <ele>1906.8599999999999</ele>
        <time>2022-02-20T09:21:50Z</time>
      </trkpt>
      <trkpt lat="46.425194777548313" lon="8.421912090852857">
        <ele>1908.4100000000001</ele>
        <time>2022-02-20T09:22:03Z</time>
      </trkpt>
      <trkpt lat="46.425174074247479" lon="8.422002447769046">
        <ele>1910.2</ele>
        <time>2022-02-20T09:22:17Z</time>
      </trkpt>
      <trkpt lat="46.42517508007586" lon="8.422091044485569">
        <ele>1912.2</ele>
        <time>2022-02-20T09:22:30Z</time>
      </trkpt>
      <trkpt lat="46.425200812518597" lon="8.422161368653178">
        <ele>1913.8699999999999</ele>
        <time>2022-02-20T09:22:44Z</time>
      </trkpt>
      <trkpt lat="46.42525227740407" lon="8.422205206006765">
        <ele>1916.27</ele>
        <time>2022-02-20T09:22:58Z</time>
      </trkpt>
      <trkpt lat="46.425271891057491" lon="8.422256587073207">
        <ele>1917.8499999999999</ele>
        <time>2022-02-20T09:23:14Z</time>
      </trkpt>
      <trkpt lat="46.425270214676857" lon="8.422348536550999">
        <ele>1920.3399999999999</ele>
        <time>2022-02-20T09:23:27Z</time>
      </trkpt>
      <trkpt lat="46.425278261303902" lon="8.422389440238476">
        <ele>1921.8599999999999</ele>
        <time>2022-02-20T09:23:41Z</time>
      </trkpt>
      <trkpt lat="46.425284883007407" lon="8.422475270926952">
        <ele>1922.96</ele>
        <time>2022-02-20T09:23:55Z</time>
      </trkpt>
      <trkpt lat="46.425263090059161" lon="8.422616422176361">
        <ele>1925.79</ele>
        <time>2022-02-20T09:24:13Z</time>
      </trkpt>
      <trkpt lat="46.425273483619094" lon="8.422684147953987">
        <ele>1927.9300000000001</ele>
        <time>2022-02-20T09:24:25Z</time>
      </trkpt>
      <trkpt lat="46.425305502489209" lon="8.422748688608408">
        <ele>1930.4400000000001</ele>
        <time>2022-02-20T09:24:40Z</time>
      </trkpt>
      <trkpt lat="46.42535001039505" lon="8.422796800732613">
        <ele>1933.55</ele>
        <time>2022-02-20T09:24:56Z</time>
      </trkpt>
      <trkpt lat="46.425404492765665" lon="8.422842565923929">
        <ele>1936.21</ele>
        <time>2022-02-20T09:25:11Z</time>
      </trkpt>
      <trkpt lat="46.425461657345295" lon="8.422877518460155">
        <ele>1938.49</ele>
        <time>2022-02-20T09:25:28Z</time>
      </trkpt>
      <trkpt lat="46.425504237413406" lon="8.422897467389703">
        <ele>1940.4200000000001</ele>
        <time>2022-02-20T09:25:41Z</time>
      </trkpt>
      <trkpt lat="46.425584033131599" lon="8.422905430197716">
        <ele>1943.54</ele>
        <time>2022-02-20T09:26:00Z</time>
      </trkpt>
      <trkpt lat="46.425639521330595" lon="8.422942310571671">
        <ele>1945.54</ele>
        <time>2022-02-20T09:26:14Z</time>
      </trkpt>
      <trkpt lat="46.425691908225417" lon="8.42298774048686">
        <ele>1947.77</ele>
        <time>2022-02-20T09:26:27Z</time>
      </trkpt>
      <trkpt lat="46.425703139975667" lon="8.422994278371334">
        <ele>1948.3800000000001</ele>
        <time>2022-02-20T09:26:42Z</time>
      </trkpt>
      <trkpt lat="46.425740271806717" lon="8.42300970107317">
        <ele>1948.96</ele>
        <time>2022-02-20T09:26:55Z</time>
      </trkpt>
      <trkpt lat="46.425760220736265" lon="8.423017496243119">
        <ele>1949.21</ele>
        <time>2022-02-20T09:26:57Z</time>
      </trkpt>
      <trkpt lat="46.425888128578663" lon="8.423061249777675">
        <ele>1950.3</ele>
        <time>2022-02-20T09:27:09Z</time>
      </trkpt>
      <trkpt lat="46.425912855193019" lon="8.423049682751298">
        <ele>1950.6800000000001</ele>
        <time>2022-02-20T09:27:12Z</time>
      </trkpt>
      <trkpt lat="46.426004888489842" lon="8.422891348600388">
        <ele>1952.49</ele>
        <time>2022-02-20T09:27:27Z</time>
      </trkpt>
      <trkpt lat="46.426049647852778" lon="8.422675933688879">
        <ele>1954.53</ele>
        <time>2022-02-20T09:27:43Z</time>
      </trkpt>
      <trkpt lat="46.426112176850438" lon="8.422474768012762">
        <ele>1955.8900000000001</ele>
        <time>2022-02-20T09:27:59Z</time>
      </trkpt>
      <trkpt lat="46.42619289457798" lon="8.42228701338172">
        <ele>1957.4300000000001</ele>
        <time>2022-02-20T09:28:16Z</time>
      </trkpt>
      <trkpt lat="46.426281994208694" lon="8.422127170488238">
        <ele>1958.6900000000001</ele>
        <time>2022-02-20T09:28:32Z</time>
      </trkpt>
      <trkpt lat="46.426309403032064" lon="8.422077046707273">
        <ele>1959.2</ele>
        <time>2022-02-20T09:28:37Z</time>
      </trkpt>
      <trkpt lat="46.426359442993999" lon="8.421984845772386">
        <ele>1959.1600000000001</ele>
        <time>2022-02-20T09:28:46Z</time>
      </trkpt>
      <trkpt lat="46.426424067467451" lon="8.421827685087919">
        <ele>1960.95</ele>
        <time>2022-02-20T09:29:00Z</time>
      </trkpt>
      <trkpt lat="46.426494475454092" lon="8.421772951260209">
        <ele>1964.1199999999999</ele>
        <time>2022-02-20T09:29:14Z</time>
      </trkpt>
      <trkpt lat="46.426561949774623" lon="8.421730119735003">
        <ele>1966.76</ele>
        <time>2022-02-20T09:29:28Z</time>
      </trkpt>
      <trkpt lat="46.426608050242066" lon="8.421630626544356">
        <ele>1968.4300000000001</ele>
        <time>2022-02-20T09:29:41Z</time>
      </trkpt>
      <trkpt lat="46.426702765747905" lon="8.421572037041187">
        <ele>1970.3399999999999</ele>
        <time>2022-02-20T09:29:55Z</time>
      </trkpt>
      <trkpt lat="46.426695389673114" lon="8.421588717028499">
        <ele>1971.0699999999999</ele>
        <time>2022-02-20T09:30:09Z</time>
      </trkpt>
      <trkpt lat="46.426698993891478" lon="8.421602295711637">
        <ele>1970.8299999999999</ele>
        <time>2022-02-20T09:30:29Z</time>
      </trkpt>
      <trkpt lat="46.426746435463428" lon="8.421674380078912">
        <ele>1972.9300000000001</ele>
        <time>2022-02-20T09:30:40Z</time>
      </trkpt>
      <trkpt lat="46.426728749647737" lon="8.421855596825481">
        <ele>1974.9400000000001</ele>
        <time>2022-02-20T09:30:55Z</time>
      </trkpt>
      <trkpt lat="46.426683571189642" lon="8.422053325921297">
        <ele>1976.0799999999999</ele>
        <time>2022-02-20T09:31:11Z</time>
      </trkpt>
      <trkpt lat="46.426585167646408" lon="8.422214174643159">
        <ele>1977.9300000000001</ele>
        <time>2022-02-20T09:31:28Z</time>
      </trkpt>
      <trkpt lat="46.426565805450082" lon="8.422380890697241">
        <ele>1979.0899999999999</ele>
        <time>2022-02-20T09:31:42Z</time>
      </trkpt>
      <trkpt lat="46.426579132676125" lon="8.422569315880537">
        <ele>1980.5899999999999</ele>
        <time>2022-02-20T09:31:58Z</time>
      </trkpt>
      <trkpt lat="46.426571505144238" lon="8.422594042494893">
        <ele>1980.8499999999999</ele>
        <time>2022-02-20T09:32:11Z</time>
      </trkpt>
      <trkpt lat="46.426581228151917" lon="8.422701917588711">
        <ele>1980.8900000000001</ele>
        <time>2022-02-20T09:32:29Z</time>
      </trkpt>
      <trkpt lat="46.426630178466439" lon="8.422760423272848">
        <ele>1983.0999999999999</ele>
        <time>2022-02-20T09:32:42Z</time>
      </trkpt>
      <trkpt lat="46.426636297255754" lon="8.422780958935618">
        <ele>1984.1199999999999</ele>
        <time>2022-02-20T09:32:55Z</time>
      </trkpt>
      <trkpt lat="46.42665515653789" lon="8.422831082716584">
        <ele>1985.9300000000001</ele>
        <time>2022-02-20T09:33:06Z</time>
      </trkpt>
      <trkpt lat="46.426681978628039" lon="8.422881877049804">
        <ele>1987.8499999999999</ele>
        <time>2022-02-20T09:33:17Z</time>
      </trkpt>
      <trkpt lat="46.426713829860091" lon="8.42293057590723">
        <ele>1990.77</ele>
        <time>2022-02-20T09:33:32Z</time>
      </trkpt>
      <trkpt lat="46.426720451563597" lon="8.422997714951634">
        <ele>1992.23</ele>
        <time>2022-02-20T09:33:42Z</time>
      </trkpt>
      <trkpt lat="46.426717601716518" lon="8.423106512054801">
        <ele>1994.54</ele>
        <time>2022-02-20T09:33:57Z</time>
      </trkpt>
      <trkpt lat="46.426726821810007" lon="8.423204245045781">
        <ele>1996.3299999999999</ele>
        <time>2022-02-20T09:34:12Z</time>
      </trkpt>
      <trkpt lat="46.426735874265432" lon="8.423290159553289">
        <ele>1998.72</ele>
        <time>2022-02-20T09:34:26Z</time>
      </trkpt>
      <trkpt lat="46.4267548173666" lon="8.423337182030082">
        <ele>2000.3800000000001</ele>
        <time>2022-02-20T09:34:38Z</time>
      </trkpt>
      <trkpt lat="46.426768647506833" lon="8.423381941393018">
        <ele>2001.8399999999999</ele>
        <time>2022-02-20T09:34:50Z</time>
      </trkpt>
      <trkpt lat="46.426794799044728" lon="8.423413876444101">
        <ele>2003.71</ele>
        <time>2022-02-20T09:35:03Z</time>
      </trkpt>
      <trkpt lat="46.426819274201989" lon="8.423368697986007">
        <ele>2004.8299999999999</ele>
        <time>2022-02-20T09:35:13Z</time>
      </trkpt>
      <trkpt lat="46.426838804036379" lon="8.423426449298859">
        <ele>2006.8399999999999</ele>
        <time>2022-02-20T09:35:27Z</time>
      </trkpt>
      <trkpt lat="46.426878198981285" lon="8.423500461503863">
        <ele>2008.46</ele>
        <time>2022-02-20T09:35:41Z</time>
      </trkpt>
      <trkpt lat="46.426913319155574" lon="8.423518985509872">
        <ele>2010.8099999999999</ele>
        <time>2022-02-20T09:35:54Z</time>
      </trkpt>
      <trkpt lat="46.426925221458077" lon="8.423493420705199">
        <ele>2012.3</ele>
        <time>2022-02-20T09:36:06Z</time>
      </trkpt>
      <trkpt lat="46.426939805969596" lon="8.423462072387338">
        <ele>2013.7</ele>
        <time>2022-02-20T09:36:19Z</time>
      </trkpt>
      <trkpt lat="46.426946595311165" lon="8.423430640250444">
        <ele>2014.6199999999999</ele>
        <time>2022-02-20T09:36:30Z</time>
      </trkpt>
      <trkpt lat="46.426956653594971" lon="8.423434160649777">
        <ele>2014.8499999999999</ele>
        <time>2022-02-20T09:36:45Z</time>
      </trkpt>
      <trkpt lat="46.426977105438709" lon="8.42340842820704">
        <ele>2016.52</ele>
        <time>2022-02-20T09:36:59Z</time>
      </trkpt>
      <trkpt lat="46.427006106823683" lon="8.423393508419395">
        <ele>2018.4000000000001</ele>
        <time>2022-02-20T09:37:10Z</time>
      </trkpt>
      <trkpt lat="46.427042316645384" lon="8.423439608886838">
        <ele>2021.49</ele>
        <time>2022-02-20T09:37:27Z</time>
      </trkpt>
      <trkpt lat="46.427072742953897" lon="8.423480931669474">
        <ele>2023.02</ele>
        <time>2022-02-20T09:37:44Z</time>
      </trkpt>
      <trkpt lat="46.427101409062743" lon="8.423473220318556">
        <ele>2024.48</ele>
        <time>2022-02-20T09:37:55Z</time>
      </trkpt>
      <trkpt lat="46.427132673561573" lon="8.42354916036129">
        <ele>2026.3199999999999</ele>
        <time>2022-02-20T09:38:08Z</time>
      </trkpt>
      <trkpt lat="46.427174666896462" lon="8.423623340204358">
        <ele>2027.8</ele>
        <time>2022-02-20T09:38:20Z</time>
      </trkpt>
      <trkpt lat="46.427236525341868" lon="8.423634236678481">
        <ele>2029.3399999999999</ele>
        <time>2022-02-20T09:38:33Z</time>
      </trkpt>
      <trkpt lat="46.427311208099127" lon="8.423613365739584">
        <ele>2031.1700000000001</ele>
        <time>2022-02-20T09:38:49Z</time>
      </trkpt>
      <trkpt lat="46.427352363243699" lon="8.423616969957948">
        <ele>2032.3800000000001</ele>
        <time>2022-02-20T09:39:01Z</time>
      </trkpt>
      <trkpt lat="46.427414556965232" lon="8.423602972179651">
        <ele>2034.78</ele>
        <time>2022-02-20T09:39:17Z</time>
      </trkpt>
      <trkpt lat="46.427482618018985" lon="8.423581598326564">
        <ele>2036.6700000000001</ele>
        <time>2022-02-20T09:39:32Z</time>
      </trkpt>
      <trkpt lat="46.427537519484758" lon="8.42357262969017">
        <ele>2038.6199999999999</ele>
        <time>2022-02-20T09:39:46Z</time>
      </trkpt>
      <trkpt lat="46.427586218342185" lon="8.423569612205029">
        <ele>2040.95</ele>
        <time>2022-02-20T09:40:00Z</time>
      </trkpt>
      <trkpt lat="46.42762066796422" lon="8.423572713509202">
        <ele>2042.3299999999999</ele>
        <time>2022-02-20T09:40:12Z</time>
      </trkpt>
      <trkpt lat="46.427682777866721" lon="8.423540778458118">
        <ele>2043.1700000000001</ele>
        <time>2022-02-20T09:40:26Z</time>
      </trkpt>
      <trkpt lat="46.427742205560207" lon="8.423486547544599">
        <ele>2043.76</ele>
        <time>2022-02-20T09:40:41Z</time>
      </trkpt>
      <trkpt lat="46.427744301036" lon="8.423495180904865">
        <ele>2043.3099999999999</ele>
        <time>2022-02-20T09:40:54Z</time>
      </trkpt>
      <trkpt lat="46.427740277722478" lon="8.42349836602807">
        <ele>2043.8800000000001</ele>
        <time>2022-02-20T09:41:25Z</time>
      </trkpt>
      <trkpt lat="46.427748575806618" lon="8.423502221703529">
        <ele>2043.96</ele>
        <time>2022-02-20T09:41:37Z</time>
      </trkpt>
      <trkpt lat="46.427750084549189" lon="8.423501467332244">
        <ele>2045.0899999999999</ele>
        <time>2022-02-20T09:41:56Z</time>
      </trkpt>
      <trkpt lat="46.427748240530491" lon="8.423509178683162">
        <ele>2043.98</ele>
        <time>2022-02-20T09:42:10Z</time>
      </trkpt>
      <trkpt lat="46.427792245522141" lon="8.42350565828383">
        <ele>2046.0899999999999</ele>
        <time>2022-02-20T09:42:30Z</time>
      </trkpt>
      <trkpt lat="46.427857792004943" lon="8.423498701304197">
        <ele>2049.1799999999998</ele>
        <time>2022-02-20T09:42:43Z</time>
      </trkpt>
      <trkpt lat="46.427914872765541" lon="8.423464335501194">
        <ele>2052.27</ele>
        <time>2022-02-20T09:42:58Z</time>
      </trkpt>
      <trkpt lat="46.427957620471716" lon="8.423441201448441">
        <ele>2054.7199999999998</ele>
        <time>2022-02-20T09:43:10Z</time>
      </trkpt>
      <trkpt lat="46.428015539422631" lon="8.423409685492516">
        <ele>2057.77</ele>
        <time>2022-02-20T09:43:26Z</time>
      </trkpt>
      <trkpt lat="46.428073793649673" lon="8.423382360488176">
        <ele>2058.9400000000001</ele>
        <time>2022-02-20T09:43:38Z</time>
      </trkpt>
      <trkpt lat="46.428141351789236" lon="8.423383785411716">
        <ele>2060.5300000000002</ele>
        <time>2022-02-20T09:43:51Z</time>
      </trkpt>
      <trkpt lat="46.428214944899082" lon="8.423411697149277">
        <ele>2061.9200000000001</ele>
        <time>2022-02-20T09:44:04Z</time>
      </trkpt>
      <trkpt lat="46.428306726738811" lon="8.423412954434753">
        <ele>2063.8400000000001</ele>
        <time>2022-02-20T09:44:21Z</time>
      </trkpt>
      <trkpt lat="46.428373614326119" lon="8.423405243083835">
        <ele>2065.3800000000001</ele>
        <time>2022-02-20T09:44:33Z</time>
      </trkpt>
      <trkpt lat="46.428433042019606" lon="8.423372218385339">
        <ele>2067.48</ele>
        <time>2022-02-20T09:44:48Z</time>
      </trkpt>
      <trkpt lat="46.428485848009586" lon="8.423378420993686">
        <ele>2069.3600000000001</ele>
        <time>2022-02-20T09:45:02Z</time>
      </trkpt>
      <trkpt lat="46.42853831872344" lon="8.423426365479827">
        <ele>2071.02</ele>
        <time>2022-02-20T09:45:16Z</time>
      </trkpt>
      <trkpt lat="46.428582239896059" lon="8.423449750989676">
        <ele>2073.23</ele>
        <time>2022-02-20T09:45:31Z</time>
      </trkpt>
      <trkpt lat="46.428634794428945" lon="8.423486212268472">
        <ele>2075.1100000000001</ele>
        <time>2022-02-20T09:45:45Z</time>
      </trkpt>
      <trkpt lat="46.428682822734118" lon="8.423509765416384">
        <ele>2077.4299999999998</ele>
        <time>2022-02-20T09:46:00Z</time>
      </trkpt>
      <trkpt lat="46.428709477186203" lon="8.423481350764632">
        <ele>2078.8800000000001</ele>
        <time>2022-02-20T09:46:10Z</time>
      </trkpt>
      <trkpt lat="46.42871567979455" lon="8.423473220318556">
        <ele>2079.0900000000001</ele>
        <time>2022-02-20T09:46:21Z</time>
      </trkpt>
      <trkpt lat="46.428718445822597" lon="8.423475902527571">
        <ele>2079.8800000000001</ele>
        <time>2022-02-20T09:46:33Z</time>
      </trkpt>
      <trkpt lat="46.428700340911746" lon="8.423356795683503">
        <ele>2080.48</ele>
        <time>2022-02-20T09:46:46Z</time>
      </trkpt>
      <trkpt lat="46.428638063371181" lon="8.423171304166317">
        <ele>2082.1900000000001</ele>
        <time>2022-02-20T09:47:03Z</time>
      </trkpt>
      <trkpt lat="46.428571091964841" lon="8.422995703294873">
        <ele>2084.1799999999998</ele>
        <time>2022-02-20T09:47:20Z</time>
      </trkpt>
      <trkpt lat="46.428549466654658" lon="8.422845751047134">
        <ele>2084.8400000000001</ele>
        <time>2022-02-20T09:47:33Z</time>
      </trkpt>
      <trkpt lat="46.428539995104074" lon="8.422775845974684">
        <ele>2085.3099999999999</ele>
        <time>2022-02-20T09:47:45Z</time>
      </trkpt>
      <trkpt lat="46.428543012589216" lon="8.422625726088882">
        <ele>2086.5999999999999</ele>
        <time>2022-02-20T09:47:57Z</time>
      </trkpt>
      <trkpt lat="46.428546281531453" lon="8.422512402758002">
        <ele>2087.5300000000002</ele>
        <time>2022-02-20T09:48:06Z</time>
      </trkpt>
      <trkpt lat="46.428569415584207" lon="8.422322133556008">
        <ele>2089.4400000000001</ele>
        <time>2022-02-20T09:48:22Z</time>
      </trkpt>
      <trkpt lat="46.428573690354824" lon="8.422156004235148">
        <ele>2090.3899999999999</ele>
        <time>2022-02-20T09:48:36Z</time>
      </trkpt>
      <trkpt lat="46.428619036450982" lon="8.4220031183213">
        <ele>2092.4200000000001</ele>
        <time>2022-02-20T09:48:50Z</time>
      </trkpt>
      <trkpt lat="46.428687516599894" lon="8.42202709056437">
        <ele>2093.9400000000001</ele>
        <time>2022-02-20T09:49:01Z</time>
      </trkpt>
      <trkpt lat="46.428723558783531" lon="8.422185089439154">
        <ele>2096.1999999999998</ele>
        <time>2022-02-20T09:49:18Z</time>
      </trkpt>
      <trkpt lat="46.428713416680694" lon="8.422346441075206">
        <ele>2097.7199999999998</ele>
        <time>2022-02-20T09:49:32Z</time>
      </trkpt>
      <trkpt lat="46.428711656481028" lon="8.422532770782709">
        <ele>2099.1999999999998</ele>
        <time>2022-02-20T09:49:48Z</time>
      </trkpt>
      <trkpt lat="46.428718445822597" lon="8.422567471861839">
        <ele>2099.5300000000002</ele>
        <time>2022-02-20T09:49:51Z</time>
      </trkpt>
      <trkpt lat="46.428814502432942" lon="8.422648860141635">
        <ele>2101.5500000000002</ele>
        <time>2022-02-20T09:50:06Z</time>
      </trkpt>
      <trkpt lat="46.428832774981856" lon="8.42264274135232">
        <ele>2101.8899999999999</ele>
        <time>2022-02-20T09:50:18Z</time>
      </trkpt>
      <trkpt lat="46.428900249302387" lon="8.422631174325943">
        <ele>2104.3200000000002</ele>
        <time>2022-02-20T09:50:32Z</time>
      </trkpt>
      <trkpt lat="46.428963197395205" lon="8.422620696946979">
        <ele>2107.3499999999999</ele>
        <time>2022-02-20T09:50:45Z</time>
      </trkpt>
      <trkpt lat="46.429022289812565" lon="8.422616757452488">
        <ele>2109.7600000000002</ele>
        <time>2022-02-20T09:50:59Z</time>
      </trkpt>
      <trkpt lat="46.429086327552795" lon="8.422619858756661">
        <ele>2112.27</ele>
        <time>2022-02-20T09:51:13Z</time>
      </trkpt>
      <trkpt lat="46.429161261767149" lon="8.422640394419432">
        <ele>2114.1999999999998</ele>
        <time>2022-02-20T09:51:28Z</time>
      </trkpt>
      <trkpt lat="46.429233094677329" lon="8.422675430774689">
        <ele>2116.1900000000001</ele>
        <time>2022-02-20T09:51:42Z</time>
      </trkpt>
      <trkpt lat="46.429267711937428" lon="8.422743743285537">
        <ele>2116.5999999999999</ele>
        <time>2022-02-20T09:51:56Z</time>
      </trkpt>
      <trkpt lat="46.429266035556793" lon="8.422774001955986">
        <ele>2117.6199999999999</ele>
        <time>2022-02-20T09:52:08Z</time>
      </trkpt>
      <trkpt lat="46.429256731644273" lon="8.422902831807733">
        <ele>2118.5999999999999</ele>
        <time>2022-02-20T09:52:23Z</time>
      </trkpt>
      <trkpt lat="46.429247343912721" lon="8.422912806272507">
        <ele>2118.1100000000001</ele>
        <time>2022-02-20T09:52:37Z</time>
      </trkpt>
      <trkpt lat="46.429247846826911" lon="8.422924960032105">
        <ele>2118.3800000000001</ele>
        <time>2022-02-20T09:52:41Z</time>
      </trkpt>
      <trkpt lat="46.429267879575491" lon="8.423147164285183">
        <ele>2119.6799999999998</ele>
        <time>2022-02-20T09:52:57Z</time>
      </trkpt>
      <trkpt lat="46.42927517183125" lon="8.423229139298201">
        <ele>2120.1399999999999</ele>
        <time>2022-02-20T09:53:03Z</time>
      </trkpt>
      <trkpt lat="46.429237285628915" lon="8.423468694090843">
        <ele>2122.3800000000001</ele>
        <time>2022-02-20T09:53:21Z</time>
      </trkpt>
      <trkpt lat="46.429266119375825" lon="8.423662148416042">
        <ele>2123.6399999999999</ele>
        <time>2022-02-20T09:53:36Z</time>
      </trkpt>
      <trkpt lat="46.429341724142432" lon="8.423865828663111">
        <ele>2125.25</ele>
        <time>2022-02-20T09:53:53Z</time>
      </trkpt>
      <trkpt lat="46.429365193471313" lon="8.424085099250078">
        <ele>2127.04</ele>
        <time>2022-02-20T09:54:08Z</time>
      </trkpt>
      <trkpt lat="46.429356224834919" lon="8.424312667921186">
        <ele>2128.0799999999999</ele>
        <time>2022-02-20T09:54:25Z</time>
      </trkpt>
      <trkpt lat="46.429336192086339" lon="8.424407467246056">
        <ele>2127.8600000000001</ele>
        <time>2022-02-20T09:54:33Z</time>
      </trkpt>
      <trkpt lat="46.429268047213554" lon="8.424567310139537">
        <ele>2130.1399999999999</ele>
        <time>2022-02-20T09:54:47Z</time>
      </trkpt>
      <trkpt lat="46.429215241223574" lon="8.424749281257391">
        <ele>2131.5100000000002</ele>
        <time>2022-02-20T09:55:02Z</time>
      </trkpt>
      <trkpt lat="46.429225718602538" lon="8.424945920705795">
        <ele>2132.7399999999998</ele>
        <time>2022-02-20T09:55:18Z</time>
      </trkpt>
      <trkpt lat="46.429313393309712" lon="8.425118420273066">
        <ele>2134.0900000000001</ele>
        <time>2022-02-20T09:55:35Z</time>
      </trkpt>
      <trkpt lat="46.429331414401531" lon="8.425146415829659">
        <ele>2134.54</ele>
        <time>2022-02-20T09:55:38Z</time>
      </trkpt>
      <trkpt lat="46.42943250015378" lon="8.425325620919466">
        <ele>2135.9000000000001</ele>
        <time>2022-02-20T09:55:55Z</time>
      </trkpt>
      <trkpt lat="46.429516570642591" lon="8.425504574552178">
        <ele>2137.77</ele>
        <time>2022-02-20T09:56:12Z</time>
      </trkpt>
      <trkpt lat="46.429608268663287" lon="8.425711272284389">
        <ele>2138.5799999999999</ele>
        <time>2022-02-20T09:56:29Z</time>
      </trkpt>
      <trkpt lat="46.429721424356103" lon="8.425926603376865">
        <ele>2139.0300000000002</ele>
        <time>2022-02-20T09:56:47Z</time>
      </trkpt>
      <trkpt lat="46.429841369390488" lon="8.426114777103066">
        <ele>2139.7199999999998</ele>
        <time>2022-02-20T09:57:04Z</time>
      </trkpt>
      <trkpt lat="46.429968187585473" lon="8.426318457350135">
        <ele>2140.3400000000001</ele>
        <time>2022-02-20T09:57:21Z</time>
      </trkpt>
      <trkpt lat="46.430061645805836" lon="8.426541248336434">
        <ele>2140.8000000000002</ele>
        <time>2022-02-20T09:57:37Z</time>
      </trkpt>
      <trkpt lat="46.430144542828202" lon="8.426788598299027">
        <ele>2141.3200000000002</ele>
        <time>2022-02-20T09:57:54Z</time>
      </trkpt>
      <trkpt lat="46.430261470377445" lon="8.427091520279646">
        <ele>2141.6700000000001</ele>
        <time>2022-02-20T09:58:14Z</time>
      </trkpt>
      <trkpt lat="46.430373787879944" lon="8.427284639328718">
        <ele>2142.1399999999999</ele>
        <time>2022-02-20T09:58:30Z</time>
      </trkpt>
      <trkpt lat="46.430513681843877" lon="8.427457977086306">
        <ele>2142.8800000000001</ele>
        <time>2022-02-20T09:58:47Z</time>
      </trkpt>
      <trkpt lat="46.430640500038862" lon="8.427599882707">
        <ele>2144.4299999999998</ele>
        <time>2022-02-20T09:59:03Z</time>
      </trkpt>
      <trkpt lat="46.430773101747036" lon="8.427701136097312">
        <ele>2146.0700000000002</ele>
        <time>2022-02-20T09:59:19Z</time>
      </trkpt>
      <trkpt lat="46.430921377614141" lon="8.427796186879277">
        <ele>2146.9499999999998</ele>
        <time>2022-02-20T09:59:36Z</time>
      </trkpt>
      <trkpt lat="46.431013075634837" lon="8.427831809967756">
        <ele>2147.9299999999998</ele>
        <time>2022-02-20T09:59:50Z</time>
      </trkpt>
      <trkpt lat="46.431022882461548" lon="8.427850669249892">
        <ele>2148.2600000000002</ele>
        <time>2022-02-20T10:00:05Z</time>
      </trkpt>
      <trkpt lat="46.431062193587422" lon="8.427864583209157">
        <ele>2148.3699999999999</ele>
        <time>2022-02-20T10:00:29Z</time>
      </trkpt>
      <trkpt lat="46.431201668456197" lon="8.427978828549385">
        <ele>2149.8099999999999</ele>
        <time>2022-02-20T10:00:45Z</time>
      </trkpt>
      <trkpt lat="46.431315746158361" lon="8.428210001438856">
        <ele>2151</ele>
        <time>2022-02-20T10:01:03Z</time>
      </trkpt>
      <trkpt lat="46.431423705071211" lon="8.428435558453202">
        <ele>2152.79</ele>
        <time>2022-02-20T10:01:21Z</time>
      </trkpt>
      <trkpt lat="46.431530574336648" lon="8.428617361932993">
        <ele>2154.7199999999998</ele>
        <time>2022-02-20T10:01:39Z</time>
      </trkpt>
      <trkpt lat="46.431602239608765" lon="8.428777121007443">
        <ele>2156.23</ele>
        <time>2022-02-20T10:01:55Z</time>
      </trkpt>
      <trkpt lat="46.431665020063519" lon="8.428977364674211">
        <ele>2156.5500000000002</ele>
        <time>2022-02-20T10:02:12Z</time>
      </trkpt>
      <trkpt lat="46.431722268462181" lon="8.429194707423449">
        <ele>2157.0599999999999</ele>
        <time>2022-02-20T10:02:28Z</time>
      </trkpt>
      <trkpt lat="46.431786138564348" lon="8.429420348256826">
        <ele>2157.5</ele>
        <time>2022-02-20T10:02:45Z</time>
      </trkpt>
      <trkpt lat="46.431906335055828" lon="8.429640959948301">
        <ele>2158.0100000000002</ele>
        <time>2022-02-20T10:03:03Z</time>
      </trkpt>
      <trkpt lat="46.432014377787709" lon="8.42980264686048">
        <ele>2158.79</ele>
        <time>2022-02-20T10:03:18Z</time>
      </trkpt>
      <trkpt lat="46.432106327265501" lon="8.429966261610389">
        <ele>2158.6700000000001</ele>
        <time>2022-02-20T10:03:32Z</time>
      </trkpt>
      <trkpt lat="46.432235911488533" lon="8.430148148909211">
        <ele>2158.9699999999998</ele>
        <time>2022-02-20T10:03:49Z</time>
      </trkpt>
      <trkpt lat="46.432347558438778" lon="8.430366748943925">
        <ele>2159.9499999999998</ele>
        <time>2022-02-20T10:04:08Z</time>
      </trkpt>
      <trkpt lat="46.432412434369326" lon="8.430584343150258">
        <ele>2160.6300000000001</ele>
        <time>2022-02-20T10:04:25Z</time>
      </trkpt>
      <trkpt lat="46.432404890656471" lon="8.430738067254424">
        <ele>2162.3699999999999</ele>
        <time>2022-02-20T10:04:41Z</time>
      </trkpt>
      <trkpt lat="46.432385863736272" lon="8.430837392807007">
        <ele>2164.27</ele>
        <time>2022-02-20T10:04:55Z</time>
      </trkpt>
      <trkpt lat="46.432363148778677" lon="8.430910483002663">
        <ele>2165.75</ele>
        <time>2022-02-20T10:05:07Z</time>
      </trkpt>
      <trkpt lat="46.432368429377675" lon="8.431018441915512">
        <ele>2166.8299999999999</ele>
        <time>2022-02-20T10:05:21Z</time>
      </trkpt>
      <trkpt lat="46.432326855137944" lon="8.431135704740882">
        <ele>2167.46</ele>
        <time>2022-02-20T10:05:35Z</time>
      </trkpt>
      <trkpt lat="46.432271366938949" lon="8.431236036121845">
        <ele>2168.8299999999999</ele>
        <time>2022-02-20T10:05:51Z</time>
      </trkpt>
      <trkpt lat="46.432211184874177" lon="8.431295715272427">
        <ele>2169.9499999999998</ele>
        <time>2022-02-20T10:06:04Z</time>
      </trkpt>
      <trkpt lat="46.432200707495213" lon="8.431294960901141">
        <ele>2169.7800000000002</ele>
        <time>2022-02-20T10:06:16Z</time>
      </trkpt>
      <trkpt lat="46.432195091620088" lon="8.431284734979272">
        <ele>2169.4400000000001</ele>
        <time>2022-02-20T10:06:35Z</time>
      </trkpt>
      <trkpt lat="46.432204395532608" lon="8.431278364732862">
        <ele>2170.1399999999999</ele>
        <time>2022-02-20T10:07:13Z</time>
      </trkpt>
      <trkpt lat="46.432203473523259" lon="8.431274257600308">
        <ele>2170.1900000000001</ele>
        <time>2022-02-20T10:08:05Z</time>
      </trkpt>
      <trkpt lat="46.432199031114578" lon="8.431267803534865">
        <ele>2170.7600000000002</ele>
        <time>2022-02-20T10:08:42Z</time>
      </trkpt>
      <trkpt lat="46.432183273136616" lon="8.431293535977602">
        <ele>2170.71</ele>
        <time>2022-02-20T10:09:41Z</time>
      </trkpt>
      <trkpt lat="46.432183440774679" lon="8.431282388046384">
        <ele>2170.1900000000001</ele>
        <time>2022-02-20T10:10:33Z</time>
      </trkpt>
      <trkpt lat="46.432192660868168" lon="8.431276520714164">
        <ele>2169.71</ele>
        <time>2022-02-20T10:11:29Z</time>
      </trkpt>
      <trkpt lat="46.432193834334612" lon="8.431278448551893">
        <ele>2170.0100000000002</ele>
        <time>2022-02-20T10:11:49Z</time>
      </trkpt>
      <trkpt lat="46.432162569835782" lon="8.431286662817001">
        <ele>2170.9299999999998</ele>
        <time>2022-02-20T10:12:04Z</time>
      </trkpt>
      <trkpt lat="46.432134825736284" lon="8.431298481300473">
        <ele>2172.6900000000001</ele>
        <time>2022-02-20T10:12:15Z</time>
      </trkpt>
      <trkpt lat="46.432124599814415" lon="8.431222625076771">
        <ele>2172</ele>
        <time>2022-02-20T10:12:26Z</time>
      </trkpt>
      <trkpt lat="46.432155948132277" lon="8.431213656440377">
        <ele>2171.04</ele>
        <time>2022-02-20T10:12:36Z</time>
      </trkpt>
      <trkpt lat="46.432142285630107" lon="8.431219439953566">
        <ele>2170.6199999999999</ele>
        <time>2022-02-20T10:12:45Z</time>
      </trkpt>
      <trkpt lat="46.432121330872178" lon="8.431231342256069">
        <ele>2171.8600000000001</ele>
        <time>2022-02-20T10:12:57Z</time>
      </trkpt>
      <trkpt lat="46.432159636169672" lon="8.431210722774267">
        <ele>2170.6599999999999</ele>
        <time>2022-02-20T10:13:07Z</time>
      </trkpt>
      <trkpt lat="46.432159719988704" lon="8.431199407204986">
        <ele>2170.8200000000002</ele>
        <time>2022-02-20T10:13:16Z</time>
      </trkpt>
      <trkpt lat="46.432261308655143" lon="8.431137381121516">
        <ele>2168.6500000000001</ele>
        <time>2022-02-20T10:13:30Z</time>
      </trkpt>
      <trkpt lat="46.432359712198377" lon="8.431050628423691">
        <ele>2167.04</ele>
        <time>2022-02-20T10:13:44Z</time>
      </trkpt>
      <trkpt lat="46.432408075779676" lon="8.430984579026699">
        <ele>2167.5100000000002</ele>
        <time>2022-02-20T10:13:56Z</time>
      </trkpt>
      <trkpt lat="46.432407321408391" lon="8.430993296205998">
        <ele>2166.7399999999998</ele>
        <time>2022-02-20T10:14:07Z</time>
      </trkpt>
      <trkpt lat="46.43241947516799" lon="8.430998660624027">
        <ele>2165.8800000000001</ele>
        <time>2022-02-20T10:14:17Z</time>
      </trkpt>
      <trkpt lat="46.432423330843449" lon="8.431008299812675">
        <ele>2165.3800000000001</ele>
        <time>2022-02-20T10:15:04Z</time>
      </trkpt>
      <trkpt lat="46.432420061901212" lon="8.431009473279119">
        <ele>2165.6799999999998</ele>
        <time>2022-02-20T10:15:50Z</time>
      </trkpt>
      <trkpt lat="46.432428695261478" lon="8.431006791070104">
        <ele>2165.3200000000002</ele>
        <time>2022-02-20T10:16:46Z</time>
      </trkpt>
      <trkpt lat="46.432433053851128" lon="8.431004527956247">
        <ele>2165.1999999999998</ele>
        <time>2022-02-20T10:17:39Z</time>
      </trkpt>
      <trkpt lat="46.432432048022747" lon="8.431009138002992">
        <ele>2164.6199999999999</ele>
        <time>2022-02-20T10:18:30Z</time>
      </trkpt>
      <trkpt lat="46.432426013052464" lon="8.431012658402324">
        <ele>2164.5700000000002</ele>
        <time>2022-02-20T10:19:21Z</time>
      </trkpt>
      <trkpt lat="46.432430371642113" lon="8.431021543219686">
        <ele>2164.1500000000001</ele>
        <time>2022-02-20T10:20:12Z</time>
      </trkpt>
      <trkpt lat="46.432435987517238" lon="8.431011401116848">
        <ele>2163.9699999999998</ele>
        <time>2022-02-20T10:21:06Z</time>
      </trkpt>
      <trkpt lat="46.432424336671829" lon="8.431006288155913">
        <ele>2164.8600000000001</ele>
        <time>2022-02-20T10:21:58Z</time>
      </trkpt>
      <trkpt lat="46.432424001395702" lon="8.43101249076426">
        <ele>2164.0900000000001</ele>
        <time>2022-02-20T10:22:58Z</time>
      </trkpt>
      <trkpt lat="46.432427102699876" lon="8.431016514077783">
        <ele>2164.3499999999999</ele>
        <time>2022-02-20T10:23:57Z</time>
      </trkpt>
      <trkpt lat="46.432425761595368" lon="8.431011568754911">
        <ele>2163.8499999999999</ele>
        <time>2022-02-20T10:24:53Z</time>
      </trkpt>
      <trkpt lat="46.432434311136603" lon="8.431002851575613">
        <ele>2164.3000000000002</ele>
        <time>2022-02-20T10:25:51Z</time>
      </trkpt>
      <trkpt lat="46.432428359985352" lon="8.431014083325863">
        <ele>2163.9699999999998</ele>
        <time>2022-02-20T10:26:55Z</time>
      </trkpt>
      <trkpt lat="46.432431461289525" lon="8.431003857403994">
        <ele>2164.1399999999999</ele>
        <time>2022-02-20T10:27:54Z</time>
      </trkpt>
      <trkpt lat="46.432421738281846" lon="8.431000001728535">
        <ele>2164.27</ele>
        <time>2022-02-20T10:28:54Z</time>
      </trkpt>
      <trkpt lat="46.432419810444117" lon="8.431002181023359">
        <ele>2163.4499999999998</ele>
        <time>2022-02-20T10:29:52Z</time>
      </trkpt>
      <trkpt lat="46.432425761595368" lon="8.430998995900154">
        <ele>2163.7800000000002</ele>
        <time>2022-02-20T10:30:39Z</time>
      </trkpt>
      <trkpt lat="46.432429533451796" lon="8.430991871282458">
        <ele>2163.5100000000002</ele>
        <time>2022-02-20T10:31:32Z</time>
      </trkpt>
      <trkpt lat="46.432426935061812" lon="8.430997487157583">
        <ele>2163.6100000000001</ele>
        <time>2022-02-20T10:32:14Z</time>
      </trkpt>
      <trkpt lat="46.432414026930928" lon="8.431001929566264">
        <ele>2163.9499999999998</ele>
        <time>2022-02-20T10:32:47Z</time>
      </trkpt>
      <trkpt lat="46.432416709139943" lon="8.431000839918852">
        <ele>2158.8000000000002</ele>
        <time>2022-02-20T10:33:15Z</time>
      </trkpt>
      <trkpt lat="46.432416373863816" lon="8.431001091375947">
        <ele>2159.8899999999999</ele>
        <time>2022-02-20T10:33:16Z</time>
      </trkpt>
      <trkpt lat="46.432416122406721" lon="8.431001594290137">
        <ele>2163.0599999999999</ele>
        <time>2022-02-20T10:33:18Z</time>
      </trkpt>
      <trkpt lat="46.432416625320911" lon="8.431001761928201">
        <ele>2168.3299999999999</ele>
        <time>2022-02-20T10:33:20Z</time>
      </trkpt>
      <trkpt lat="46.432416960597038" lon="8.431003019213677">
        <ele>2167.1500000000001</ele>
        <time>2022-02-20T10:33:21Z</time>
      </trkpt>
      <trkpt lat="46.43241754733026" lon="8.431004611775279">
        <ele>2165.2600000000002</ele>
        <time>2022-02-20T10:33:24Z</time>
      </trkpt>
      <trkpt lat="46.432415535673499" lon="8.430997403338552">
        <ele>2162.2199999999998</ele>
        <time>2022-02-20T10:33:38Z</time>
      </trkpt>
      <trkpt lat="46.432415787130594" lon="8.430997151881456">
        <ele>2165.6900000000001</ele>
        <time>2022-02-20T10:33:40Z</time>
      </trkpt>
      <trkpt lat="46.432419056072831" lon="8.430999331176281">
        <ele>2164.71</ele>
        <time>2022-02-20T10:34:03Z</time>
      </trkpt>
      <trkpt lat="46.432422660291195" lon="8.431008383631706">
        <ele>2164.1199999999999</ele>
        <time>2022-02-20T10:34:13Z</time>
      </trkpt>
      <trkpt lat="46.432426013052464" lon="8.431004192680121">
        <ele>2164.6399999999999</ele>
        <time>2022-02-20T10:34:59Z</time>
      </trkpt>
      <trkpt lat="46.432433975860476" lon="8.431008383631706">
        <ele>2165.0599999999999</ele>
        <time>2022-02-20T10:35:55Z</time>
      </trkpt>
      <trkpt lat="46.432431545108557" lon="8.431011736392975">
        <ele>2165</ele>
        <time>2022-02-20T10:36:55Z</time>
      </trkpt>
      <trkpt lat="46.432427857071161" lon="8.431009808555245">
        <ele>2165.4400000000001</ele>
        <time>2022-02-20T10:37:52Z</time>
      </trkpt>
      <trkpt lat="46.432427437976003" lon="8.431011233478785">
        <ele>2165.1999999999998</ele>
        <time>2022-02-20T10:38:42Z</time>
      </trkpt>
      <trkpt lat="46.432430958375335" lon="8.431009724736214">
        <ele>2164.4000000000001</ele>
        <time>2022-02-20T10:39:32Z</time>
      </trkpt>
      <trkpt lat="46.432432131841779" lon="8.431007713079453">
        <ele>2164.9099999999999</ele>
        <time>2022-02-20T10:40:12Z</time>
      </trkpt>
      <trkpt lat="46.432424671947956" lon="8.431001426652074">
        <ele>2164.5999999999999</ele>
        <time>2022-02-20T10:40:55Z</time>
      </trkpt>
      <trkpt lat="46.432421403005719" lon="8.431007796898484">
        <ele>2165.2600000000002</ele>
        <time>2022-02-20T10:41:46Z</time>
      </trkpt>
      <trkpt lat="46.4324224088341" lon="8.431011317297816">
        <ele>2165.5799999999999</ele>
        <time>2022-02-20T10:42:34Z</time>
      </trkpt>
      <trkpt lat="46.432422241196036" lon="8.430998660624027">
        <ele>2164.3400000000001</ele>
        <time>2022-02-20T10:43:21Z</time>
      </trkpt>
      <trkpt lat="46.432418217882514" lon="8.430999163538218">
        <ele>2165.4000000000001</ele>
        <time>2022-02-20T10:44:14Z</time>
      </trkpt>
      <trkpt lat="46.432407656684518" lon="8.430994469672442">
        <ele>2165.25</ele>
        <time>2022-02-20T10:45:07Z</time>
      </trkpt>
      <trkpt lat="46.43240237608552" lon="8.431001761928201">
        <ele>2164.7399999999998</ele>
        <time>2022-02-20T10:45:58Z</time>
      </trkpt>
      <trkpt lat="46.432407991960645" lon="8.431000504642725">
        <ele>2164.5300000000002</ele>
        <time>2022-02-20T10:46:38Z</time>
      </trkpt>
      <trkpt lat="46.432417212054133" lon="8.431017268449068">
        <ele>2165.1199999999999</ele>
        <time>2022-02-20T10:47:21Z</time>
      </trkpt>
      <trkpt lat="46.432422827929258" lon="8.431014250963926">
        <ele>2165.7600000000002</ele>
        <time>2022-02-20T10:48:09Z</time>
      </trkpt>
      <trkpt lat="46.432411512359977" lon="8.431022968143225">
        <ele>2165.6599999999999</ele>
        <time>2022-02-20T10:48:54Z</time>
      </trkpt>
      <trkpt lat="46.432412518188357" lon="8.431019112467766">
        <ele>2165.6900000000001</ele>
        <time>2022-02-20T10:49:43Z</time>
      </trkpt>
      <trkpt lat="46.432414529845119" lon="8.43102372251451">
        <ele>2166.3600000000001</ele>
        <time>2022-02-20T10:50:19Z</time>
      </trkpt>
      <trkpt lat="46.432415032759309" lon="8.431032942607999">
        <ele>2167.4400000000001</ele>
        <time>2022-02-20T10:50:35Z</time>
      </trkpt>
      <trkpt lat="46.432431042194366" lon="8.431037217378616">
        <ele>2166.3899999999999</ele>
        <time>2022-02-20T10:50:55Z</time>
      </trkpt>
      <trkpt lat="46.43243657425046" lon="8.431018022820354">
        <ele>2166.6100000000001</ele>
        <time>2022-02-20T10:51:17Z</time>
      </trkpt>
      <trkpt lat="46.432422744110227" lon="8.43100662343204">
        <ele>2166.3800000000001</ele>
        <time>2022-02-20T10:52:13Z</time>
      </trkpt>
      <trkpt lat="46.432425593957305" lon="8.431006539613009">
        <ele>2166.6199999999999</ele>
        <time>2022-02-20T10:53:17Z</time>
      </trkpt>
      <trkpt lat="46.432421067729592" lon="8.43101198785007">
        <ele>2167.1900000000001</ele>
        <time>2022-02-20T10:54:10Z</time>
      </trkpt>
      <trkpt lat="46.432426683604717" lon="8.431015256792307">
        <ele>2167.4200000000001</ele>
        <time>2022-02-20T10:55:10Z</time>
      </trkpt>
      <trkpt lat="46.432431545108557" lon="8.431021207943559">
        <ele>2167.2399999999998</ele>
        <time>2022-02-20T10:56:04Z</time>
      </trkpt>
      <trkpt lat="46.43243171274662" lon="8.431022800505161">
        <ele>2167.27</ele>
        <time>2022-02-20T10:56:50Z</time>
      </trkpt>
      <trkpt lat="46.432419307529926" lon="8.43101785518229">
        <ele>2167.9499999999998</ele>
        <time>2022-02-20T10:57:45Z</time>
      </trkpt>
      <trkpt lat="46.432427018880844" lon="8.431012826040387">
        <ele>2167.2199999999998</ele>
        <time>2022-02-20T10:58:38Z</time>
      </trkpt>
      <trkpt lat="46.432423498481512" lon="8.431019615381956">
        <ele>2166.6700000000001</ele>
        <time>2022-02-20T10:59:37Z</time>
      </trkpt>
      <trkpt lat="46.43242291174829" lon="8.43102129176259">
        <ele>2165.6900000000001</ele>
        <time>2022-02-20T11:00:26Z</time>
      </trkpt>
      <trkpt lat="46.432421151548624" lon="8.431025063619018">
        <ele>2164.71</ele>
        <time>2022-02-20T11:01:15Z</time>
      </trkpt>
      <trkpt lat="46.432420648634434" lon="8.431030930951238">
        <ele>2164.25</ele>
        <time>2022-02-20T11:02:08Z</time>
      </trkpt>
      <trkpt lat="46.432418636977673" lon="8.431030260398984">
        <ele>2164.04</ele>
        <time>2022-02-20T11:03:05Z</time>
      </trkpt>
      <trkpt lat="46.432422660291195" lon="8.431024393066764">
        <ele>2164.6900000000001</ele>
        <time>2022-02-20T11:03:53Z</time>
      </trkpt>
      <trkpt lat="46.432424252852798" lon="8.431011652573943">
        <ele>2165.6999999999998</ele>
        <time>2022-02-20T11:04:42Z</time>
      </trkpt>
      <trkpt lat="46.432415116578341" lon="8.431003438308835">
        <ele>2166.0100000000002</ele>
        <time>2022-02-20T11:05:24Z</time>
      </trkpt>
      <trkpt lat="46.432421403005719" lon="8.431010143831372">
        <ele>2165.1900000000001</ele>
        <time>2022-02-20T11:06:06Z</time>
      </trkpt>
      <trkpt lat="46.432422325015068" lon="8.43101785518229">
        <ele>2164.8000000000002</ele>
        <time>2022-02-20T11:06:46Z</time>
      </trkpt>
      <trkpt lat="46.432435065507889" lon="8.431024895980954">
        <ele>2164.27</ele>
        <time>2022-02-20T11:07:39Z</time>
      </trkpt>
      <trkpt lat="46.432430958375335" lon="8.431015592068434">
        <ele>2164.1300000000001</ele>
        <time>2022-02-20T11:08:36Z</time>
      </trkpt>
      <trkpt lat="46.432430455461144" lon="8.431023051962256">
        <ele>2164.0999999999999</ele>
        <time>2022-02-20T11:09:29Z</time>
      </trkpt>
      <trkpt lat="46.432428024709225" lon="8.431017100811005">
        <ele>2163.9499999999998</ele>
        <time>2022-02-20T11:10:29Z</time>
      </trkpt>
      <trkpt lat="46.432421151548624" lon="8.431024560704827">
        <ele>2165.3299999999999</ele>
        <time>2022-02-20T11:11:16Z</time>
      </trkpt>
      <trkpt lat="46.432413775473833" lon="8.431026907637715">
        <ele>2165.5500000000002</ele>
        <time>2022-02-20T11:12:13Z</time>
      </trkpt>
      <trkpt lat="46.43240480683744" lon="8.431033529341221">
        <ele>2165.71</ele>
        <time>2022-02-20T11:13:07Z</time>
      </trkpt>
      <trkpt lat="46.432408913969994" lon="8.431026404723525">
        <ele>2165.1900000000001</ele>
        <time>2022-02-20T11:14:07Z</time>
      </trkpt>
      <trkpt lat="46.432415451854467" lon="8.431027662009001">
        <ele>2164.0500000000002</ele>
        <time>2022-02-20T11:15:15Z</time>
      </trkpt>
      <trkpt lat="46.432419894263148" lon="8.431027410551906">
        <ele>2163.6399999999999</ele>
        <time>2022-02-20T11:16:17Z</time>
      </trkpt>
      <trkpt lat="46.432422073557973" lon="8.431026823818684">
        <ele>2164.1900000000001</ele>
        <time>2022-02-20T11:17:21Z</time>
      </trkpt>
      <trkpt lat="46.43241704441607" lon="8.431032691150904">
        <ele>2164.7199999999998</ele>
        <time>2022-02-20T11:18:07Z</time>
      </trkpt>
      <trkpt lat="46.432413691654801" lon="8.431038223206997">
        <ele>2165.3899999999999</ele>
        <time>2022-02-20T11:19:02Z</time>
      </trkpt>
      <trkpt lat="46.432413691654801" lon="8.431029673665762">
        <ele>2164.77</ele>
        <time>2022-02-20T11:19:56Z</time>
      </trkpt>
      <trkpt lat="46.432414362207055" lon="8.43103202059865">
        <ele>2165.3400000000001</ele>
        <time>2022-02-20T11:20:57Z</time>
      </trkpt>
      <trkpt lat="46.432411428540945" lon="8.43103445135057">
        <ele>2165.1199999999999</ele>
        <time>2022-02-20T11:21:56Z</time>
      </trkpt>
      <trkpt lat="46.432414194568992" lon="8.43103495426476">
        <ele>2165.3000000000002</ele>
        <time>2022-02-20T11:22:47Z</time>
      </trkpt>
      <trkpt lat="46.432413524016738" lon="8.431034032255411">
        <ele>2165.3400000000001</ele>
        <time>2022-02-20T11:23:45Z</time>
      </trkpt>
      <trkpt lat="46.432409333065152" lon="8.431041156873107">
        <ele>2165.5599999999999</ele>
        <time>2022-02-20T11:24:27Z</time>
      </trkpt>
      <trkpt lat="46.432408494874835" lon="8.431037804111838">
        <ele>2165.77</ele>
        <time>2022-02-20T11:25:06Z</time>
      </trkpt>
      <trkpt lat="46.432409416884184" lon="8.43104274943471">
        <ele>2165.5599999999999</ele>
        <time>2022-02-20T11:25:51Z</time>
      </trkpt>
      <trkpt lat="46.432405477389693" lon="8.431039564311504">
        <ele>2165.5799999999999</ele>
        <time>2022-02-20T11:26:40Z</time>
      </trkpt>
      <trkpt lat="46.432405728846788" lon="8.431033948436379">
        <ele>2166.5300000000002</ele>
        <time>2022-02-20T11:27:26Z</time>
      </trkpt>
      <trkpt lat="46.432407908141613" lon="8.43102565035224">
        <ele>2166.5700000000002</ele>
        <time>2022-02-20T11:28:07Z</time>
      </trkpt>
      <trkpt lat="46.432399526238441" lon="8.431021878495812">
        <ele>2166.1700000000001</ele>
        <time>2022-02-20T11:29:02Z</time>
      </trkpt>
      <trkpt lat="46.43239407800138" lon="8.431024560704827">
        <ele>2166.3299999999999</ele>
        <time>2022-02-20T11:30:06Z</time>
      </trkpt>
      <trkpt lat="46.432398688048124" lon="8.431027326732874">
        <ele>2166.4699999999998</ele>
        <time>2022-02-20T11:31:01Z</time>
      </trkpt>
      <trkpt lat="46.432400112971663" lon="8.431028667837381">
        <ele>2165.9499999999998</ele>
        <time>2022-02-20T11:32:01Z</time>
      </trkpt>
      <trkpt lat="46.43239701166749" lon="8.431019196286798">
        <ele>2165.9200000000001</ele>
        <time>2022-02-20T11:32:58Z</time>
      </trkpt>
      <trkpt lat="46.432393323630095" lon="8.43101441860199">
        <ele>2166.0500000000002</ele>
        <time>2022-02-20T11:33:38Z</time>
      </trkpt>
      <trkpt lat="46.432392569258809" lon="8.431018944829702">
        <ele>2166.79</ele>
        <time>2022-02-20T11:34:22Z</time>
      </trkpt>
      <trkpt lat="46.432398855686188" lon="8.431025231257081">
        <ele>2166.96</ele>
        <time>2022-02-20T11:35:10Z</time>
      </trkpt>
      <trkpt lat="46.432397179305553" lon="8.431026823818684">
        <ele>2167.3899999999999</ele>
        <time>2022-02-20T11:36:02Z</time>
      </trkpt>
      <trkpt lat="46.432388629764318" lon="8.431021375581622">
        <ele>2167.7600000000002</ele>
        <time>2022-02-20T11:36:51Z</time>
      </trkpt>
      <trkpt lat="46.432379661127925" lon="8.431016681715846">
        <ele>2168.1500000000001</ele>
        <time>2022-02-20T11:37:50Z</time>
      </trkpt>
      <trkpt lat="46.432372620329261" lon="8.4310139156878">
        <ele>2168.6199999999999</ele>
        <time>2022-02-20T11:38:40Z</time>
      </trkpt>
      <trkpt lat="46.432366752997041" lon="8.431022381410003">
        <ele>2169.6199999999999</ele>
        <time>2022-02-20T11:39:28Z</time>
      </trkpt>
      <trkpt lat="46.43237161450088" lon="8.431019699200988">
        <ele>2169.3000000000002</ele>
        <time>2022-02-20T11:40:14Z</time>
      </trkpt>
      <trkpt lat="46.432382594794035" lon="8.43102958984673">
        <ele>2169.6500000000001</ele>
        <time>2022-02-20T11:41:07Z</time>
      </trkpt>
      <trkpt lat="46.432389384135604" lon="8.431027326732874">
        <ele>2169.3600000000001</ele>
        <time>2022-02-20T11:41:47Z</time>
      </trkpt>
      <trkpt lat="46.432386199012399" lon="8.431029757484794">
        <ele>2169.4299999999998</ele>
        <time>2022-02-20T11:42:40Z</time>
      </trkpt>
      <trkpt lat="46.432386366650462" lon="8.431038893759251">
        <ele>2169.1999999999998</ele>
        <time>2022-02-20T11:43:26Z</time>
      </trkpt>
      <trkpt lat="46.432386031374335" lon="8.431049874052405">
        <ele>2169.6199999999999</ele>
        <time>2022-02-20T11:44:13Z</time>
      </trkpt>
      <trkpt lat="46.432392569258809" lon="8.431043503805995">
        <ele>2169.9000000000001</ele>
        <time>2022-02-20T11:44:59Z</time>
      </trkpt>
      <trkpt lat="46.43238921649754" lon="8.431044425815344">
        <ele>2169.9299999999998</ele>
        <time>2022-02-20T11:45:46Z</time>
      </trkpt>
      <trkpt lat="46.43238334916532" lon="8.431041995063424">
        <ele>2169.6599999999999</ele>
        <time>2022-02-20T11:46:36Z</time>
      </trkpt>
      <trkpt lat="46.432383768260479" lon="8.431041156873107">
        <ele>2169.46</ele>
        <time>2022-02-20T11:47:20Z</time>
      </trkpt>
      <trkpt lat="46.43238477408886" lon="8.431042246520519">
        <ele>2169.1500000000001</ele>
        <time>2022-02-20T11:47:53Z</time>
      </trkpt>
      <trkpt lat="46.432385025545955" lon="8.43104274943471">
        <ele>2169.8699999999999</ele>
        <time>2022-02-20T11:48:30Z</time>
      </trkpt>
      <trkpt lat="46.432383432984352" lon="8.431038893759251">
        <ele>2169.8600000000001</ele>
        <time>2022-02-20T11:49:11Z</time>
      </trkpt>
      <trkpt lat="46.432379744946957" lon="8.431044174358249">
        <ele>2169.6700000000001</ele>
        <time>2022-02-20T11:49:48Z</time>
      </trkpt>
      <trkpt lat="46.432374464347959" lon="8.431046437472105">
        <ele>2169.6399999999999</ele>
        <time>2022-02-20T11:50:30Z</time>
      </trkpt>
      <trkpt lat="46.432370692491531" lon="8.431045599281788">
        <ele>2169.8800000000001</ele>
        <time>2022-02-20T11:51:08Z</time>
      </trkpt>
      <trkpt lat="46.432368932291865" lon="8.431047024205327">
        <ele>2169.98</ele>
        <time>2022-02-20T11:51:54Z</time>
      </trkpt>
      <trkpt lat="46.43236524425447" lon="8.4310432523489">
        <ele>2170.21</ele>
        <time>2022-02-20T11:52:31Z</time>
      </trkpt>
      <trkpt lat="46.432363819330931" lon="8.431050376966596">
        <ele>2170.1300000000001</ele>
        <time>2022-02-20T11:53:07Z</time>
      </trkpt>
      <trkpt lat="46.432368848472834" lon="8.431050460785627">
        <ele>2169.9899999999998</ele>
        <time>2022-02-20T11:53:44Z</time>
      </trkpt>
      <trkpt lat="46.432377398014069" lon="8.4310432523489">
        <ele>2170.1100000000001</ele>
        <time>2022-02-20T11:54:24Z</time>
      </trkpt>
      <trkpt lat="46.432379996404052" lon="8.431043503805995">
        <ele>2169.8400000000001</ele>
        <time>2022-02-20T11:54:59Z</time>
      </trkpt>
      <trkpt lat="46.432386534288526" lon="8.43103788793087">
        <ele>2169.71</ele>
        <time>2022-02-20T11:55:42Z</time>
      </trkpt>
      <trkpt lat="46.432385444641113" lon="8.431038474664092">
        <ele>2169.8699999999999</ele>
        <time>2022-02-20T11:56:19Z</time>
      </trkpt>
      <trkpt lat="46.432386115193367" lon="8.431038055568934">
        <ele>2169.98</ele>
        <time>2022-02-20T11:57:03Z</time>
      </trkpt>
      <trkpt lat="46.432383768260479" lon="8.431042414158583">
        <ele>2169.9099999999999</ele>
        <time>2022-02-20T11:57:44Z</time>
      </trkpt>
      <trkpt lat="46.432384690269828" lon="8.431044593453407">
        <ele>2169.9000000000001</ele>
        <time>2022-02-20T11:58:21Z</time>
      </trkpt>
      <trkpt lat="46.432380080223083" lon="8.431051718071103">
        <ele>2169.3299999999999</ele>
        <time>2022-02-20T11:58:58Z</time>
      </trkpt>
      <trkpt lat="46.432380918413401" lon="8.431047862395644">
        <ele>2169.5</ele>
        <time>2022-02-20T11:59:33Z</time>
      </trkpt>
      <trkpt lat="46.432378822937608" lon="8.431042162701488">
        <ele>2169.96</ele>
        <time>2022-02-20T12:00:16Z</time>
      </trkpt>
      <trkpt lat="46.432384187355638" lon="8.431039229035378">
        <ele>2170.2199999999998</ele>
        <time>2022-02-20T12:00:53Z</time>
      </trkpt>
      <trkpt lat="46.432393994182348" lon="8.431037636473775">
        <ele>2170.04</ele>
        <time>2022-02-20T12:01:32Z</time>
      </trkpt>
      <trkpt lat="46.432388629764318" lon="8.431036546826363">
        <ele>2169.3499999999999</ele>
        <time>2022-02-20T12:02:11Z</time>
      </trkpt>
      <trkpt lat="46.432388797402382" lon="8.431037468835712">
        <ele>2169.4899999999998</ele>
        <time>2022-02-20T12:02:55Z</time>
      </trkpt>
      <trkpt lat="46.43238921649754" lon="8.431043839082122">
        <ele>2169.3400000000001</ele>
        <time>2022-02-20T12:03:35Z</time>
      </trkpt>
      <trkpt lat="46.432393994182348" lon="8.431040067225695">
        <ele>2169.0300000000002</ele>
        <time>2022-02-20T12:04:12Z</time>
      </trkpt>
      <trkpt lat="46.432390557602048" lon="8.431031433865428">
        <ele>2169.6799999999998</ele>
        <time>2022-02-20T12:04:53Z</time>
      </trkpt>
      <trkpt lat="46.432383181527257" lon="8.431026991456747">
        <ele>2169.3899999999999</ele>
        <time>2022-02-20T12:05:29Z</time>
      </trkpt>
      <trkpt lat="46.43238477408886" lon="8.431032691150904">
        <ele>2169.5599999999999</ele>
        <time>2022-02-20T12:06:07Z</time>
      </trkpt>
      <trkpt lat="46.432382008060813" lon="8.431037133559585">
        <ele>2169.6900000000001</ele>
        <time>2022-02-20T12:06:47Z</time>
      </trkpt>
      <trkpt lat="46.43237991258502" lon="8.431035624817014">
        <ele>2170.1900000000001</ele>
        <time>2022-02-20T12:07:24Z</time>
      </trkpt>
      <trkpt lat="46.432384690269828" lon="8.431037468835712">
        <ele>2170.0500000000002</ele>
        <time>2022-02-20T12:08:02Z</time>
      </trkpt>
      <trkpt lat="46.432380499318242" lon="8.431038307026029">
        <ele>2170.5999999999999</ele>
        <time>2022-02-20T12:08:40Z</time>
      </trkpt>
      <trkpt lat="46.432383181527257" lon="8.431049203500152">
        <ele>2171.8299999999999</ele>
        <time>2022-02-20T12:09:25Z</time>
      </trkpt>
      <trkpt lat="46.432393407449126" lon="8.431036965921521">
        <ele>2171.3800000000001</ele>
        <time>2022-02-20T12:10:09Z</time>
      </trkpt>
      <trkpt lat="46.432411344721913" lon="8.431039564311504">
        <ele>2171.0700000000002</ele>
        <time>2022-02-20T12:10:49Z</time>
      </trkpt>
      <trkpt lat="46.43243070691824" lon="8.4310466889292">
        <ele>2170.3699999999999</ele>
        <time>2022-02-20T12:11:24Z</time>
      </trkpt>
      <trkpt lat="46.432435149326921" lon="8.431045515462756">
        <ele>2170.2399999999998</ele>
        <time>2022-02-20T12:12:07Z</time>
      </trkpt>
      <trkpt lat="46.432429617270827" lon="8.431045431643724">
        <ele>2170.3499999999999</ele>
        <time>2022-02-20T12:12:42Z</time>
      </trkpt>
      <trkpt lat="46.432418217882514" lon="8.431053981184959">
        <ele>2170.3400000000001</ele>
        <time>2022-02-20T12:13:21Z</time>
      </trkpt>
      <trkpt lat="46.432422157377005" lon="8.431049287319183">
        <ele>2170.2399999999998</ele>
        <time>2022-02-20T12:14:00Z</time>
      </trkpt>
      <trkpt lat="46.432425510138273" lon="8.431052975356579">
        <ele>2170.2399999999998</ele>
        <time>2022-02-20T12:14:35Z</time>
      </trkpt>
      <trkpt lat="46.432423330843449" lon="8.431051215156913">
        <ele>2170.8400000000001</ele>
        <time>2022-02-20T12:15:12Z</time>
      </trkpt>
      <trkpt lat="46.432422744110227" lon="8.431053478270769">
        <ele>2171.5599999999999</ele>
        <time>2022-02-20T12:15:55Z</time>
      </trkpt>
      <trkpt lat="46.432430287823081" lon="8.431060519069433">
        <ele>2171.3099999999999</ele>
        <time>2022-02-20T12:16:43Z</time>
      </trkpt>
      <trkpt lat="46.432423330843449" lon="8.431064877659082">
        <ele>2171.4099999999999</ele>
        <time>2022-02-20T12:17:27Z</time>
      </trkpt>
      <trkpt lat="46.432421738281846" lon="8.43106135725975">
        <ele>2171.3400000000001</ele>
        <time>2022-02-20T12:18:02Z</time>
      </trkpt>
      <trkpt lat="46.432430790737271" lon="8.431055070832372">
        <ele>2170.8699999999999</ele>
        <time>2022-02-20T12:18:43Z</time>
      </trkpt>
      <trkpt lat="46.432430036365986" lon="8.431054065003991">
        <ele>2170.9000000000001</ele>
        <time>2022-02-20T12:19:23Z</time>
      </trkpt>
      <trkpt lat="46.432427186518908" lon="8.431054735556245">
        <ele>2170.71</ele>
        <time>2022-02-20T12:20:04Z</time>
      </trkpt>
      <trkpt lat="46.432421486824751" lon="8.431054819375277">
        <ele>2170.1700000000001</ele>
        <time>2022-02-20T12:20:42Z</time>
      </trkpt>
      <trkpt lat="46.432423917576671" lon="8.431047527119517">
        <ele>2169.9899999999998</ele>
        <time>2022-02-20T12:21:23Z</time>
      </trkpt>
      <trkpt lat="46.432428359985352" lon="8.431051801890135">
        <ele>2169.6999999999998</ele>
        <time>2022-02-20T12:22:00Z</time>
      </trkpt>
      <trkpt lat="46.43242291174829" lon="8.431043922901154">
        <ele>2170.2399999999998</ele>
        <time>2022-02-20T12:22:44Z</time>
      </trkpt>
      <trkpt lat="46.43242827616632" lon="8.431048700585961">
        <ele>2170.4099999999999</ele>
        <time>2022-02-20T12:23:24Z</time>
      </trkpt>
      <trkpt lat="46.432430120185018" lon="8.431050125509501">
        <ele>2170.3400000000001</ele>
        <time>2022-02-20T12:24:05Z</time>
      </trkpt>
      <trkpt lat="46.432432383298874" lon="8.431056244298816">
        <ele>2170.46</ele>
        <time>2022-02-20T12:24:43Z</time>
      </trkpt>
      <trkpt lat="46.432437831535935" lon="8.431045264005661">
        <ele>2170.4400000000001</ele>
        <time>2022-02-20T12:25:19Z</time>
      </trkpt>
      <trkpt lat="46.43244051374495" lon="8.431045515462756">
        <ele>2170.7199999999998</ele>
        <time>2022-02-20T12:25:56Z</time>
      </trkpt>
      <trkpt lat="46.432424671947956" lon="8.431041827425361">
        <ele>2170.4200000000001</ele>
        <time>2022-02-20T12:26:31Z</time>
      </trkpt>
      <trkpt lat="46.432420564815402" lon="8.431051801890135">
        <ele>2170.21</ele>
        <time>2022-02-20T12:27:09Z</time>
      </trkpt>
      <trkpt lat="46.432423582300544" lon="8.43105205334723">
        <ele>2170.48</ele>
        <time>2022-02-20T12:27:50Z</time>
      </trkpt>
      <trkpt lat="46.432422157377005" lon="8.431046605110169">
        <ele>2170.29</ele>
        <time>2022-02-20T12:28:30Z</time>
      </trkpt>
      <trkpt lat="46.432419726625085" lon="8.431046102195978">
        <ele>2169.9899999999998</ele>
        <time>2022-02-20T12:29:21Z</time>
      </trkpt>
      <trkpt lat="46.432419810444117" lon="8.431046269834042">
        <ele>2169.73</ele>
        <time>2022-02-20T12:30:04Z</time>
      </trkpt>
      <trkpt lat="46.432423079386353" lon="8.431043084710836">
        <ele>2169.2600000000002</ele>
        <time>2022-02-20T12:30:54Z</time>
      </trkpt>
      <trkpt lat="46.432426767423749" lon="8.431045096367598">
        <ele>2169.46</ele>
        <time>2022-02-20T12:31:35Z</time>
      </trkpt>
      <trkpt lat="46.432429533451796" lon="8.431047108024359">
        <ele>2169.6999999999998</ele>
        <time>2022-02-20T12:32:09Z</time>
      </trkpt>
      <trkpt lat="46.43242048099637" lon="8.431050544604659">
        <ele>2169.2199999999998</ele>
        <time>2022-02-20T12:32:39Z</time>
      </trkpt>
      <trkpt lat="46.432408327236772" lon="8.431051969528198">
        <ele>2168.9299999999998</ele>
        <time>2022-02-20T12:33:15Z</time>
      </trkpt>
      <trkpt lat="46.432419894263148" lon="8.431057669222355">
        <ele>2168.79</ele>
        <time>2022-02-20T12:33:58Z</time>
      </trkpt>
      <trkpt lat="46.43241411074996" lon="8.431047359481454">
        <ele>2168.5</ele>
        <time>2022-02-20T12:34:48Z</time>
      </trkpt>
      <trkpt lat="46.432421319186687" lon="8.431033696979284">
        <ele>2168.1900000000001</ele>
        <time>2022-02-20T12:35:32Z</time>
      </trkpt>
      <trkpt lat="46.432418050244451" lon="8.431032858788967">
        <ele>2167.25</ele>
        <time>2022-02-20T12:36:13Z</time>
      </trkpt>
      <trkpt lat="46.432410338893533" lon="8.431033529341221">
        <ele>2167.02</ele>
        <time>2022-02-20T12:36:59Z</time>
      </trkpt>
      <trkpt lat="46.432406483218074" lon="8.431040737777948">
        <ele>2167.1399999999999</ele>
        <time>2022-02-20T12:37:50Z</time>
      </trkpt>
      <trkpt lat="46.432416876778007" lon="8.431042330339551">
        <ele>2167.5999999999999</ele>
        <time>2022-02-20T12:38:45Z</time>
      </trkpt>
      <trkpt lat="46.432420983910561" lon="8.431047610938549">
        <ele>2167.6599999999999</ele>
        <time>2022-02-20T12:39:33Z</time>
      </trkpt>
      <trkpt lat="46.432419391348958" lon="8.431042330339551">
        <ele>2168.1799999999998</ele>
        <time>2022-02-20T12:40:20Z</time>
      </trkpt>
      <trkpt lat="46.432410171255469" lon="8.431049874052405">
        <ele>2168.1300000000001</ele>
        <time>2022-02-20T12:41:10Z</time>
      </trkpt>
      <trkpt lat="46.432404387742281" lon="8.431041827425361">
        <ele>2168.71</ele>
        <time>2022-02-20T12:41:54Z</time>
      </trkpt>
      <trkpt lat="46.432410338893533" lon="8.431043336167932">
        <ele>2168.8000000000002</ele>
        <time>2022-02-20T12:42:47Z</time>
      </trkpt>
      <trkpt lat="46.432409500703216" lon="8.43104132451117">
        <ele>2168.9899999999998</ele>
        <time>2022-02-20T12:43:36Z</time>
      </trkpt>
      <trkpt lat="46.432410422712564" lon="8.431040486320853">
        <ele>2169.0100000000002</ele>
        <time>2022-02-20T12:43:58Z</time>
      </trkpt>
      <trkpt lat="46.432417966425419" lon="8.431033445522189">
        <ele>2168.6500000000001</ele>
        <time>2022-02-20T12:44:11Z</time>
      </trkpt>
      <trkpt lat="46.43242534250021" lon="8.431028416380286">
        <ele>2168.8299999999999</ele>
        <time>2022-02-20T12:44:21Z</time>
      </trkpt>
      <trkpt lat="46.432419894263148" lon="8.431035960093141">
        <ele>2168.6900000000001</ele>
        <time>2022-02-20T12:45:20Z</time>
      </trkpt>
      <trkpt lat="46.432415703311563" lon="8.4310432523489">
        <ele>2168.8200000000002</ele>
        <time>2022-02-20T12:46:17Z</time>
      </trkpt>
      <trkpt lat="46.432418888434768" lon="8.431041492149234">
        <ele>2168.0500000000002</ele>
        <time>2022-02-20T12:47:03Z</time>
      </trkpt>
      <trkpt lat="46.432422744110227" lon="8.431041911244392">
        <ele>2168.23</ele>
        <time>2022-02-20T12:47:48Z</time>
      </trkpt>
      <trkpt lat="46.432418050244451" lon="8.431034283712506">
        <ele>2167.8099999999999</ele>
        <time>2022-02-20T12:48:40Z</time>
      </trkpt>
      <trkpt lat="46.432413943111897" lon="8.431039145216346">
        <ele>2167.7600000000002</ele>
        <time>2022-02-20T12:49:35Z</time>
      </trkpt>
      <trkpt lat="46.432421319186687" lon="8.431040905416012">
        <ele>2167.8099999999999</ele>
        <time>2022-02-20T12:50:24Z</time>
      </trkpt>
      <trkpt lat="46.432420648634434" lon="8.431040402501822">
        <ele>2168.0500000000002</ele>
        <time>2022-02-20T12:51:15Z</time>
      </trkpt>
      <trkpt lat="46.432423582300544" lon="8.431042162701488">
        <ele>2168.4000000000001</ele>
        <time>2022-02-20T12:52:02Z</time>
      </trkpt>
      <trkpt lat="46.432424755766988" lon="8.431038558483124">
        <ele>2167.7600000000002</ele>
        <time>2022-02-20T12:52:43Z</time>
      </trkpt>
      <trkpt lat="46.432422325015068" lon="8.431039145216346">
        <ele>2167.3000000000002</ele>
        <time>2022-02-20T12:53:35Z</time>
      </trkpt>
      <trkpt lat="46.432422492653131" lon="8.431038055568934">
        <ele>2166.52</ele>
        <time>2022-02-20T12:54:19Z</time>
      </trkpt>
      <trkpt lat="46.432420145720243" lon="8.431039480492473">
        <ele>2165.8000000000002</ele>
        <time>2022-02-20T12:54:55Z</time>
      </trkpt>
      <trkpt lat="46.432410422712564" lon="8.431033110246062">
        <ele>2165.5799999999999</ele>
        <time>2022-02-20T12:55:37Z</time>
      </trkpt>
      <trkpt lat="46.432421905919909" lon="8.43101785518229">
        <ele>2165.79</ele>
        <time>2022-02-20T12:56:28Z</time>
      </trkpt>
      <trkpt lat="46.432422325015068" lon="8.431017268449068">
        <ele>2166.0100000000002</ele>
        <time>2022-02-20T12:57:14Z</time>
      </trkpt>
      <trkpt lat="46.432421151548624" lon="8.431022968143225">
        <ele>2165.5</ele>
        <time>2022-02-20T12:58:02Z</time>
      </trkpt>
      <trkpt lat="46.432414278388023" lon="8.431020369753242">
        <ele>2165.3299999999999</ele>
        <time>2022-02-20T12:58:49Z</time>
      </trkpt>
      <trkpt lat="46.432413775473833" lon="8.431020202115178">
        <ele>2161.1399999999999</ele>
        <time>2022-02-20T12:58:50Z</time>
      </trkpt>
      <trkpt lat="46.432413691654801" lon="8.431020034477115">
        <ele>2162.9200000000001</ele>
        <time>2022-02-20T12:58:51Z</time>
      </trkpt>
      <trkpt lat="46.432417212054133" lon="8.431020369753242">
        <ele>2169.0500000000002</ele>
        <time>2022-02-20T12:58:53Z</time>
      </trkpt>
      <trkpt lat="46.43241754733026" lon="8.431018609553576">
        <ele>2167.9299999999998</ele>
        <time>2022-02-20T12:58:54Z</time>
      </trkpt>
      <trkpt lat="46.43241754733026" lon="8.431018190458417">
        <ele>2166.1500000000001</ele>
        <time>2022-02-20T12:58:57Z</time>
      </trkpt>
      <trkpt lat="46.43241704441607" lon="8.431017016991973">
        <ele>2165.7600000000002</ele>
        <time>2022-02-20T12:59:24Z</time>
      </trkpt>
      <trkpt lat="46.432419139891863" lon="8.431022129952908">
        <ele>2165.6599999999999</ele>
        <time>2022-02-20T12:59:55Z</time>
      </trkpt>
      <trkpt lat="46.43241360783577" lon="8.431019112467766">
        <ele>2166.5999999999999</ele>
        <time>2022-02-20T13:00:28Z</time>
      </trkpt>
      <trkpt lat="46.432415200397372" lon="8.43101198785007">
        <ele>2166.73</ele>
        <time>2022-02-20T13:01:00Z</time>
      </trkpt>
      <trkpt lat="46.432411931455135" lon="8.431008383631706">
        <ele>2166.3299999999999</ele>
        <time>2022-02-20T13:01:40Z</time>
      </trkpt>
      <trkpt lat="46.432410087436438" lon="8.431023387238383">
        <ele>2167.3299999999999</ele>
        <time>2022-02-20T13:02:11Z</time>
      </trkpt>
      <trkpt lat="46.43242048099637" lon="8.431024141609669">
        <ele>2166.6500000000001</ele>
        <time>2022-02-20T13:02:40Z</time>
      </trkpt>
      <trkpt lat="46.432424420490861" lon="8.431034283712506">
        <ele>2166.0599999999999</ele>
        <time>2022-02-20T13:02:59Z</time>
      </trkpt>
      <trkpt lat="46.432418804615736" lon="8.431044006720185">
        <ele>2166.3299999999999</ele>
        <time>2022-02-20T13:03:37Z</time>
      </trkpt>
      <trkpt lat="46.432425677776337" lon="8.431053478270769">
        <ele>2167.52</ele>
        <time>2022-02-20T13:03:57Z</time>
      </trkpt>
      <trkpt lat="46.432430539280176" lon="8.431050293147564">
        <ele>2166.8800000000001</ele>
        <time>2022-02-20T13:04:09Z</time>
      </trkpt>
      <trkpt lat="46.432426683604717" lon="8.431048868224025">
        <ele>2167.98</ele>
        <time>2022-02-20T13:04:17Z</time>
      </trkpt>
      <trkpt lat="46.432427689433098" lon="8.431044593453407">
        <ele>2167.8200000000002</ele>
        <time>2022-02-20T13:04:35Z</time>
      </trkpt>
      <trkpt lat="46.43242827616632" lon="8.431048281490803">
        <ele>2167.9299999999998</ele>
        <time>2022-02-20T13:04:51Z</time>
      </trkpt>
      <trkpt lat="46.432430120185018" lon="8.431046269834042">
        <ele>2167.7199999999998</ele>
        <time>2022-02-20T13:05:07Z</time>
      </trkpt>
      <trkpt lat="46.432430958375335" lon="8.431038055568934">
        <ele>2167.5</ele>
        <time>2022-02-20T13:05:17Z</time>
      </trkpt>
      <trkpt lat="46.432422744110227" lon="8.431054651737213">
        <ele>2167.6799999999998</ele>
        <time>2022-02-20T13:05:34Z</time>
      </trkpt>
      <trkpt lat="46.432428192347288" lon="8.43111164867878">
        <ele>2167.3800000000001</ele>
        <time>2022-02-20T13:05:38Z</time>
      </trkpt>
      <trkpt lat="46.432456104084849" lon="8.431322369724512">
        <ele>2169.1999999999998</ele>
        <time>2022-02-20T13:05:54Z</time>
      </trkpt>
      <trkpt lat="46.432489799335599" lon="8.43149721622467">
        <ele>2171.4400000000001</ele>
        <time>2022-02-20T13:06:10Z</time>
      </trkpt>
      <trkpt lat="46.43251083791256" lon="8.431595787405968">
        <ele>2172.7600000000002</ele>
        <time>2022-02-20T13:06:21Z</time>
      </trkpt>
      <trkpt lat="46.432529194280505" lon="8.431780440732837">
        <ele>2175.4699999999998</ele>
        <time>2022-02-20T13:06:37Z</time>
      </trkpt>
      <trkpt lat="46.432541515678167" lon="8.431955371052027">
        <ele>2177.8499999999999</ele>
        <time>2022-02-20T13:06:53Z</time>
      </trkpt>
      <trkpt lat="46.432544281706214" lon="8.432142455130816">
        <ele>2180.2399999999998</ele>
        <time>2022-02-20T13:07:10Z</time>
      </trkpt>
      <trkpt lat="46.432528775185347" lon="8.432329790666699">
        <ele>2182.4400000000001</ele>
        <time>2022-02-20T13:07:27Z</time>
      </trkpt>
      <trkpt lat="46.432478902861476" lon="8.432462560012937">
        <ele>2184.1799999999998</ele>
        <time>2022-02-20T13:07:42Z</time>
      </trkpt>
      <trkpt lat="46.432407572865486" lon="8.432559287175536">
        <ele>2186.1700000000001</ele>
        <time>2022-02-20T13:07:57Z</time>
      </trkpt>
      <trkpt lat="46.432324256747961" lon="8.432630114257336">
        <ele>2187.98</ele>
        <time>2022-02-20T13:08:13Z</time>
      </trkpt>
      <trkpt lat="46.432297853752971" lon="8.432650985196233">
        <ele>2188.25</ele>
        <time>2022-02-20T13:08:25Z</time>
      </trkpt>
      <trkpt lat="46.432156367227435" lon="8.432715944945812">
        <ele>2190.7600000000002</ele>
        <time>2022-02-20T13:08:42Z</time>
      </trkpt>
      <trkpt lat="46.432068943977356" lon="8.4327407553792">
        <ele>2192.3499999999999</ele>
        <time>2022-02-20T13:08:55Z</time>
      </trkpt>
      <trkpt lat="46.431950842961669" lon="8.432755758985877">
        <ele>2194.1900000000001</ele>
        <time>2022-02-20T13:09:13Z</time>
      </trkpt>
      <trkpt lat="46.431938270106912" lon="8.432740587741137">
        <ele>2194.6399999999999</ele>
        <time>2022-02-20T13:09:25Z</time>
      </trkpt>
      <trkpt lat="46.431893762201071" lon="8.432761458680034">
        <ele>2195.52</ele>
        <time>2022-02-20T13:09:42Z</time>
      </trkpt>
      <trkpt lat="46.431778594851494" lon="8.432788532227278">
        <ele>2197.0900000000001</ele>
        <time>2022-02-20T13:09:58Z</time>
      </trkpt>
      <trkpt lat="46.431683795526624" lon="8.432850977405906">
        <ele>2198.5500000000002</ele>
        <time>2022-02-20T13:10:11Z</time>
      </trkpt>
      <trkpt lat="46.431627720594406" lon="8.43297628685832">
        <ele>2200.0300000000002</ele>
        <time>2022-02-20T13:10:23Z</time>
      </trkpt>
      <trkpt lat="46.431607184931636" lon="8.433042587712407">
        <ele>2201.1500000000001</ele>
        <time>2022-02-20T13:10:36Z</time>
      </trkpt>
      <trkpt lat="46.431615566834807" lon="8.433101428672671">
        <ele>2201.3299999999999</ele>
        <time>2022-02-20T13:10:45Z</time>
      </trkpt>
      <trkpt lat="46.431630067527294" lon="8.433294463902712">
        <ele>2203.27</ele>
        <time>2022-02-20T13:11:00Z</time>
      </trkpt>
      <trkpt lat="46.431564353406429" lon="8.43344634398818">
        <ele>2205.7800000000002</ele>
        <time>2022-02-20T13:11:16Z</time>
      </trkpt>
      <trkpt lat="46.431451868265867" lon="8.433486158028245">
        <ele>2206.9200000000001</ele>
        <time>2022-02-20T13:11:30Z</time>
      </trkpt>
      <trkpt lat="46.431322703137994" lon="8.433455396443605">
        <ele>2208.1599999999999</ele>
        <time>2022-02-20T13:11:46Z</time>
      </trkpt>
      <trkpt lat="46.431309711188078" lon="8.43344290740788">
        <ele>2208.6399999999999</ele>
        <time>2022-02-20T13:12:00Z</time>
      </trkpt>
      <trkpt lat="46.431235782802105" lon="8.433373337611556">
        <ele>2209.5999999999999</ele>
        <time>2022-02-20T13:12:11Z</time>
      </trkpt>
      <trkpt lat="46.431123130023479" lon="8.433270659297705">
        <ele>2211.1199999999999</ele>
        <time>2022-02-20T13:12:26Z</time>
      </trkpt>
      <trkpt lat="46.431027743965387" lon="8.433173513039947">
        <ele>2212.8499999999999</ele>
        <time>2022-02-20T13:12:40Z</time>
      </trkpt>
      <trkpt lat="46.430970830842853" lon="8.433055579662323">
        <ele>2214.7800000000002</ele>
        <time>2022-02-20T13:12:54Z</time>
      </trkpt>
      <trkpt lat="46.430949792265892" lon="8.432890707626939">
        <ele>2216.4099999999999</ele>
        <time>2022-02-20T13:13:09Z</time>
      </trkpt>
      <trkpt lat="46.430874690413475" lon="8.432806804776192">
        <ele>2217.25</ele>
        <time>2022-02-20T13:13:21Z</time>
      </trkpt>
      <trkpt lat="46.430778047069907" lon="8.432739498093724">
        <ele>2219.4000000000001</ele>
        <time>2022-02-20T13:13:35Z</time>
      </trkpt>
      <trkpt lat="46.430665059015155" lon="8.432686943560839">
        <ele>2220.8099999999999</ele>
        <time>2022-02-20T13:13:52Z</time>
      </trkpt>
      <trkpt lat="46.430587945505977" lon="8.432664815336466">
        <ele>2221.8899999999999</ele>
        <time>2022-02-20T13:14:05Z</time>
      </trkpt>
      <trkpt lat="46.430483590811491" lon="8.432718124240637">
        <ele>2223.77</ele>
        <time>2022-02-20T13:14:21Z</time>
      </trkpt>
      <trkpt lat="46.430432377383113" lon="8.432768750935793">
        <ele>2224.9400000000001</ele>
        <time>2022-02-20T13:14:35Z</time>
      </trkpt>
      <trkpt lat="46.430373284965754" lon="8.432831279933453">
        <ele>2225.9400000000001</ele>
        <time>2022-02-20T13:14:51Z</time>
      </trkpt>
      <trkpt lat="46.430258117616177" lon="8.432827759534121">
        <ele>2228.0500000000002</ele>
        <time>2022-02-20T13:15:05Z</time>
      </trkpt>
      <trkpt lat="46.430163653567433" lon="8.43276078812778">
        <ele>2230.0599999999999</ele>
        <time>2022-02-20T13:15:19Z</time>
      </trkpt>
      <trkpt lat="46.430150996893644" lon="8.432749640196562">
        <ele>2230.0799999999999</ele>
        <time>2022-02-20T13:15:31Z</time>
      </trkpt>
      <trkpt lat="46.430124342441559" lon="8.432711670175195">
        <ele>2230.9499999999998</ele>
        <time>2022-02-20T13:15:43Z</time>
      </trkpt>
      <trkpt lat="46.430075140669942" lon="8.432644698768854">
        <ele>2231.9299999999998</ele>
        <time>2022-02-20T13:15:51Z</time>
      </trkpt>
      <trkpt lat="46.4299650862813" lon="8.432528944686055">
        <ele>2233.46</ele>
        <time>2022-02-20T13:16:06Z</time>
      </trkpt>
      <trkpt lat="46.429829634726048" lon="8.432414615526795">
        <ele>2235.3400000000001</ele>
        <time>2022-02-20T13:16:24Z</time>
      </trkpt>
      <trkpt lat="46.429730141535401" lon="8.432329371571541">
        <ele>2236.77</ele>
        <time>2022-02-20T13:16:38Z</time>
      </trkpt>
      <trkpt lat="46.429634755477309" lon="8.43225016258657">
        <ele>2237.9400000000001</ele>
        <time>2022-02-20T13:16:52Z</time>
      </trkpt>
      <trkpt lat="46.429567532613873" lon="8.432174054905772">
        <ele>2238.3800000000001</ele>
        <time>2022-02-20T13:17:04Z</time>
      </trkpt>
      <trkpt lat="46.429567029699683" lon="8.432153016328812">
        <ele>2238.2399999999998</ele>
        <time>2022-02-20T13:17:15Z</time>
      </trkpt>
      <trkpt lat="46.429566526785493" lon="8.432145640254021">
        <ele>2238.2399999999998</ele>
        <time>2022-02-20T13:17:39Z</time>
      </trkpt>
      <trkpt lat="46.429565185680985" lon="8.432151172310114">
        <ele>2238.54</ele>
        <time>2022-02-20T13:17:56Z</time>
      </trkpt>
      <trkpt lat="46.429558983072639" lon="8.432151842862368">
        <ele>2238.1900000000001</ele>
        <time>2022-02-20T13:18:12Z</time>
      </trkpt>
      <trkpt lat="46.429555546492338" lon="8.432161482051015">
        <ele>2238.3600000000001</ele>
        <time>2022-02-20T13:18:26Z</time>
      </trkpt>
      <trkpt lat="46.429548086598516" lon="8.432153016328812">
        <ele>2238.5</ele>
        <time>2022-02-20T13:18:39Z</time>
      </trkpt>
      <trkpt lat="46.429554540663958" lon="8.43215636909008">
        <ele>2238.3899999999999</ele>
        <time>2022-02-20T13:19:03Z</time>
      </trkpt>
      <trkpt lat="46.429560072720051" lon="8.43216416426003">
        <ele>2238.4299999999998</ele>
        <time>2022-02-20T13:19:21Z</time>
      </trkpt>
      <trkpt lat="46.429556384682655" lon="8.432160057127476">
        <ele>2238.3699999999999</ele>
        <time>2022-02-20T13:19:40Z</time>
      </trkpt>
      <trkpt lat="46.429562587291002" lon="8.432163828983903">
        <ele>2238.4699999999998</ele>
        <time>2022-02-20T13:20:03Z</time>
      </trkpt>
      <trkpt lat="46.429549679160118" lon="8.432099539786577">
        <ele>2238.4899999999998</ele>
        <time>2022-02-20T13:20:24Z</time>
      </trkpt>
      <trkpt lat="46.429559569805861" lon="8.432105407118797">
        <ele>2238.0799999999999</ele>
        <time>2022-02-20T13:20:46Z</time>
      </trkpt>
      <trkpt lat="46.429559988901019" lon="8.432100964710116">
        <ele>2238.1399999999999</ele>
        <time>2022-02-20T13:21:02Z</time>
      </trkpt>
      <trkpt lat="46.429554540663958" lon="8.432087888941169">
        <ele>2237.6599999999999</ele>
        <time>2022-02-20T13:21:21Z</time>
      </trkpt>
      <trkpt lat="46.429553115740418" lon="8.43209333717823">
        <ele>2236.7600000000002</ele>
        <time>2022-02-20T13:21:32Z</time>
      </trkpt>
      <trkpt lat="46.42955076880753" lon="8.432100964710116">
        <ele>2238.0900000000001</ele>
        <time>2022-02-20T13:21:56Z</time>
      </trkpt>
      <trkpt lat="46.429547416046262" lon="8.432103982195258">
        <ele>2238.1300000000001</ele>
        <time>2022-02-20T13:22:22Z</time>
      </trkpt>
      <trkpt lat="46.429551355540752" lon="8.432090738788247">
        <ele>2238.3899999999999</ele>
        <time>2022-02-20T13:22:45Z</time>
      </trkpt>
      <trkpt lat="46.429550936445594" lon="8.432089565321803">
        <ele>2238.25</ele>
        <time>2022-02-20T13:23:11Z</time>
      </trkpt>
      <trkpt lat="46.429557306692004" lon="8.432095600292087">
        <ele>2238.6900000000001</ele>
        <time>2022-02-20T13:23:37Z</time>
      </trkpt>
      <trkpt lat="46.429545907303691" lon="8.432090487331152">
        <ele>2239.1900000000001</ele>
        <time>2022-02-20T13:24:08Z</time>
      </trkpt>
      <trkpt lat="46.429550014436245" lon="8.432091576978564">
        <ele>2238.8899999999999</ele>
        <time>2022-02-20T13:24:25Z</time>
      </trkpt>
      <trkpt lat="46.429551020264626" lon="8.432091660797596">
        <ele>2239.23</ele>
        <time>2022-02-20T13:24:44Z</time>
      </trkpt>
      <trkpt lat="46.429551606997848" lon="8.432097947224975">
        <ele>2239.0700000000002</ele>
        <time>2022-02-20T13:25:13Z</time>
      </trkpt>
      <trkpt lat="46.42954926006496" lon="8.432099036872387">
        <ele>2238.7399999999998</ele>
        <time>2022-02-20T13:25:35Z</time>
      </trkpt>
      <trkpt lat="46.429548840969801" lon="8.432102557271719">
        <ele>2238.8000000000002</ele>
        <time>2022-02-20T13:25:51Z</time>
      </trkpt>
      <trkpt lat="46.429550601169467" lon="8.432102641090751">
        <ele>2238.8899999999999</ele>
        <time>2022-02-20T13:26:09Z</time>
      </trkpt>
      <trkpt lat="46.429549595341086" lon="8.432105490937829">
        <ele>2238.8099999999999</ele>
        <time>2022-02-20T13:26:26Z</time>
      </trkpt>
      <trkpt lat="46.429553534835577" lon="8.432103479281068">
        <ele>2239.0999999999999</ele>
        <time>2022-02-20T13:26:42Z</time>
      </trkpt>
      <trkpt lat="46.429553283378482" lon="8.432102305814624">
        <ele>2238.8400000000001</ele>
        <time>2022-02-20T13:27:00Z</time>
      </trkpt>
      <trkpt lat="46.429550936445594" lon="8.432094594463706">
        <ele>2238.5500000000002</ele>
        <time>2022-02-20T13:27:17Z</time>
      </trkpt>
      <trkpt lat="46.429553618654609" lon="8.432105323299766">
        <ele>2238.6399999999999</ele>
        <time>2022-02-20T13:27:32Z</time>
      </trkpt>
      <trkpt lat="46.429554959759116" lon="8.432180928066373">
        <ele>2238.2199999999998</ele>
        <time>2022-02-20T13:27:43Z</time>
      </trkpt>
      <trkpt lat="46.429557306692004" lon="8.432172043249011">
        <ele>2238.3000000000002</ele>
        <time>2022-02-20T13:27:59Z</time>
      </trkpt>
      <trkpt lat="46.42957516014576" lon="8.432173551991582">
        <ele>2238.1100000000001</ele>
        <time>2022-02-20T13:28:10Z</time>
      </trkpt>
      <trkpt lat="46.429569963365793" lon="8.432166259735823">
        <ele>2238.29</ele>
        <time>2022-02-20T13:28:27Z</time>
      </trkpt>
      <trkpt lat="46.42958396114409" lon="8.432204062119126">
        <ele>2238.1900000000001</ele>
        <time>2022-02-20T13:28:46Z</time>
      </trkpt>
      <trkpt lat="46.429619500413537" lon="8.432230800390244">
        <ele>2238.1199999999999</ele>
        <time>2022-02-20T13:28:56Z</time>
      </trkpt>
      <trkpt lat="46.42970860004425" lon="8.432293832302094">
        <ele>2237.4200000000001</ele>
        <time>2022-02-20T13:29:10Z</time>
      </trkpt>
      <trkpt lat="46.429802644997835" lon="8.432371281087399">
        <ele>2237.0999999999999</ele>
        <time>2022-02-20T13:29:24Z</time>
      </trkpt>
      <trkpt lat="46.42988252453506" lon="8.432440767064691">
        <ele>2236.3099999999999</ele>
        <time>2022-02-20T13:29:37Z</time>
      </trkpt>
      <trkpt lat="46.429911023005843" lon="8.43246909789741">
        <ele>2235.9499999999998</ele>
        <time>2022-02-20T13:29:47Z</time>
      </trkpt>
      <trkpt lat="46.429941616952419" lon="8.432507151737809">
        <ele>2235.8000000000002</ele>
        <time>2022-02-20T13:30:00Z</time>
      </trkpt>
      <trkpt lat="46.42998905852437" lon="8.432540846988559">
        <ele>2235.04</ele>
        <time>2022-02-20T13:30:11Z</time>
      </trkpt>
      <trkpt lat="46.430043540894985" lon="8.432595916092396">
        <ele>2233.9699999999998</ele>
        <time>2022-02-20T13:30:21Z</time>
      </trkpt>
      <trkpt lat="46.430118978023529" lon="8.43270706012845">
        <ele>2232.3899999999999</ele>
        <time>2022-02-20T13:30:35Z</time>
      </trkpt>
      <trkpt lat="46.430217800661922" lon="8.432803452014923">
        <ele>2230.2199999999998</ele>
        <time>2022-02-20T13:30:50Z</time>
      </trkpt>
      <trkpt lat="46.430305894464254" lon="8.432880230247974">
        <ele>2228.3400000000001</ele>
        <time>2022-02-20T13:31:03Z</time>
      </trkpt>
      <trkpt lat="46.430414607748389" lon="8.432935634627938">
        <ele>2225.8600000000001</ele>
        <time>2022-02-20T13:31:17Z</time>
      </trkpt>
      <trkpt lat="46.430506221950054" lon="8.432964133098722">
        <ele>2224.4200000000001</ele>
        <time>2022-02-20T13:31:30Z</time>
      </trkpt>
      <trkpt lat="46.430603619664907" lon="8.432982573285699">
        <ele>2222.5</ele>
        <time>2022-02-20T13:31:44Z</time>
      </trkpt>
      <trkpt lat="46.430707639083266" lon="8.43302414752543">
        <ele>2220.8499999999999</ele>
        <time>2022-02-20T13:31:57Z</time>
      </trkpt>
      <trkpt lat="46.430829847231507" lon="8.433089777827263">
        <ele>2218.4400000000001</ele>
        <time>2022-02-20T13:32:12Z</time>
      </trkpt>
      <trkpt lat="46.430918863043189" lon="8.433121293783188">
        <ele>2217.0799999999999</ele>
        <time>2022-02-20T13:32:24Z</time>
      </trkpt>
      <trkpt lat="46.431046854704618" lon="8.433209890499711">
        <ele>2214.6199999999999</ele>
        <time>2022-02-20T13:32:40Z</time>
      </trkpt>
      <trkpt lat="46.431139642372727" lon="8.433267306536436">
        <ele>2213.1100000000001</ele>
        <time>2022-02-20T13:32:53Z</time>
      </trkpt>
      <trkpt lat="46.431223461404443" lon="8.433336541056633">
        <ele>2211.8800000000001</ele>
        <time>2022-02-20T13:33:05Z</time>
      </trkpt>
      <trkpt lat="46.431321194395423" lon="8.433432262390852">
        <ele>2209.5500000000002</ele>
        <time>2022-02-20T13:33:19Z</time>
      </trkpt>
      <trkpt lat="46.431453125551343" lon="8.433487499132752">
        <ele>2207.73</ele>
        <time>2022-02-20T13:33:35Z</time>
      </trkpt>
      <trkpt lat="46.43155706115067" lon="8.433438632637262">
        <ele>2206.5900000000001</ele>
        <time>2022-02-20T13:33:47Z</time>
      </trkpt>
      <trkpt lat="46.43160198815167" lon="8.433417258784175">
        <ele>2206.1199999999999</ele>
        <time>2022-02-20T13:33:52Z</time>
      </trkpt>
      <trkpt lat="46.431653285399079" lon="8.433268899098039">
        <ele>2203.8699999999999</ele>
        <time>2022-02-20T13:34:08Z</time>
      </trkpt>
      <trkpt lat="46.43165429122746" lon="8.433219194412231">
        <ele>2203.3600000000001</ele>
        <time>2022-02-20T13:34:20Z</time>
      </trkpt>
      <trkpt lat="46.431650351732969" lon="8.433224810287356">
        <ele>2203.04</ele>
        <time>2022-02-20T13:34:37Z</time>
      </trkpt>
      <trkpt lat="46.431642472743988" lon="8.433189773932099">
        <ele>2202.4299999999998</ele>
        <time>2022-02-20T13:34:51Z</time>
      </trkpt>
      <trkpt lat="46.431641550734639" lon="8.433116851374507">
        <ele>2201.5500000000002</ele>
        <time>2022-02-20T13:34:59Z</time>
      </trkpt>
      <trkpt lat="46.431644819676876" lon="8.433075863867998">
        <ele>2201.4099999999999</ele>
        <time>2022-02-20T13:35:10Z</time>
      </trkpt>
      <trkpt lat="46.431648088619113" lon="8.432976705953479">
        <ele>2200.4000000000001</ele>
        <time>2022-02-20T13:35:22Z</time>
      </trkpt>
      <trkpt lat="46.431696703657508" lon="8.432863969355822">
        <ele>2198.9899999999998</ele>
        <time>2022-02-20T13:35:35Z</time>
      </trkpt>
      <trkpt lat="46.431749509647489" lon="8.43281451612711">
        <ele>2198.0300000000002</ele>
        <time>2022-02-20T13:35:46Z</time>
      </trkpt>
      <trkpt lat="46.431836849078536" lon="8.432768080383539">
        <ele>2195.8200000000002</ele>
        <time>2022-02-20T13:35:59Z</time>
      </trkpt>
      <trkpt lat="46.431976659223437" lon="8.432734804227948">
        <ele>2193.4899999999998</ele>
        <time>2022-02-20T13:36:16Z</time>
      </trkpt>
      <trkpt lat="46.43207062035799" lon="8.432716364040971">
        <ele>2191.8499999999999</ele>
        <time>2022-02-20T13:36:28Z</time>
      </trkpt>
      <trkpt lat="46.432180590927601" lon="8.432692224159837">
        <ele>2189.8899999999999</ele>
        <time>2022-02-20T13:36:40Z</time>
      </trkpt>
      <trkpt lat="46.432226020842791" lon="8.432677639648318">
        <ele>2189.0599999999999</ele>
        <time>2022-02-20T13:36:45Z</time>
      </trkpt>
      <trkpt lat="46.432314114645123" lon="8.432648302987218">
        <ele>2186.9899999999998</ele>
        <time>2022-02-20T13:36:59Z</time>
      </trkpt>
      <trkpt lat="46.432421570643783" lon="8.432546043768525">
        <ele>2184.4699999999998</ele>
        <time>2022-02-20T13:37:14Z</time>
      </trkpt>
      <trkpt lat="46.432508658617735" lon="8.432415956631303">
        <ele>2182.2199999999998</ele>
        <time>2022-02-20T13:37:28Z</time>
      </trkpt>
      <trkpt lat="46.432537408545613" lon="8.432256951928139">
        <ele>2180.02</ele>
        <time>2022-02-20T13:37:43Z</time>
      </trkpt>
      <trkpt lat="46.432538665831089" lon="8.432084200903773">
        <ele>2178.4200000000001</ele>
        <time>2022-02-20T13:37:57Z</time>
      </trkpt>
      <trkpt lat="46.432538498193026" lon="8.431979762390256">
        <ele>2176.8600000000001</ele>
        <time>2022-02-20T13:38:05Z</time>
      </trkpt>
      <trkpt lat="46.432535648345947" lon="8.431763928383589">
        <ele>2174.1300000000001</ele>
        <time>2022-02-20T13:38:21Z</time>
      </trkpt>
      <trkpt lat="46.432514442130923" lon="8.431572485715151">
        <ele>2172.29</ele>
        <time>2022-02-20T13:38:36Z</time>
      </trkpt>
      <trkpt lat="46.432486278936267" lon="8.43140384182334">
        <ele>2170.48</ele>
        <time>2022-02-20T13:38:51Z</time>
      </trkpt>
      <trkpt lat="46.432468090206385" lon="8.431237125769258">
        <ele>2168.8699999999999</ele>
        <time>2022-02-20T13:39:05Z</time>
      </trkpt>
      <trkpt lat="46.432450991123915" lon="8.431080467998982">
        <ele>2167.98</ele>
        <time>2022-02-20T13:39:21Z</time>
      </trkpt>
      <trkpt lat="46.43244344741106" lon="8.431048113852739">
        <ele>2167.4299999999998</ele>
        <time>2022-02-20T13:39:47Z</time>
      </trkpt>
      <trkpt lat="46.432447554543614" lon="8.431041156873107">
        <ele>2166.6199999999999</ele>
        <time>2022-02-20T13:39:59Z</time>
      </trkpt>
      <trkpt lat="46.432443195953965" lon="8.431045850738883">
        <ele>2165.7199999999998</ele>
        <time>2022-02-20T13:40:01Z</time>
      </trkpt>
      <trkpt lat="46.43246540799737" lon="8.431045264005661">
        <ele>2166.8600000000001</ele>
        <time>2022-02-20T13:40:21Z</time>
      </trkpt>
      <trkpt lat="46.432465743273497" lon="8.431047443300486">
        <ele>2167.1300000000001</ele>
        <time>2022-02-20T13:40:40Z</time>
      </trkpt>
      <trkpt lat="46.432456187903881" lon="8.431042414158583">
        <ele>2167.6799999999998</ele>
        <time>2022-02-20T13:40:53Z</time>
      </trkpt>
      <trkpt lat="46.432453170418739" lon="8.431047359481454">
        <ele>2167.3800000000001</ele>
        <time>2022-02-20T13:41:12Z</time>
      </trkpt>
      <trkpt lat="46.43245124258101" lon="8.431049790233374">
        <ele>2167.4499999999998</ele>
        <time>2022-02-20T13:41:30Z</time>
      </trkpt>
      <trkpt lat="46.432448141276836" lon="8.431047191843391">
        <ele>2167.3800000000001</ele>
        <time>2022-02-20T13:41:41Z</time>
      </trkpt>
      <trkpt lat="46.432446129620075" lon="8.431048197671771">
        <ele>2167.3699999999999</ele>
        <time>2022-02-20T13:41:59Z</time>
      </trkpt>
      <trkpt lat="46.432442609220743" lon="8.431050963699818">
        <ele>2167.5799999999999</ele>
        <time>2022-02-20T13:42:19Z</time>
      </trkpt>
      <trkpt lat="46.432443698868155" lon="8.43105448409915">
        <ele>2167.2199999999998</ele>
        <time>2022-02-20T13:42:40Z</time>
      </trkpt>
      <trkpt lat="46.432450152933598" lon="8.431062530726194">
        <ele>2166.9099999999999</ele>
        <time>2022-02-20T13:42:59Z</time>
      </trkpt>
      <trkpt lat="46.432456187903881" lon="8.431058339774609">
        <ele>2167.1199999999999</ele>
        <time>2022-02-20T13:43:17Z</time>
      </trkpt>
      <trkpt lat="46.4324551820755" lon="8.431059932336211">
        <ele>2166.9000000000001</ele>
        <time>2022-02-20T13:43:34Z</time>
      </trkpt>
      <trkpt lat="46.432452164590359" lon="8.431053645908833">
        <ele>2166.4899999999998</ele>
        <time>2022-02-20T13:43:52Z</time>
      </trkpt>
      <trkpt lat="46.432459037750959" lon="8.431054819375277">
        <ele>2167.1999999999998</ele>
        <time>2022-02-20T13:44:07Z</time>
      </trkpt>
      <trkpt lat="46.432458367198706" lon="8.431055406108499">
        <ele>2167.1999999999998</ele>
        <time>2022-02-20T13:44:22Z</time>
      </trkpt>
      <trkpt lat="46.432463228702545" lon="8.431058675050736">
        <ele>2167.3099999999999</ele>
        <time>2022-02-20T13:44:46Z</time>
      </trkpt>
      <trkpt lat="46.432453757151961" lon="8.431055322289467">
        <ele>2167.3099999999999</ele>
        <time>2022-02-20T13:45:04Z</time>
      </trkpt>
      <trkpt lat="46.432455936446786" lon="8.431056998670101">
        <ele>2166.9699999999998</ele>
        <time>2022-02-20T13:45:18Z</time>
      </trkpt>
      <trkpt lat="46.432454846799374" lon="8.431053897365928">
        <ele>2167.3299999999999</ele>
        <time>2022-02-20T13:45:34Z</time>
      </trkpt>
      <trkpt lat="46.432454092428088" lon="8.431055909022689">
        <ele>2167.4099999999999</ele>
        <time>2022-02-20T13:45:48Z</time>
      </trkpt>
      <trkpt lat="46.432442525401711" lon="8.431021794676781">
        <ele>2167.1300000000001</ele>
        <time>2022-02-20T13:46:02Z</time>
      </trkpt>
      <trkpt lat="46.432428695261478" lon="8.43101198785007">
        <ele>2166.9499999999998</ele>
        <time>2022-02-20T13:46:17Z</time>
      </trkpt>
      <trkpt lat="46.432412434369326" lon="8.430990278720856">
        <ele>2166.6999999999998</ele>
        <time>2022-02-20T13:46:30Z</time>
      </trkpt>
      <trkpt lat="46.432392988353968" lon="8.430894054472446">
        <ele>2165.73</ele>
        <time>2022-02-20T13:46:44Z</time>
      </trkpt>
      <trkpt lat="46.432454762980342" lon="8.430788777768612">
        <ele>2163.2600000000002</ele>
        <time>2022-02-20T13:46:56Z</time>
      </trkpt>
      <trkpt lat="46.432468425482512" lon="8.430686183273792">
        <ele>2160.9699999999998</ele>
        <time>2022-02-20T13:47:07Z</time>
      </trkpt>
      <trkpt lat="46.432461217045784" lon="8.430520221590996">
        <ele>2159.3800000000001</ele>
        <time>2022-02-20T13:47:20Z</time>
      </trkpt>
      <trkpt lat="46.432418385520577" lon="8.430426008999348">
        <ele>2159.2199999999998</ele>
        <time>2022-02-20T13:47:32Z</time>
      </trkpt>
      <trkpt lat="46.432398520410061" lon="8.430396085605025">
        <ele>2158.9200000000001</ele>
        <time>2022-02-20T13:47:45Z</time>
      </trkpt>
      <trkpt lat="46.43236767500639" lon="8.430354176089168">
        <ele>2158.6100000000001</ele>
        <time>2022-02-20T13:47:59Z</time>
      </trkpt>
      <trkpt lat="46.432373793795705" lon="8.430358869954944">
        <ele>2158.5500000000002</ele>
        <time>2022-02-20T13:48:12Z</time>
      </trkpt>
      <trkpt lat="46.432343535125256" lon="8.430314445868135">
        <ele>2158.21</ele>
        <time>2022-02-20T13:48:21Z</time>
      </trkpt>
      <trkpt lat="46.432331129908562" lon="8.430265495553613">
        <ele>2158</ele>
        <time>2022-02-20T13:48:33Z</time>
      </trkpt>
      <trkpt lat="46.432314952835441" lon="8.430220568552613">
        <ele>2157.75</ele>
        <time>2022-02-20T13:48:39Z</time>
      </trkpt>
      <trkpt lat="46.432268768548965" lon="8.43014907091856">
        <ele>2157.4200000000001</ele>
        <time>2022-02-20T13:48:53Z</time>
      </trkpt>
      <trkpt lat="46.432212861254811" lon="8.430112693458796">
        <ele>2157.27</ele>
        <time>2022-02-20T13:49:08Z</time>
      </trkpt>
      <trkpt lat="46.432091910392046" lon="8.429891662672162">
        <ele>2156.6500000000001</ele>
        <time>2022-02-20T13:49:27Z</time>
      </trkpt>
      <trkpt lat="46.432040194049478" lon="8.429772136732936">
        <ele>2156.46</ele>
        <time>2022-02-20T13:49:41Z</time>
      </trkpt>
      <trkpt lat="46.432035164907575" lon="8.429768364876509">
        <ele>2156.6599999999999</ele>
        <time>2022-02-20T13:49:44Z</time>
      </trkpt>
      <trkpt lat="46.432020999491215" lon="8.429746404290199">
        <ele>2156.3000000000002</ele>
        <time>2022-02-20T13:49:46Z</time>
      </trkpt>
      <trkpt lat="46.431890409439802" lon="8.429581029340625">
        <ele>2156.02</ele>
        <time>2022-02-20T13:50:03Z</time>
      </trkpt>
      <trkpt lat="46.431876244023442" lon="8.429517578333616">
        <ele>2156.1700000000001</ele>
        <time>2022-02-20T13:50:12Z</time>
      </trkpt>
      <trkpt lat="46.431878004223108" lon="8.429482961073518">
        <ele>2156.1100000000001</ele>
        <time>2022-02-20T13:50:18Z</time>
      </trkpt>
      <trkpt lat="46.43188102170825" lon="8.429487235844135">
        <ele>2156.23</ele>
        <time>2022-02-20T13:50:23Z</time>
      </trkpt>
      <trkpt lat="46.431865766644478" lon="8.429508609697223">
        <ele>2156.1199999999999</ele>
        <time>2022-02-20T13:50:33Z</time>
      </trkpt>
      <trkpt lat="46.4318629167974" lon="8.429498299956322">
        <ele>2155.73</ele>
        <time>2022-02-20T13:50:39Z</time>
      </trkpt>
      <trkpt lat="46.431776080280542" lon="8.42924851924181">
        <ele>2155.52</ele>
        <time>2022-02-20T13:50:56Z</time>
      </trkpt>
      <trkpt lat="46.431720424443483" lon="8.42899396084249">
        <ele>2155.0100000000002</ele>
        <time>2022-02-20T13:51:12Z</time>
      </trkpt>
      <trkpt lat="46.431708857417107" lon="8.428960349410772">
        <ele>2154.9899999999998</ele>
        <time>2022-02-20T13:51:17Z</time>
      </trkpt>
      <trkpt lat="46.431693183258176" lon="8.42890402302146">
        <ele>2154.6300000000001</ele>
        <time>2022-02-20T13:51:21Z</time>
      </trkpt>
      <trkpt lat="46.431635515764356" lon="8.428754573687911">
        <ele>2154.0799999999999</ele>
        <time>2022-02-20T13:51:31Z</time>
      </trkpt>
      <trkpt lat="46.431524455547333" lon="8.428545529022813">
        <ele>2152.1700000000001</ele>
        <time>2022-02-20T13:51:45Z</time>
      </trkpt>
      <trkpt lat="46.431457316502929" lon="8.428410496562719">
        <ele>2150.6700000000001</ele>
        <time>2022-02-20T13:51:59Z</time>
      </trkpt>
      <trkpt lat="46.43145639449358" lon="8.428410328924656">
        <ele>2150.5599999999999</ele>
        <time>2022-02-20T13:52:05Z</time>
      </trkpt>
      <trkpt lat="46.431434182450175" lon="8.428378058597446">
        <ele>2149.96</ele>
        <time>2022-02-20T13:52:08Z</time>
      </trkpt>
      <trkpt lat="46.431287415325642" lon="8.428052505478263">
        <ele>2148.75</ele>
        <time>2022-02-20T13:52:29Z</time>
      </trkpt>
      <trkpt lat="46.431125812232494" lon="8.427897524088621">
        <ele>2147.4299999999998</ele>
        <time>2022-02-20T13:52:44Z</time>
      </trkpt>
      <trkpt lat="46.430971836671233" lon="8.427831726148725">
        <ele>2145.3400000000001</ele>
        <time>2022-02-20T13:52:56Z</time>
      </trkpt>
      <trkpt lat="46.430811155587435" lon="8.427741369232535">
        <ele>2144.1500000000001</ele>
        <time>2022-02-20T13:53:10Z</time>
      </trkpt>
      <trkpt lat="46.43070193938911" lon="8.427665010094643">
        <ele>2142.4200000000001</ele>
        <time>2022-02-20T13:53:24Z</time>
      </trkpt>
      <trkpt lat="46.430652402341366" lon="8.427625112235546">
        <ele>2142.2199999999998</ele>
        <time>2022-02-20T13:53:30Z</time>
      </trkpt>
      <trkpt lat="46.430557519197464" lon="8.427498545497656">
        <ele>2141.0900000000001</ele>
        <time>2022-02-20T13:53:44Z</time>
      </trkpt>
      <trkpt lat="46.430449308827519" lon="8.427364937961102">
        <ele>2140.0700000000002</ele>
        <time>2022-02-20T13:53:59Z</time>
      </trkpt>
      <trkpt lat="46.430343277752399" lon="8.427229234948754">
        <ele>2139.4200000000001</ele>
        <time>2022-02-20T13:54:14Z</time>
      </trkpt>
      <trkpt lat="46.430258117616177" lon="8.427060758695006">
        <ele>2139.1999999999998</ele>
        <time>2022-02-20T13:54:29Z</time>
      </trkpt>
      <trkpt lat="46.430187877267599" lon="8.426845511421561">
        <ele>2139.21</ele>
        <time>2022-02-20T13:54:45Z</time>
      </trkpt>
      <trkpt lat="46.430124761536717" lon="8.426666641607881">
        <ele>2139.54</ele>
        <time>2022-02-20T13:54:59Z</time>
      </trkpt>
      <trkpt lat="46.430059047415853" lon="8.426469666883349">
        <ele>2139.1199999999999</ele>
        <time>2022-02-20T13:55:14Z</time>
      </trkpt>
      <trkpt lat="46.429992495104671" lon="8.42630211263895">
        <ele>2138.6500000000001</ele>
        <time>2022-02-20T13:55:27Z</time>
      </trkpt>
      <trkpt lat="46.429902222007513" lon="8.426163392141461">
        <ele>2138.2199999999998</ele>
        <time>2022-02-20T13:55:40Z</time>
      </trkpt>
      <trkpt lat="46.42981605604291" lon="8.426038082689047">
        <ele>2138.1100000000001</ele>
        <time>2022-02-20T13:55:53Z</time>
      </trkpt>
      <trkpt lat="46.429727459326386" lon="8.425900284200907">
        <ele>2137.5500000000002</ele>
        <time>2022-02-20T13:56:06Z</time>
      </trkpt>
      <trkpt lat="46.429638862609863" lon="8.425709847360849">
        <ele>2137.3099999999999</ele>
        <time>2022-02-20T13:56:23Z</time>
      </trkpt>
      <trkpt lat="46.429572477936745" lon="8.425558973103762">
        <ele>2136.73</ele>
        <time>2022-02-20T13:56:37Z</time>
      </trkpt>
      <trkpt lat="46.429504668340087" lon="8.425394436344504">
        <ele>2136.1399999999999</ele>
        <time>2022-02-20T13:56:52Z</time>
      </trkpt>
      <trkpt lat="46.429445995017886" lon="8.425276754423976">
        <ele>2134.9499999999998</ele>
        <time>2022-02-20T13:57:03Z</time>
      </trkpt>
      <trkpt lat="46.429371479898691" lon="8.425148595124483">
        <ele>2133.6799999999998</ele>
        <time>2022-02-20T13:57:16Z</time>
      </trkpt>
      <trkpt lat="46.429299060255289" lon="8.425015406683087">
        <ele>2132.3499999999999</ele>
        <time>2022-02-20T13:57:29Z</time>
      </trkpt>
      <trkpt lat="46.429290175437927" lon="8.424992021173239">
        <ele>2133.1599999999999</ele>
        <time>2022-02-20T13:57:31Z</time>
      </trkpt>
      <trkpt lat="46.429281206801534" lon="8.424968803301454">
        <ele>2132.4899999999998</ele>
        <time>2022-02-20T13:57:33Z</time>
      </trkpt>
      <trkpt lat="46.429255641996861" lon="8.424860928207636">
        <ele>2131.96</ele>
        <time>2022-02-20T13:57:42Z</time>
      </trkpt>
      <trkpt lat="46.429283134639263" lon="8.424659511074424">
        <ele>2130.5300000000002</ele>
        <time>2022-02-20T13:57:57Z</time>
      </trkpt>
      <trkpt lat="46.429341891780496" lon="8.424495561048389">
        <ele>2129.29</ele>
        <time>2022-02-20T13:58:11Z</time>
      </trkpt>
      <trkpt lat="46.42939830198884" lon="8.424368994310498">
        <ele>2128.7399999999998</ele>
        <time>2022-02-20T13:58:22Z</time>
      </trkpt>
      <trkpt lat="46.429411880671978" lon="8.424304872751236">
        <ele>2128.4000000000001</ele>
        <time>2022-02-20T13:58:27Z</time>
      </trkpt>
      <trkpt lat="46.429417999461293" lon="8.424121225252748">
        <ele>2127.4200000000001</ele>
        <time>2022-02-20T13:58:42Z</time>
      </trkpt>
      <trkpt lat="46.429418167099357" lon="8.423960208892822">
        <ele>2126.29</ele>
        <time>2022-02-20T13:58:56Z</time>
      </trkpt>
      <trkpt lat="46.42937432974577" lon="8.423802629113197">
        <ele>2125.3899999999999</ele>
        <time>2022-02-20T13:59:10Z</time>
      </trkpt>
      <trkpt lat="46.429315907880664" lon="8.423662316054106">
        <ele>2124.5500000000002</ele>
        <time>2022-02-20T13:59:25Z</time>
      </trkpt>
      <trkpt lat="46.429297216236591" lon="8.42360146343708">
        <ele>2124.3000000000002</ele>
        <time>2022-02-20T13:59:37Z</time>
      </trkpt>
      <trkpt lat="46.429296126589179" lon="8.423525774851441">
        <ele>2124.0599999999999</ele>
        <time>2022-02-20T13:59:48Z</time>
      </trkpt>
      <trkpt lat="46.429296880960464" lon="8.423441788181663">
        <ele>2123.5</ele>
        <time>2022-02-20T14:00:01Z</time>
      </trkpt>
      <trkpt lat="46.429298222064972" lon="8.423430724069476">
        <ele>2123.4899999999998</ele>
        <time>2022-02-20T14:00:02Z</time>
      </trkpt>
      <trkpt lat="46.4293123036623" lon="8.423367524519563">
        <ele>2123.04</ele>
        <time>2022-02-20T14:00:07Z</time>
      </trkpt>
      <trkpt lat="46.429340383037925" lon="8.423231821507216">
        <ele>2121.5700000000002</ele>
        <time>2022-02-20T14:00:19Z</time>
      </trkpt>
      <trkpt lat="46.429317751899362" lon="8.42303367331624">
        <ele>2120.4499999999998</ele>
        <time>2022-02-20T14:00:35Z</time>
      </trkpt>
      <trkpt lat="46.429307274520397" lon="8.422950943931937">
        <ele>2119.8099999999999</ele>
        <time>2022-02-20T14:00:42Z</time>
      </trkpt>
      <trkpt lat="46.429314902052283" lon="8.422812558710575">
        <ele>2118.46</ele>
        <time>2022-02-20T14:00:53Z</time>
      </trkpt>
      <trkpt lat="46.429278440773487" lon="8.422680627554655">
        <ele>2116.6599999999999</ele>
        <time>2022-02-20T14:01:07Z</time>
      </trkpt>
      <trkpt lat="46.429187664762139" lon="8.422645255923271">
        <ele>2114.7800000000002</ele>
        <time>2022-02-20T14:01:19Z</time>
      </trkpt>
      <trkpt lat="46.429088674485683" lon="8.42263737693429">
        <ele>2112.3200000000002</ele>
        <time>2022-02-20T14:01:32Z</time>
      </trkpt>
      <trkpt lat="46.429003598168492" lon="8.422626731917262">
        <ele>2109.1399999999999</ele>
        <time>2022-02-20T14:01:45Z</time>
      </trkpt>
      <trkpt lat="46.428940650075674" lon="8.422630755230784">
        <ele>2106.0900000000001</ele>
        <time>2022-02-20T14:01:56Z</time>
      </trkpt>
      <trkpt lat="46.42888474278152" lon="8.42265204526484">
        <ele>2103.2199999999998</ele>
        <time>2022-02-20T14:02:05Z</time>
      </trkpt>
      <trkpt lat="46.428804360330105" lon="8.422649865970016">
        <ele>2101.4699999999998</ele>
        <time>2022-02-20T14:02:14Z</time>
      </trkpt>
      <trkpt lat="46.428766809403896" lon="8.42247468419373">
        <ele>2100.0900000000001</ele>
        <time>2022-02-20T14:02:29Z</time>
      </trkpt>
      <trkpt lat="46.428771503269672" lon="8.42227628454566">
        <ele>2098.8600000000001</ele>
        <time>2022-02-20T14:02:44Z</time>
      </trkpt>
      <trkpt lat="46.428758846595883" lon="8.422057684510946">
        <ele>2096.1399999999999</ele>
        <time>2022-02-20T14:03:01Z</time>
      </trkpt>
      <trkpt lat="46.42867217771709" lon="8.421985264867544">
        <ele>2093.8400000000001</ele>
        <time>2022-02-20T14:03:14Z</time>
      </trkpt>
      <trkpt lat="46.428636303171515" lon="8.422042513266206">
        <ele>2093</ele>
        <time>2022-02-20T14:03:20Z</time>
      </trkpt>
      <trkpt lat="46.428625155240297" lon="8.422250133007765">
        <ele>2091.4200000000001</ele>
        <time>2022-02-20T14:03:36Z</time>
      </trkpt>
      <trkpt lat="46.428614426404238" lon="8.422445766627789">
        <ele>2089.6799999999998</ele>
        <time>2022-02-20T14:03:51Z</time>
      </trkpt>
      <trkpt lat="46.428594896569848" lon="8.422595215961337">
        <ele>2089.3200000000002</ele>
        <time>2022-02-20T14:04:07Z</time>
      </trkpt>
      <trkpt lat="46.428589951246977" lon="8.422656320035458">
        <ele>2088.48</ele>
        <time>2022-02-20T14:04:19Z</time>
      </trkpt>
      <trkpt lat="46.42857444472611" lon="8.422692697495222">
        <ele>2087.8299999999999</ele>
        <time>2022-02-20T14:04:25Z</time>
      </trkpt>
      <trkpt lat="46.428555501624942" lon="8.422710299491882">
        <ele>2087.8499999999999</ele>
        <time>2022-02-20T14:04:36Z</time>
      </trkpt>
      <trkpt lat="46.42856078222394" lon="8.422695798799396">
        <ele>2087.3400000000001</ele>
        <time>2022-02-20T14:04:49Z</time>
      </trkpt>
      <trkpt lat="46.428501354530454" lon="8.422675095498562">
        <ele>2084.73</ele>
        <time>2022-02-20T14:05:00Z</time>
      </trkpt>
      <trkpt lat="46.428422229364514" lon="8.422634275630117">
        <ele>2081.52</ele>
        <time>2022-02-20T14:05:12Z</time>
      </trkpt>
      <trkpt lat="46.428398005664349" lon="8.422602843493223">
        <ele>2080.6599999999999</ele>
        <time>2022-02-20T14:05:27Z</time>
      </trkpt>
      <trkpt lat="46.428364310413599" lon="8.422564789652824">
        <ele>2079.1500000000001</ele>
        <time>2022-02-20T14:05:40Z</time>
      </trkpt>
      <trkpt lat="46.428302703425288" lon="8.422544253990054">
        <ele>2075.4099999999999</ele>
        <time>2022-02-20T14:05:49Z</time>
      </trkpt>
      <trkpt lat="46.428288454189897" lon="8.42253964394331">
        <ele>2074.6999999999998</ele>
        <time>2022-02-20T14:05:51Z</time>
      </trkpt>
      <trkpt lat="46.428235983476043" lon="8.422513827681541">
        <ele>2071.25</ele>
        <time>2022-02-20T14:06:01Z</time>
      </trkpt>
      <trkpt lat="46.428221482783556" lon="8.422498572617769">
        <ele>2069.8099999999999</ele>
        <time>2022-02-20T14:06:14Z</time>
      </trkpt>
      <trkpt lat="46.428191810846329" lon="8.42247661203146">
        <ele>2068.71</ele>
        <time>2022-02-20T14:06:26Z</time>
      </trkpt>
      <trkpt lat="46.428111428394914" lon="8.422443754971027">
        <ele>2065.5999999999999</ele>
        <time>2022-02-20T14:06:40Z</time>
      </trkpt>
      <trkpt lat="46.42803892493248" lon="8.422436797991395">
        <ele>2063.5100000000002</ele>
        <time>2022-02-20T14:06:50Z</time>
      </trkpt>
      <trkpt lat="46.427943203598261" lon="8.422477198764682">
        <ele>2060.25</ele>
        <time>2022-02-20T14:07:04Z</time>
      </trkpt>
      <trkpt lat="46.427901796996593" lon="8.422444090247154">
        <ele>2058.1900000000001</ele>
        <time>2022-02-20T14:07:15Z</time>
      </trkpt>
      <trkpt lat="46.427873801440001" lon="8.4225108101964">
        <ele>2057.4400000000001</ele>
        <time>2022-02-20T14:07:29Z</time>
      </trkpt>
      <trkpt lat="46.427868437021971" lon="8.422506367787719">
        <ele>2057.2600000000002</ele>
        <time>2022-02-20T14:07:30Z</time>
      </trkpt>
      <trkpt lat="46.427870532497764" lon="8.422383908182383">
        <ele>2055.3800000000001</ele>
        <time>2022-02-20T14:07:40Z</time>
      </trkpt>
      <trkpt lat="46.427866760641336" lon="8.42233001254499">
        <ele>2055.1300000000001</ele>
        <time>2022-02-20T14:07:53Z</time>
      </trkpt>
      <trkpt lat="46.427844045683742" lon="8.422291120514274">
        <ele>2054.6399999999999</ele>
        <time>2022-02-20T14:08:06Z</time>
      </trkpt>
      <trkpt lat="46.427802639082074" lon="8.422250803560019">
        <ele>2053.6300000000001</ele>
        <time>2022-02-20T14:08:19Z</time>
      </trkpt>
      <trkpt lat="46.427772045135498" lon="8.422296149656177">
        <ele>2052.8299999999999</ele>
        <time>2022-02-20T14:08:27Z</time>
      </trkpt>
      <trkpt lat="46.427728040143847" lon="8.422527322545648">
        <ele>2051.3200000000002</ele>
        <time>2022-02-20T14:08:43Z</time>
      </trkpt>
      <trkpt lat="46.427706331014633" lon="8.422636454924941">
        <ele>2051.1700000000001</ele>
        <time>2022-02-20T14:08:54Z</time>
      </trkpt>
      <trkpt lat="46.427694763988256" lon="8.422710131853819">
        <ele>2050.6700000000001</ele>
        <time>2022-02-20T14:09:07Z</time>
      </trkpt>
      <trkpt lat="46.427677581086755" lon="8.422863855957985">
        <ele>2049.48</ele>
        <time>2022-02-20T14:09:20Z</time>
      </trkpt>
      <trkpt lat="46.427683867514133" lon="8.422996457666159">
        <ele>2048.5</ele>
        <time>2022-02-20T14:09:30Z</time>
      </trkpt>
      <trkpt lat="46.427746647968888" lon="8.423224110156298">
        <ele>2046.3699999999999</ele>
        <time>2022-02-20T14:09:47Z</time>
      </trkpt>
      <trkpt lat="46.427767518907785" lon="8.423464084044099">
        <ele>2043.97</ele>
        <time>2022-02-20T14:10:04Z</time>
      </trkpt>
      <trkpt lat="46.427722172811627" lon="8.423549914732575">
        <ele>2043.1199999999999</ele>
        <time>2022-02-20T14:10:17Z</time>
      </trkpt>
      <trkpt lat="46.427704906091094" lon="8.423562319949269">
        <ele>2043.22</ele>
        <time>2022-02-20T14:10:21Z</time>
      </trkpt>
      <trkpt lat="46.427643047645688" lon="8.423546310514212">
        <ele>2041.7</ele>
        <time>2022-02-20T14:10:30Z</time>
      </trkpt>
      <trkpt lat="46.427631732076406" lon="8.42356919310987">
        <ele>2041.1500000000001</ele>
        <time>2022-02-20T14:10:32Z</time>
      </trkpt>
      <trkpt lat="46.427540117874742" lon="8.423604480922222">
        <ele>2037.8299999999999</ele>
        <time>2022-02-20T14:10:43Z</time>
      </trkpt>
      <trkpt lat="46.427532406523824" lon="8.423607079312205">
        <ele>2036.8</ele>
        <time>2022-02-20T14:10:57Z</time>
      </trkpt>
      <trkpt lat="46.42751513980329" lon="8.423612024635077">
        <ele>2036.5899999999999</ele>
        <time>2022-02-20T14:11:11Z</time>
      </trkpt>
      <trkpt lat="46.427437355741858" lon="8.423620825633407">
        <ele>2034.04</ele>
        <time>2022-02-20T14:11:24Z</time>
      </trkpt>
      <trkpt lat="46.427423860877752" lon="8.423621160909534">
        <ele>2033.55</ele>
        <time>2022-02-20T14:11:26Z</time>
      </trkpt>
      <trkpt lat="46.427335850894451" lon="8.423643708229065">
        <ele>2030.71</ele>
        <time>2022-02-20T14:11:39Z</time>
      </trkpt>
      <trkpt lat="46.427309531718493" lon="8.423654856160283">
        <ele>2030.22</ele>
        <time>2022-02-20T14:11:42Z</time>
      </trkpt>
      <trkpt lat="46.427222779020667" lon="8.423659130930901">
        <ele>2027.5799999999999</ele>
        <time>2022-02-20T14:11:53Z</time>
      </trkpt>
      <trkpt lat="46.427154634147882" lon="8.423614036291838">
        <ele>2026.0699999999999</ele>
        <time>2022-02-20T14:12:04Z</time>
      </trkpt>
      <trkpt lat="46.427137535065413" lon="8.4235779941082">
        <ele>2025.6600000000001</ele>
        <time>2022-02-20T14:12:17Z</time>
      </trkpt>
      <trkpt lat="46.427098643034697" lon="8.42353742569685">
        <ele>2023.3599999999999</ele>
        <time>2022-02-20T14:12:26Z</time>
      </trkpt>
      <trkpt lat="46.427067629992962" lon="8.423486966639757">
        <ele>2020.72</ele>
        <time>2022-02-20T14:12:37Z</time>
      </trkpt>
      <trkpt lat="46.427041394636035" lon="8.423419073224068">
        <ele>2017.9200000000001</ele>
        <time>2022-02-20T14:12:50Z</time>
      </trkpt>
      <trkpt lat="46.427017338573933" lon="8.42340893112123">
        <ele>2016.3099999999999</ele>
        <time>2022-02-20T14:13:00Z</time>
      </trkpt>
      <trkpt lat="46.427003340795636" lon="8.423437178134918">
        <ele>2014.3800000000001</ele>
        <time>2022-02-20T14:13:11Z</time>
      </trkpt>
      <trkpt lat="46.427002754062414" lon="8.423439525067806">
        <ele>2014.0599999999999</ele>
        <time>2022-02-20T14:13:27Z</time>
      </trkpt>
      <trkpt lat="46.427009962499142" lon="8.423437932506204">
        <ele>2013.3800000000001</ele>
        <time>2022-02-20T14:13:49Z</time>
      </trkpt>
      <trkpt lat="46.427010297775269" lon="8.423422845080495">
        <ele>2013.6900000000001</ele>
        <time>2022-02-20T14:14:05Z</time>
      </trkpt>
      <trkpt lat="46.427007196471095" lon="8.423436339944601">
        <ele>2013.46</ele>
        <time>2022-02-20T14:14:29Z</time>
      </trkpt>
      <trkpt lat="46.427005687728524" lon="8.423435920849443">
        <ele>2013.1800000000001</ele>
        <time>2022-02-20T14:14:49Z</time>
      </trkpt>
      <trkpt lat="46.427004765719175" lon="8.423433490097523">
        <ele>2012.8599999999999</ele>
        <time>2022-02-20T14:15:04Z</time>
      </trkpt>
      <trkpt lat="46.427007615566254" lon="8.423437094315887">
        <ele>2012.7</ele>
        <time>2022-02-20T14:15:28Z</time>
      </trkpt>
      <trkpt lat="46.427006945014" lon="8.42344019562006">
        <ele>2012.4300000000001</ele>
        <time>2022-02-20T14:15:47Z</time>
      </trkpt>
      <trkpt lat="46.427001748234034" lon="8.423424856737256">
        <ele>2012.1600000000001</ele>
        <time>2022-02-20T14:16:07Z</time>
      </trkpt>
      <trkpt lat="46.427006693556905" lon="8.423435753211379">
        <ele>2012.8299999999999</ele>
        <time>2022-02-20T14:16:28Z</time>
      </trkpt>
      <trkpt lat="46.42700501717627" lon="8.423445895314217">
        <ele>2012.71</ele>
        <time>2022-02-20T14:16:46Z</time>
      </trkpt>
      <trkpt lat="46.427005184814334" lon="8.42343726195395">
        <ele>2012.54</ele>
        <time>2022-02-20T14:17:07Z</time>
      </trkpt>
      <trkpt lat="46.427008034661412" lon="8.423438686877489">
        <ele>2013.04</ele>
        <time>2022-02-20T14:17:27Z</time>
      </trkpt>
      <trkpt lat="46.426999652758241" lon="8.423429466784">
        <ele>2012.8299999999999</ele>
        <time>2022-02-20T14:17:48Z</time>
      </trkpt>
      <trkpt lat="46.426997808739543" lon="8.423430807888508">
        <ele>2012.96</ele>
        <time>2022-02-20T14:18:11Z</time>
      </trkpt>
      <trkpt lat="46.427006861194968" lon="8.423435166478157">
        <ele>2012.6300000000001</ele>
        <time>2022-02-20T14:18:34Z</time>
      </trkpt>
      <trkpt lat="46.427011890336871" lon="8.423448326066136">
        <ele>2012.5899999999999</ele>
        <time>2022-02-20T14:18:50Z</time>
      </trkpt>
      <trkpt lat="46.427014572545886" lon="8.423442039638758">
        <ele>2012.1500000000001</ele>
        <time>2022-02-20T14:19:07Z</time>
      </trkpt>
      <trkpt lat="46.427012141793966" lon="8.423423347994685">
        <ele>2012.28</ele>
        <time>2022-02-20T14:19:16Z</time>
      </trkpt>
      <trkpt lat="46.427011471241713" lon="8.423435250297189">
        <ele>2012.03</ele>
        <time>2022-02-20T14:19:33Z</time>
      </trkpt>
      <trkpt lat="46.427011219784617" lon="8.423429466784">
        <ele>2011.73</ele>
        <time>2022-02-20T14:19:52Z</time>
      </trkpt>
      <trkpt lat="46.427012477070093" lon="8.423430640250444">
        <ele>2012.47</ele>
        <time>2022-02-20T14:20:07Z</time>
      </trkpt>
      <trkpt lat="46.427007950842381" lon="8.423435920849443">
        <ele>2012.4100000000001</ele>
        <time>2022-02-20T14:20:26Z</time>
      </trkpt>
      <trkpt lat="46.427001412957907" lon="8.42344899661839">
        <ele>2011.98</ele>
        <time>2022-02-20T14:20:43Z</time>
      </trkpt>
      <trkpt lat="46.426988001912832" lon="8.42350565828383">
        <ele>2010.4400000000001</ele>
        <time>2022-02-20T14:20:57Z</time>
      </trkpt>
      <trkpt lat="46.426959754899144" lon="8.423529965803027">
        <ele>2008.76</ele>
        <time>2022-02-20T14:21:10Z</time>
      </trkpt>
      <trkpt lat="46.426920024678111" lon="8.423492079600692">
        <ele>2006.6300000000001</ele>
        <time>2022-02-20T14:21:19Z</time>
      </trkpt>
      <trkpt lat="46.426885994151235" lon="8.423388730734587">
        <ele>2004.6800000000001</ele>
        <time>2022-02-20T14:21:31Z</time>
      </trkpt>
      <trkpt lat="46.426844671368599" lon="8.423410775139928">
        <ele>2002.49</ele>
        <time>2022-02-20T14:21:45Z</time>
      </trkpt>
      <trkpt lat="46.426815083250403" lon="8.42337473295629">
        <ele>2000.1400000000001</ele>
        <time>2022-02-20T14:21:57Z</time>
      </trkpt>
      <trkpt lat="46.42679538577795" lon="8.423319244757295">
        <ele>1998.1900000000001</ele>
        <time>2022-02-20T14:22:08Z</time>
      </trkpt>
      <trkpt lat="46.426789183169603" lon="8.423209860920906">
        <ele>1995.05</ele>
        <time>2022-02-20T14:22:19Z</time>
      </trkpt>
      <trkpt lat="46.426775772124529" lon="8.423061082139611">
        <ele>1991.99</ele>
        <time>2022-02-20T14:22:33Z</time>
      </trkpt>
      <trkpt lat="46.426769653335214" lon="8.422927055507898">
        <ele>1989.23</ele>
        <time>2022-02-20T14:22:47Z</time>
      </trkpt>
      <trkpt lat="46.426743166521192" lon="8.422919176518917">
        <ele>1987.4000000000001</ele>
        <time>2022-02-20T14:22:58Z</time>
      </trkpt>
      <trkpt lat="46.426701508462429" lon="8.422850025817752">
        <ele>1984.6500000000001</ele>
        <time>2022-02-20T14:23:11Z</time>
      </trkpt>
      <trkpt lat="46.426665969192982" lon="8.42277710326016">
        <ele>1981.55</ele>
        <time>2022-02-20T14:23:20Z</time>
      </trkpt>
      <trkpt lat="46.426634034141898" lon="8.422750867903233">
        <ele>1979.96</ele>
        <time>2022-02-20T14:23:25Z</time>
      </trkpt>
      <trkpt lat="46.426596650853753" lon="8.422598568722606">
        <ele>1977.74</ele>
        <time>2022-02-20T14:23:37Z</time>
      </trkpt>
      <trkpt lat="46.426597991958261" lon="8.42258214019239">
        <ele>1977.79</ele>
        <time>2022-02-20T14:23:43Z</time>
      </trkpt>
      <trkpt lat="46.426595309749246" lon="8.42242875136435">
        <ele>1976.5899999999999</ele>
        <time>2022-02-20T14:23:56Z</time>
      </trkpt>
      <trkpt lat="46.426589442417026" lon="8.422407964244485">
        <ele>1976.3900000000001</ele>
        <time>2022-02-20T14:23:58Z</time>
      </trkpt>
      <trkpt lat="46.426576115190983" lon="8.422304447740316">
        <ele>1975.96</ele>
        <time>2022-02-20T14:24:11Z</time>
      </trkpt>
      <trkpt lat="46.426590280607343" lon="8.422261029481888">
        <ele>1975.52</ele>
        <time>2022-02-20T14:24:14Z</time>
      </trkpt>
      <trkpt lat="46.426618862897158" lon="8.422212917357683">
        <ele>1975.05</ele>
        <time>2022-02-20T14:24:18Z</time>
      </trkpt>
      <trkpt lat="46.426701843738556" lon="8.422059277072549">
        <ele>1973.3699999999999</ele>
        <time>2022-02-20T14:24:32Z</time>
      </trkpt>
      <trkpt lat="46.426710477098823" lon="8.42205299064517">
        <ele>1973.51</ele>
        <time>2022-02-20T14:24:39Z</time>
      </trkpt>
      <trkpt lat="46.426735958084464" lon="8.421976463869214">
        <ele>1973.1300000000001</ele>
        <time>2022-02-20T14:24:44Z</time>
      </trkpt>
      <trkpt lat="46.42674651928246" lon="8.421937571838498">
        <ele>1972.48</ele>
        <time>2022-02-20T14:24:47Z</time>
      </trkpt>
      <trkpt lat="46.426750207319856" lon="8.421876216307282">
        <ele>1972.0599999999999</ele>
        <time>2022-02-20T14:24:55Z</time>
      </trkpt>
      <trkpt lat="46.426761271432042" lon="8.421796672046185">
        <ele>1971.22</ele>
        <time>2022-02-20T14:25:00Z</time>
      </trkpt>
      <trkpt lat="46.426755404099822" lon="8.421599194407463">
        <ele>1969.1900000000001</ele>
        <time>2022-02-20T14:25:15Z</time>
      </trkpt>
      <trkpt lat="46.426693629473448" lon="8.421599948778749">
        <ele>1967.2</ele>
        <time>2022-02-20T14:25:22Z</time>
      </trkpt>
      <trkpt lat="46.426640572026372" lon="8.421656526625156">
        <ele>1965.52</ele>
        <time>2022-02-20T14:25:28Z</time>
      </trkpt>
      <trkpt lat="46.426536049693823" lon="8.421780159696937">
        <ele>1962.25</ele>
        <time>2022-02-20T14:25:42Z</time>
      </trkpt>
      <trkpt lat="46.42645969055593" lon="8.421853249892592">
        <ele>1959.0799999999999</ele>
        <time>2022-02-20T14:25:52Z</time>
      </trkpt>
      <trkpt lat="46.426407974213362" lon="8.422001022845507">
        <ele>1957.25</ele>
        <time>2022-02-20T14:26:05Z</time>
      </trkpt>
      <trkpt lat="46.426372434943914" lon="8.422056846320629">
        <ele>1956.71</ele>
        <time>2022-02-20T14:26:14Z</time>
      </trkpt>
      <trkpt lat="46.426346451044083" lon="8.422099845483899">
        <ele>1956.53</ele>
        <time>2022-02-20T14:26:18Z</time>
      </trkpt>
      <trkpt lat="46.426313258707523" lon="8.42215365730226">
        <ele>1956.1500000000001</ele>
        <time>2022-02-20T14:26:26Z</time>
      </trkpt>
      <trkpt lat="46.426279060542583" lon="8.42221911996603">
        <ele>1955.71</ele>
        <time>2022-02-20T14:26:32Z</time>
      </trkpt>
      <trkpt lat="46.426246119663119" lon="8.422267232090235">
        <ele>1955.2</ele>
        <time>2022-02-20T14:26:36Z</time>
      </trkpt>
      <trkpt lat="46.426147799938917" lon="8.422472253441811">
        <ele>1953.29</ele>
        <time>2022-02-20T14:26:52Z</time>
      </trkpt>
      <trkpt lat="46.426077894866467" lon="8.422747431322932">
        <ele>1951.3499999999999</ele>
        <time>2022-02-20T14:27:10Z</time>
      </trkpt>
      <trkpt lat="46.426034979522228" lon="8.422927893698216">
        <ele>1949.8299999999999</ele>
        <time>2022-02-20T14:27:23Z</time>
      </trkpt>
      <trkpt lat="46.425982089713216" lon="8.422997044399381">
        <ele>1948.8499999999999</ele>
        <time>2022-02-20T14:27:30Z</time>
      </trkpt>
      <trkpt lat="46.425863234326243" lon="8.423021771013737">
        <ele>1947.6900000000001</ele>
        <time>2022-02-20T14:27:41Z</time>
      </trkpt>
      <trkpt lat="46.425740523263812" lon="8.422987991943955">
        <ele>1945.3699999999999</ele>
        <time>2022-02-20T14:27:54Z</time>
      </trkpt>
      <trkpt lat="46.425732308998704" lon="8.422956978902221">
        <ele>1944.8199999999999</ele>
        <time>2022-02-20T14:28:08Z</time>
      </trkpt>
      <trkpt lat="46.425660476088524" lon="8.422901574522257">
        <ele>1942.0899999999999</ele>
        <time>2022-02-20T14:28:22Z</time>
      </trkpt>
      <trkpt lat="46.425602221861482" lon="8.422882715240121">
        <ele>1939.98</ele>
        <time>2022-02-20T14:28:34Z</time>
      </trkpt>
      <trkpt lat="46.425532652065158" lon="8.422877099364996">
        <ele>1937.1300000000001</ele>
        <time>2022-02-20T14:28:46Z</time>
      </trkpt>
      <trkpt lat="46.425465261563659" lon="8.422832591459155">
        <ele>1934.1099999999999</ele>
        <time>2022-02-20T14:28:56Z</time>
      </trkpt>
      <trkpt lat="46.425393093377352" lon="8.42278053984046">
        <ele>1930.8800000000001</ele>
        <time>2022-02-20T14:29:06Z</time>
      </trkpt>
      <trkpt lat="46.425382532179356" lon="8.422768721356988">
        <ele>1930.3800000000001</ele>
        <time>2022-02-20T14:29:08Z</time>
      </trkpt>
      <trkpt lat="46.42533048056066" lon="8.422707365825772">
        <ele>1927.4400000000001</ele>
        <time>2022-02-20T14:29:15Z</time>
      </trkpt>
      <trkpt lat="46.425325451418757" lon="8.422685489058495">
        <ele>1926.48</ele>
        <time>2022-02-20T14:29:28Z</time>
      </trkpt>
      <trkpt lat="46.42531874589622" lon="8.422639220952988">
        <ele>1925.0799999999999</ele>
        <time>2022-02-20T14:29:44Z</time>
      </trkpt>
      <trkpt lat="46.425296869128942" lon="8.422615332528949">
        <ele>1924.5899999999999</ele>
        <time>2022-02-20T14:29:56Z</time>
      </trkpt>
      <trkpt lat="46.425294438377023" lon="8.422502595931292">
        <ele>1921.9400000000001</ele>
        <time>2022-02-20T14:30:08Z</time>
      </trkpt>
      <trkpt lat="46.425307346507907" lon="8.422359768301249">
        <ele>1919.4300000000001</ele>
        <time>2022-02-20T14:30:22Z</time>
      </trkpt>
      <trkpt lat="46.425299299880862" lon="8.422271758317947">
        <ele>1916.3499999999999</ele>
        <time>2022-02-20T14:30:35Z</time>
      </trkpt>
      <trkpt lat="46.425315560773015" lon="8.42218391597271">
        <ele>1913.6099999999999</ele>
        <time>2022-02-20T14:30:48Z</time>
      </trkpt>
      <trkpt lat="46.425267364829779" lon="8.422145778313279">
        <ele>1911.8299999999999</ele>
        <time>2022-02-20T14:30:59Z</time>
      </trkpt>
      <trkpt lat="46.425224952399731" lon="8.422099091112614">
        <ele>1910</ele>
        <time>2022-02-20T14:31:11Z</time>
      </trkpt>
      <trkpt lat="46.42522101290524" lon="8.422034215182066">
        <ele>1908.8800000000001</ele>
        <time>2022-02-20T14:31:22Z</time>
      </trkpt>
      <trkpt lat="46.425211541354656" lon="8.421963891014457">
        <ele>1906.9000000000001</ele>
        <time>2022-02-20T14:31:36Z</time>
      </trkpt>
      <trkpt lat="46.425217827782035" lon="8.421915275976062">
        <ele>1905.48</ele>
        <time>2022-02-20T14:31:48Z</time>
      </trkpt>
      <trkpt lat="46.425218833610415" lon="8.421882083639503">
        <ele>1904.6900000000001</ele>
        <time>2022-02-20T14:32:00Z</time>
      </trkpt>
      <trkpt lat="46.425187988206744" lon="8.421872360631824">
        <ele>1902.8499999999999</ele>
        <time>2022-02-20T14:32:14Z</time>
      </trkpt>
      <trkpt lat="46.425136607140303" lon="8.421859117224813">
        <ele>1901.05</ele>
        <time>2022-02-20T14:32:26Z</time>
      </trkpt>
      <trkpt lat="46.425110623240471" lon="8.421842772513628">
        <ele>1899.5</ele>
        <time>2022-02-20T14:32:37Z</time>
      </trkpt>
      <trkpt lat="46.42509251832962" lon="8.421830534934998">
        <ele>1898.5899999999999</ele>
        <time>2022-02-20T14:32:59Z</time>
      </trkpt>
      <trkpt lat="46.425080616027117" lon="8.421820644289255">
        <ele>1898.05</ele>
        <time>2022-02-20T14:33:01Z</time>
      </trkpt>
      <trkpt lat="46.425052033737302" lon="8.421708578243852">
        <ele>1894.3399999999999</ele>
        <time>2022-02-20T14:33:12Z</time>
      </trkpt>
      <trkpt lat="46.425030743703246" lon="8.421640014275909">
        <ele>1891.25</ele>
        <time>2022-02-20T14:33:21Z</time>
      </trkpt>
      <trkpt lat="46.425024624913931" lon="8.421628111973405">
        <ele>1891.1199999999999</ele>
        <time>2022-02-20T14:33:34Z</time>
      </trkpt>
      <trkpt lat="46.425024205818772" lon="8.421620400622487">
        <ele>1890.55</ele>
        <time>2022-02-20T14:33:51Z</time>
      </trkpt>
      <trkpt lat="46.424957988783717" lon="8.421609923243523">
        <ele>1888.52</ele>
        <time>2022-02-20T14:34:03Z</time>
      </trkpt>
      <trkpt lat="46.424901830032468" lon="8.421566421166062">
        <ele>1886.9400000000001</ele>
        <time>2022-02-20T14:34:12Z</time>
      </trkpt>
      <trkpt lat="46.42484282143414" lon="8.421549405902624">
        <ele>1885.1800000000001</ele>
        <time>2022-02-20T14:34:24Z</time>
      </trkpt>
      <trkpt lat="46.424771323800087" lon="8.421524846926332">
        <ele>1884.8</ele>
        <time>2022-02-20T14:34:35Z</time>
      </trkpt>
      <trkpt lat="46.42475388944149" lon="8.421532977372408">
        <ele>1884.6500000000001</ele>
        <time>2022-02-20T14:34:46Z</time>
      </trkpt>
      <trkpt lat="46.424737796187401" lon="8.421576814725995">
        <ele>1884.22</ele>
        <time>2022-02-20T14:34:59Z</time>
      </trkpt>
      <trkpt lat="46.424721451476216" lon="8.421585783362389">
        <ele>1884.2</ele>
        <time>2022-02-20T14:35:14Z</time>
      </trkpt>
      <trkpt lat="46.424709046259522" lon="8.421582598239183">
        <ele>1883.99</ele>
        <time>2022-02-20T14:35:27Z</time>
      </trkpt>
      <trkpt lat="46.424677865579724" lon="8.421589555218816">
        <ele>1883.79</ele>
        <time>2022-02-20T14:35:40Z</time>
      </trkpt>
      <trkpt lat="46.424654899165034" lon="8.421575054526329">
        <ele>1882.5699999999999</ele>
        <time>2022-02-20T14:35:49Z</time>
      </trkpt>
      <trkpt lat="46.424635201692581" lon="8.421607660129666">
        <ele>1881.46</ele>
        <time>2022-02-20T14:36:01Z</time>
      </trkpt>
      <trkpt lat="46.42461022362113" lon="8.421658370643854">
        <ele>1880.6800000000001</ele>
        <time>2022-02-20T14:36:11Z</time>
      </trkpt>
      <trkpt lat="46.424597818404436" lon="8.421673374250531">
        <ele>1879.8399999999999</ele>
        <time>2022-02-20T14:36:25Z</time>
      </trkpt>
      <trkpt lat="46.424565212801099" lon="8.421695334836841">
        <ele>1878.0699999999999</ele>
        <time>2022-02-20T14:36:40Z</time>
      </trkpt>
      <trkpt lat="46.424529002979398" lon="8.421718385070562">
        <ele>1876.8499999999999</ele>
        <time>2022-02-20T14:36:54Z</time>
      </trkpt>
      <trkpt lat="46.424508634954691" lon="8.421728694811463">
        <ele>1876.3399999999999</ele>
        <time>2022-02-20T14:37:06Z</time>
      </trkpt>
      <trkpt lat="46.42446069046855" lon="8.421695251017809">
        <ele>1874.25</ele>
        <time>2022-02-20T14:37:18Z</time>
      </trkpt>
      <trkpt lat="46.424415847286582" lon="8.421718971803784">
        <ele>1872.8800000000001</ele>
        <time>2022-02-20T14:37:28Z</time>
      </trkpt>
      <trkpt lat="46.424362119287252" lon="8.42169675976038">
        <ele>1871.4100000000001</ele>
        <time>2022-02-20T14:37:33Z</time>
      </trkpt>
      <trkpt lat="46.424236977472901" lon="8.42157606035471">
        <ele>1867.6400000000001</ele>
        <time>2022-02-20T14:37:45Z</time>
      </trkpt>
      <trkpt lat="46.424207724630833" lon="8.421541107818484">
        <ele>1865.96</ele>
        <time>2022-02-20T14:37:58Z</time>
      </trkpt>
      <trkpt lat="46.424208730459213" lon="8.421539347618818">
        <ele>1866.5</ele>
        <time>2022-02-20T14:38:13Z</time>
      </trkpt>
      <trkpt lat="46.424211580306292" lon="8.421532055363059">
        <ele>1866.6400000000001</ele>
        <time>2022-02-20T14:38:37Z</time>
      </trkpt>
      <trkpt lat="46.424210909754038" lon="8.421463575214148">
        <ele>1865.6199999999999</ele>
        <time>2022-02-20T14:38:57Z</time>
      </trkpt>
      <trkpt lat="46.424197079613805" lon="8.42143926769495">
        <ele>1864.6500000000001</ele>
        <time>2022-02-20T14:39:07Z</time>
      </trkpt>
      <trkpt lat="46.424177633598447" lon="8.421426191926003">
        <ele>1863.47</ele>
        <time>2022-02-20T14:39:20Z</time>
      </trkpt>
      <trkpt lat="46.424151984974742" lon="8.421434825286269">
        <ele>1862.99</ele>
        <time>2022-02-20T14:39:34Z</time>
      </trkpt>
      <trkpt lat="46.424136981368065" lon="8.421428706496954">
        <ele>1862.48</ele>
        <time>2022-02-20T14:39:45Z</time>
      </trkpt>
      <trkpt lat="46.4241230674088" lon="8.421373050659895">
        <ele>1860.3599999999999</ele>
        <time>2022-02-20T14:39:50Z</time>
      </trkpt>
      <trkpt lat="46.424116948619485" lon="8.421345725655556">
        <ele>1860.1300000000001</ele>
        <time>2022-02-20T14:40:06Z</time>
      </trkpt>
      <trkpt lat="46.424118289723992" lon="8.421337762847543">
        <ele>1859.79</ele>
        <time>2022-02-20T14:40:07Z</time>
      </trkpt>
      <trkpt lat="46.42409129999578" lon="8.421247657388449">
        <ele>1856.4400000000001</ele>
        <time>2022-02-20T14:40:16Z</time>
      </trkpt>
      <trkpt lat="46.424075542017817" lon="8.421208513900638">
        <ele>1855.1400000000001</ele>
        <time>2022-02-20T14:40:27Z</time>
      </trkpt>
      <trkpt lat="46.424109153449535" lon="8.421169202774763">
        <ele>1854.3299999999999</ele>
        <time>2022-02-20T14:40:42Z</time>
      </trkpt>
      <trkpt lat="46.424127761274576" lon="8.421127544716001">
        <ele>1852.6099999999999</ele>
        <time>2022-02-20T14:40:55Z</time>
      </trkpt>
      <trkpt lat="46.424100520089269" lon="8.4211172349751">
        <ele>1851.3399999999999</ele>
        <time>2022-02-20T14:41:07Z</time>
      </trkpt>
      <trkpt lat="46.424070261418819" lon="8.42105520889163">
        <ele>1849.04</ele>
        <time>2022-02-20T14:41:17Z</time>
      </trkpt>
      <trkpt lat="46.424066238105297" lon="8.421047497540712">
        <ele>1848.7</ele>
        <time>2022-02-20T14:41:18Z</time>
      </trkpt>
      <trkpt lat="46.424017706885934" lon="8.420991422608495">
        <ele>1845.01</ele>
        <time>2022-02-20T14:41:29Z</time>
      </trkpt>
      <trkpt lat="46.423978731036186" lon="8.420959487557411">
        <ele>1842.4000000000001</ele>
        <time>2022-02-20T14:41:36Z</time>
      </trkpt>
      <trkpt lat="46.423950903117657" lon="8.42090223915875">
        <ele>1840.3499999999999</ele>
        <time>2022-02-20T14:41:46Z</time>
      </trkpt>
      <trkpt lat="46.423945287242532" lon="8.420914728194475">
        <ele>1840.2</ele>
        <time>2022-02-20T14:42:02Z</time>
      </trkpt>
      <trkpt lat="46.423950903117657" lon="8.420929731801152">
        <ele>1840.3599999999999</ele>
        <time>2022-02-20T14:42:25Z</time>
      </trkpt>
      <trkpt lat="46.423945454880595" lon="8.420937694609165">
        <ele>1840.1400000000001</ele>
        <time>2022-02-20T14:42:26Z</time>
      </trkpt>
      <trkpt lat="46.423894744366407" lon="8.420964684337378">
        <ele>1839.9100000000001</ele>
        <time>2022-02-20T14:42:39Z</time>
      </trkpt>
      <trkpt lat="46.42385576851666" lon="8.420999469235539">
        <ele>1838.6800000000001</ele>
        <time>2022-02-20T14:42:47Z</time>
      </trkpt>
      <trkpt lat="46.423753928393126" lon="8.420955715700984">
        <ele>1837.6900000000001</ele>
        <time>2022-02-20T14:42:59Z</time>
      </trkpt>
      <trkpt lat="46.423703972250223" lon="8.420943645760417">
        <ele>1837.6900000000001</ele>
        <time>2022-02-20T14:43:10Z</time>
      </trkpt>
      <trkpt lat="46.423692740499973" lon="8.420940544456244">
        <ele>1837.53</ele>
        <time>2022-02-20T14:43:23Z</time>
      </trkpt>
      <trkpt lat="46.423665247857571" lon="8.420941382646561">
        <ele>1836.95</ele>
        <time>2022-02-20T14:43:35Z</time>
      </trkpt>
      <trkpt lat="46.423616297543049" lon="8.420972814783454">
        <ele>1835.1300000000001</ele>
        <time>2022-02-20T14:43:50Z</time>
      </trkpt>
      <trkpt lat="46.423570448532701" lon="8.420957811176777">
        <ele>1833.23</ele>
        <time>2022-02-20T14:44:00Z</time>
      </trkpt>
      <trkpt lat="46.42355527728796" lon="8.420952362939715">
        <ele>1832.8199999999999</ele>
        <time>2022-02-20T14:44:14Z</time>
      </trkpt>
      <trkpt lat="46.42354354262352" lon="8.420942975208163">
        <ele>1832.8699999999999</ele>
        <time>2022-02-20T14:44:38Z</time>
      </trkpt>
      <trkpt lat="46.423539267852902" lon="8.420944064855576">
        <ele>1832.8599999999999</ele>
        <time>2022-02-20T14:45:05Z</time>
      </trkpt>
      <trkpt lat="46.42353180795908" lon="8.420950854197145">
        <ele>1832.71</ele>
        <time>2022-02-20T14:45:20Z</time>
      </trkpt>
      <trkpt lat="46.423480678349733" lon="8.420930318534374">
        <ele>1831.3599999999999</ele>
        <time>2022-02-20T14:45:25Z</time>
      </trkpt>
      <trkpt lat="46.423376491293311" lon="8.420944735407829">
        <ele>1831.3800000000001</ele>
        <time>2022-02-20T14:45:38Z</time>
      </trkpt>
      <trkpt lat="46.423300635069609" lon="8.420985052362084">
        <ele>1828.28</ele>
        <time>2022-02-20T14:45:47Z</time>
      </trkpt>
      <trkpt lat="46.423251181840897" lon="8.42100684531033">
        <ele>1826.1099999999999</ele>
        <time>2022-02-20T14:45:52Z</time>
      </trkpt>
      <trkpt lat="46.423185216262937" lon="8.421025956049562">
        <ele>1823.79</ele>
        <time>2022-02-20T14:45:59Z</time>
      </trkpt>
      <trkpt lat="46.423166608437896" lon="8.421004666015506">
        <ele>1822.8699999999999</ele>
        <time>2022-02-20T14:46:02Z</time>
      </trkpt>
      <trkpt lat="46.423229891806841" lon="8.420842392370105">
        <ele>1819.75</ele>
        <time>2022-02-20T14:46:15Z</time>
      </trkpt>
      <trkpt lat="46.423250762745738" lon="8.420778606086969">
        <ele>1818.03</ele>
        <time>2022-02-20T14:46:26Z</time>
      </trkpt>
      <trkpt lat="46.423279512673616" lon="8.420709120109677">
        <ele>1817.2</ele>
        <time>2022-02-20T14:46:37Z</time>
      </trkpt>
      <trkpt lat="46.423313794657588" lon="8.420685483142734">
        <ele>1815.46</ele>
        <time>2022-02-20T14:46:49Z</time>
      </trkpt>
      <trkpt lat="46.423372635617852" lon="8.420668048784137">
        <ele>1814.8800000000001</ele>
        <time>2022-02-20T14:46:59Z</time>
      </trkpt>
      <trkpt lat="46.423334330320358" lon="8.420639466494322">
        <ele>1813.3499999999999</ele>
        <time>2022-02-20T14:47:12Z</time>
      </trkpt>
      <trkpt lat="46.423308346420527" lon="8.420550534501672">
        <ele>1809.9000000000001</ele>
        <time>2022-02-20T14:47:24Z</time>
      </trkpt>
      <trkpt lat="46.423305161297321" lon="8.420535698533058">
        <ele>1809.3299999999999</ele>
        <time>2022-02-20T14:47:26Z</time>
      </trkpt>
      <trkpt lat="46.423289235681295" lon="8.420440312474966">
        <ele>1805.46</ele>
        <time>2022-02-20T14:47:35Z</time>
      </trkpt>
      <trkpt lat="46.42328848131001" lon="8.420428242534399">
        <ele>1805.0799999999999</ele>
        <time>2022-02-20T14:47:36Z</time>
      </trkpt>
      <trkpt lat="46.423287559300661" lon="8.420352134853602">
        <ele>1802.23</ele>
        <time>2022-02-20T14:47:47Z</time>
      </trkpt>
      <trkpt lat="46.423267778009176" lon="8.420343501493335">
        <ele>1801.3699999999999</ele>
        <time>2022-02-20T14:47:58Z</time>
      </trkpt>
      <trkpt lat="46.423251014202833" lon="8.420332102105022">
        <ele>1801.0599999999999</ele>
        <time>2022-02-20T14:48:00Z</time>
      </trkpt>
      <trkpt lat="46.423192676156759" lon="8.420302178710699">
        <ele>1798.77</ele>
        <time>2022-02-20T14:48:07Z</time>
      </trkpt>
      <trkpt lat="46.42308228649199" lon="8.420287510380149">
        <ele>1795.6199999999999</ele>
        <time>2022-02-20T14:48:18Z</time>
      </trkpt>
      <trkpt lat="46.423021350055933" lon="8.420259263366461">
        <ele>1792.5799999999999</ele>
        <time>2022-02-20T14:48:26Z</time>
      </trkpt>
      <trkpt lat="46.422954713925719" lon="8.420205619186163">
        <ele>1789.6900000000001</ele>
        <time>2022-02-20T14:48:36Z</time>
      </trkpt>
      <trkpt lat="46.42287366092205" lon="8.420126494020224">
        <ele>1787.1300000000001</ele>
        <time>2022-02-20T14:48:48Z</time>
      </trkpt>
      <trkpt lat="46.42284139059484" lon="8.420084416866303">
        <ele>1787.3599999999999</ele>
        <time>2022-02-20T14:49:00Z</time>
      </trkpt>
      <trkpt lat="46.422824962064624" lon="8.420072766020894">
        <ele>1785.6099999999999</ele>
        <time>2022-02-20T14:49:07Z</time>
      </trkpt>
      <trkpt lat="46.422768887132406" lon="8.419999843463302">
        <ele>1784.1400000000001</ele>
        <time>2022-02-20T14:49:18Z</time>
      </trkpt>
      <trkpt lat="46.422798642888665" lon="8.420007806271315">
        <ele>1784.04</ele>
        <time>2022-02-20T14:49:35Z</time>
      </trkpt>
      <trkpt lat="46.422794368118048" lon="8.420002441853285">
        <ele>1784.3699999999999</ele>
        <time>2022-02-20T14:49:57Z</time>
      </trkpt>
      <trkpt lat="46.422791350632906" lon="8.419996993616223">
        <ele>1784.3800000000001</ele>
        <time>2022-02-20T14:50:12Z</time>
      </trkpt>
      <trkpt lat="46.422790260985494" lon="8.420001771301031">
        <ele>1784.77</ele>
        <time>2022-02-20T14:50:33Z</time>
      </trkpt>
      <trkpt lat="46.422794200479984" lon="8.419988611713052">
        <ele>1784.01</ele>
        <time>2022-02-20T14:50:54Z</time>
      </trkpt>
      <trkpt lat="46.422820519655943" lon="8.419972350820899">
        <ele>1783.4200000000001</ele>
        <time>2022-02-20T14:51:05Z</time>
      </trkpt>
      <trkpt lat="46.422838708385825" lon="8.41994209215045">
        <ele>1781.25</ele>
        <time>2022-02-20T14:51:16Z</time>
      </trkpt>
      <trkpt lat="46.422781543806195" lon="8.419923232868314">
        <ele>1779.1700000000001</ele>
        <time>2022-02-20T14:51:28Z</time>
      </trkpt>
      <trkpt lat="46.422764612361789" lon="8.419924406334758">
        <ele>1778.1900000000001</ele>
        <time>2022-02-20T14:51:39Z</time>
      </trkpt>
      <trkpt lat="46.422749776393175" lon="8.419918874278665">
        <ele>1777.96</ele>
        <time>2022-02-20T14:51:56Z</time>
      </trkpt>
      <trkpt lat="46.422690516337752" lon="8.41992893256247">
        <ele>1776.3800000000001</ele>
        <time>2022-02-20T14:52:06Z</time>
      </trkpt>
      <trkpt lat="46.422655647620559" lon="8.419890543445945">
        <ele>1773.8599999999999</ele>
        <time>2022-02-20T14:52:18Z</time>
      </trkpt>
      <trkpt lat="46.422619856894016" lon="8.419848550111055">
        <ele>1772.25</ele>
        <time>2022-02-20T14:52:28Z</time>
      </trkpt>
      <trkpt lat="46.422615917399526" lon="8.419839832931757">
        <ele>1772.25</ele>
        <time>2022-02-20T14:52:29Z</time>
      </trkpt>
      <trkpt lat="46.422587083652616" lon="8.419785769656301">
        <ele>1770.4100000000001</ele>
        <time>2022-02-20T14:52:34Z</time>
      </trkpt>
      <trkpt lat="46.422544419765472" lon="8.419682504609227">
        <ele>1766.0699999999999</ele>
        <time>2022-02-20T14:52:43Z</time>
      </trkpt>
      <trkpt lat="46.422517597675323" lon="8.419659454375505">
        <ele>1765.1700000000001</ele>
        <time>2022-02-20T14:52:52Z</time>
      </trkpt>
      <trkpt lat="46.422431850805879" lon="8.419602792710066">
        <ele>1762.9100000000001</ele>
        <time>2022-02-20T14:53:05Z</time>
      </trkpt>
      <trkpt lat="46.422344427555799" lon="8.419530624523759">
        <ele>1760.9200000000001</ele>
        <time>2022-02-20T14:53:17Z</time>
      </trkpt>
      <trkpt lat="46.422275360673666" lon="8.419498270377517">
        <ele>1759.71</ele>
        <time>2022-02-20T14:53:30Z</time>
      </trkpt>
      <trkpt lat="46.422186093404889" lon="8.419392323121429">
        <ele>1756.7</ele>
        <time>2022-02-20T14:53:42Z</time>
      </trkpt>
      <trkpt lat="46.422082409262657" lon="8.419275227934122">
        <ele>1753.6900000000001</ele>
        <time>2022-02-20T14:53:54Z</time>
      </trkpt>
      <trkpt lat="46.421987190842628" lon="8.419093592092395">
        <ele>1750.54</ele>
        <time>2022-02-20T14:54:08Z</time>
      </trkpt>
      <trkpt lat="46.421926086768508" lon="8.418915057554841">
        <ele>1747.1800000000001</ele>
        <time>2022-02-20T14:54:20Z</time>
      </trkpt>
      <trkpt lat="46.421907898038626" lon="8.418781785294414">
        <ele>1744.1600000000001</ele>
        <time>2022-02-20T14:54:28Z</time>
      </trkpt>
      <trkpt lat="46.421859869733453" lon="8.418642478063703">
        <ele>1742.9300000000001</ele>
        <time>2022-02-20T14:54:40Z</time>
      </trkpt>
      <trkpt lat="46.421778732910752" lon="8.418577685952187">
        <ele>1742.46</ele>
        <time>2022-02-20T14:54:53Z</time>
      </trkpt>
      <trkpt lat="46.421779068186879" lon="8.418582379817963">
        <ele>1742.7</ele>
        <time>2022-02-20T14:55:04Z</time>
      </trkpt>
      <trkpt lat="46.421778313815594" lon="8.41858615167439">
        <ele>1742.0799999999999</ele>
        <time>2022-02-20T14:55:16Z</time>
      </trkpt>
      <trkpt lat="46.421783678233624" lon="8.418589504435659">
        <ele>1742.8499999999999</ele>
        <time>2022-02-20T14:55:32Z</time>
      </trkpt>
      <trkpt lat="46.421773368492723" lon="8.418583553284407">
        <ele>1741.6400000000001</ele>
        <time>2022-02-20T14:55:45Z</time>
      </trkpt>
      <trkpt lat="46.421788288280368" lon="8.418588414788246">
        <ele>1740.8199999999999</ele>
        <time>2022-02-20T14:56:05Z</time>
      </trkpt>
      <trkpt lat="46.421793568879366" lon="8.418567543849349">
        <ele>1742.6099999999999</ele>
        <time>2022-02-20T14:56:23Z</time>
      </trkpt>
      <trkpt lat="46.421778649091721" lon="8.418573830276728">
        <ele>1742.78</ele>
        <time>2022-02-20T14:56:37Z</time>
      </trkpt>
      <trkpt lat="46.421773787587881" lon="8.418576931580901">
        <ele>1742.6800000000001</ele>
        <time>2022-02-20T14:56:54Z</time>
      </trkpt>
      <trkpt lat="46.421784600242972" lon="8.418571148067713">
        <ele>1742.6199999999999</ele>
        <time>2022-02-20T14:57:09Z</time>
      </trkpt>
      <trkpt lat="46.421799184754491" lon="8.418576093390584">
        <ele>1742.79</ele>
        <time>2022-02-20T14:57:21Z</time>
      </trkpt>
      <trkpt lat="46.421799520030618" lon="8.418572656810284">
        <ele>1743.3900000000001</ele>
        <time>2022-02-20T14:57:46Z</time>
      </trkpt>
      <trkpt lat="46.421794155612588" lon="8.418572740629315">
        <ele>1742.8699999999999</ele>
        <time>2022-02-20T14:58:02Z</time>
      </trkpt>
      <trkpt lat="46.421791641041636" lon="8.418574500828981">
        <ele>1742.55</ele>
        <time>2022-02-20T14:58:27Z</time>
      </trkpt>
      <trkpt lat="46.421769093722105" lon="8.41854658909142">
        <ele>1743.21</ele>
        <time>2022-02-20T14:58:43Z</time>
      </trkpt>
      <trkpt lat="46.421727519482374" lon="8.418506355956197">
        <ele>1743.28</ele>
        <time>2022-02-20T14:58:47Z</time>
      </trkpt>
      <trkpt lat="46.42155191861093" lon="8.418348524719477">
        <ele>1741.5</ele>
        <time>2022-02-20T14:59:05Z</time>
      </trkpt>
      <trkpt lat="46.421364583075047" lon="8.418206702917814">
        <ele>1740.8399999999999</ele>
        <time>2022-02-20T14:59:23Z</time>
      </trkpt>
      <trkpt lat="46.421204153448343" lon="8.418097067624331">
        <ele>1740.6900000000001</ele>
        <time>2022-02-20T14:59:38Z</time>
      </trkpt>
      <trkpt lat="46.421193089336157" lon="8.418051637709141">
        <ele>1740.6199999999999</ele>
        <time>2022-02-20T14:59:42Z</time>
      </trkpt>
      <trkpt lat="46.421191161498427" lon="8.418018613010645">
        <ele>1740.72</ele>
        <time>2022-02-20T14:59:44Z</time>
      </trkpt>
      <trkpt lat="46.421151682734489" lon="8.417723150923848">
        <ele>1740.51</ele>
        <time>2022-02-20T15:00:03Z</time>
      </trkpt>
      <trkpt lat="46.421110695227981" lon="8.417583256959915">
        <ele>1740.49</ele>
        <time>2022-02-20T15:00:13Z</time>
      </trkpt>
      <trkpt lat="46.42106962390244" lon="8.417558697983623">
        <ele>1740.6099999999999</ele>
        <time>2022-02-20T15:00:17Z</time>
      </trkpt>
      <trkpt lat="46.420944901183248" lon="8.417395753785968">
        <ele>1739.8299999999999</ele>
        <time>2022-02-20T15:00:31Z</time>
      </trkpt>
      <trkpt lat="46.420810455456376" lon="8.417234737426043">
        <ele>1739.6700000000001</ele>
        <time>2022-02-20T15:00:45Z</time>
      </trkpt>
      <trkpt lat="46.42063326202333" lon="8.417106159031391">
        <ele>1739.51</ele>
        <time>2022-02-20T15:01:01Z</time>
      </trkpt>
      <trkpt lat="46.420560255646706" lon="8.417051341384649">
        <ele>1739.3599999999999</ele>
        <time>2022-02-20T15:01:13Z</time>
      </trkpt>
      <trkpt lat="46.420517675578594" lon="8.417031476274133">
        <ele>1739.3599999999999</ele>
        <time>2022-02-20T15:01:17Z</time>
      </trkpt>
      <trkpt lat="46.420403094962239" lon="8.417021669447422">
        <ele>1738.72</ele>
        <time>2022-02-20T15:01:29Z</time>
      </trkpt>
      <trkpt lat="46.420328160747886" lon="8.417062405496836">
        <ele>1738.96</ele>
        <time>2022-02-20T15:01:41Z</time>
      </trkpt>
      <trkpt lat="46.420291364192963" lon="8.417065255343914">
        <ele>1738.8599999999999</ele>
        <time>2022-02-20T15:01:57Z</time>
      </trkpt>
      <trkpt lat="46.420270996168256" lon="8.417061902582645">
        <ele>1738.99</ele>
        <time>2022-02-20T15:01:59Z</time>
      </trkpt>
      <trkpt lat="46.420211736112833" lon="8.417025776579976">
        <ele>1739.3399999999999</ele>
        <time>2022-02-20T15:02:13Z</time>
      </trkpt>
      <trkpt lat="46.420203186571598" lon="8.416997278109193">
        <ele>1739.23</ele>
        <time>2022-02-20T15:02:16Z</time>
      </trkpt>
      <trkpt lat="46.420150799676776" lon="8.416874650865793">
        <ele>1739.1199999999999</ele>
        <time>2022-02-20T15:02:26Z</time>
      </trkpt>
      <trkpt lat="46.420084247365594" lon="8.416887307539582">
        <ele>1738.8299999999999</ele>
        <time>2022-02-20T15:02:32Z</time>
      </trkpt>
      <trkpt lat="46.420011827722192" lon="8.416860569268465">
        <ele>1738.75</ele>
        <time>2022-02-20T15:02:39Z</time>
      </trkpt>
      <trkpt lat="46.419971762225032" lon="8.416878506541252">
        <ele>1738.8099999999999</ele>
        <time>2022-02-20T15:02:43Z</time>
      </trkpt>
      <trkpt lat="46.419900180771947" lon="8.416896527633071">
        <ele>1738.55</ele>
        <time>2022-02-20T15:02:52Z</time>
      </trkpt>
      <trkpt lat="46.419836981222034" lon="8.416874315589666">
        <ele>1738.74</ele>
        <time>2022-02-20T15:03:00Z</time>
      </trkpt>
      <trkpt lat="46.41979867592454" lon="8.416836597025394">
        <ele>1738.6099999999999</ele>
        <time>2022-02-20T15:03:05Z</time>
      </trkpt>
      <trkpt lat="46.419774452224374" lon="8.416784629225731">
        <ele>1738.74</ele>
        <time>2022-02-20T15:03:09Z</time>
      </trkpt>
      <trkpt lat="46.419704128056765" lon="8.416558736935258">
        <ele>1739.3099999999999</ele>
        <time>2022-02-20T15:03:25Z</time>
      </trkpt>
      <trkpt lat="46.419577393680811" lon="8.416574914008379">
        <ele>1738.72</ele>
        <time>2022-02-20T15:03:42Z</time>
      </trkpt>
      <trkpt lat="46.419571693986654" lon="8.416552450507879">
        <ele>1738.74</ele>
        <time>2022-02-20T15:03:49Z</time>
      </trkpt>
      <trkpt lat="46.419486114755273" lon="8.416514899581671">
        <ele>1738.5999999999999</ele>
        <time>2022-02-20T15:04:01Z</time>
      </trkpt>
      <trkpt lat="46.419465076178312" lon="8.416514899581671">
        <ele>1738.6800000000001</ele>
        <time>2022-02-20T15:04:03Z</time>
      </trkpt>
      <trkpt lat="46.41932082362473" lon="8.416479360312223">
        <ele>1738.54</ele>
        <time>2022-02-20T15:04:17Z</time>
      </trkpt>
      <trkpt lat="46.419302802532911" lon="8.41646988876164">
        <ele>1738.72</ele>
        <time>2022-02-20T15:04:23Z</time>
      </trkpt>
      <trkpt lat="46.419225186109543" lon="8.416463350877166">
        <ele>1738.6099999999999</ele>
        <time>2022-02-20T15:04:30Z</time>
      </trkpt>
      <trkpt lat="46.418976159766316" lon="8.416475001722574">
        <ele>1738.72</ele>
        <time>2022-02-20T15:04:50Z</time>
      </trkpt>
      <trkpt lat="46.418763007968664" lon="8.41651389375329">
        <ele>1739.1099999999999</ele>
        <time>2022-02-20T15:05:07Z</time>
      </trkpt>
      <trkpt lat="46.418542061001062" lon="8.416503416374326">
        <ele>1739.01</ele>
        <time>2022-02-20T15:05:25Z</time>
      </trkpt>
      <trkpt lat="46.418377356603742" lon="8.416466368362308">
        <ele>1738.96</ele>
        <time>2022-02-20T15:05:38Z</time>
      </trkpt>
      <trkpt lat="46.418152051046491" lon="8.416400067508221">
        <ele>1737.3800000000001</ele>
        <time>2022-02-20T15:05:56Z</time>
      </trkpt>
      <trkpt lat="46.417957674711943" lon="8.416358241811395">
        <ele>1736.23</ele>
        <time>2022-02-20T15:06:12Z</time>
      </trkpt>
      <trkpt lat="46.417769165709615" lon="8.416282720863819">
        <ele>1735.5</ele>
        <time>2022-02-20T15:06:28Z</time>
      </trkpt>
      <trkpt lat="46.417623488232493" lon="8.416220527142286">
        <ele>1735.6400000000001</ele>
        <time>2022-02-20T15:06:42Z</time>
      </trkpt>
      <trkpt lat="46.417458951473236" lon="8.416155902668834">
        <ele>1734.55</ele>
        <time>2022-02-20T15:06:56Z</time>
      </trkpt>
      <trkpt lat="46.417326098307967" lon="8.416068647056818">
        <ele>1734.49</ele>
        <time>2022-02-20T15:07:08Z</time>
      </trkpt>
      <trkpt lat="46.417136332020164" lon="8.415937218815088">
        <ele>1735.03</ele>
        <time>2022-02-20T15:07:25Z</time>
      </trkpt>
      <trkpt lat="46.416978416964412" lon="8.415766814723611">
        <ele>1735.4000000000001</ele>
        <time>2022-02-20T15:07:42Z</time>
      </trkpt>
      <trkpt lat="46.41680927015841" lon="8.415540084242821">
        <ele>1735.8</ele>
        <time>2022-02-20T15:08:00Z</time>
      </trkpt>
      <trkpt lat="46.41667096875608" lon="8.415360124781728">
        <ele>1736.27</ele>
        <time>2022-02-20T15:08:15Z</time>
      </trkpt>
      <trkpt lat="46.416514310985804" lon="8.41517748311162">
        <ele>1736.6099999999999</ele>
        <time>2022-02-20T15:08:31Z</time>
      </trkpt>
      <trkpt lat="46.416363772004843" lon="8.415082516148686">
        <ele>1736.5999999999999</ele>
        <time>2022-02-20T15:08:45Z</time>
      </trkpt>
      <trkpt lat="46.416262770071626" lon="8.415025183930993">
        <ele>1736.8299999999999</ele>
        <time>2022-02-20T15:08:56Z</time>
      </trkpt>
      <trkpt lat="46.416208287701011" lon="8.415066255256534">
        <ele>1736.8199999999999</ele>
        <time>2022-02-20T15:09:03Z</time>
      </trkpt>
      <trkpt lat="46.416171574965119" lon="8.415033984929323">
        <ele>1736.5999999999999</ele>
        <time>2022-02-20T15:09:16Z</time>
      </trkpt>
      <trkpt lat="46.416177358478308" lon="8.415033649653196">
        <ele>1736.8599999999999</ele>
        <time>2022-02-20T15:09:31Z</time>
      </trkpt>
      <trkpt lat="46.416176687926054" lon="8.41503138653934">
        <ele>1736.6099999999999</ele>
        <time>2022-02-20T15:09:42Z</time>
      </trkpt>
      <trkpt lat="46.416180627420545" lon="8.415025100111961">
        <ele>1735.55</ele>
        <time>2022-02-20T15:09:55Z</time>
      </trkpt>
      <trkpt lat="46.41616185195744" lon="8.415040271356702">
        <ele>1735.9000000000001</ele>
        <time>2022-02-20T15:10:16Z</time>
      </trkpt>
      <trkpt lat="46.416174843907356" lon="8.41503188945353">
        <ele>1735.8199999999999</ele>
        <time>2022-02-20T15:10:33Z</time>
      </trkpt>
      <trkpt lat="46.416188338771462" lon="8.415000708773732">
        <ele>1735.72</ele>
        <time>2022-02-20T15:11:00Z</time>
      </trkpt>
      <trkpt lat="46.416168557479978" lon="8.415028536692262">
        <ele>1735.8</ele>
        <time>2022-02-20T15:11:31Z</time>
      </trkpt>
      <trkpt lat="46.416161181405187" lon="8.415046557784081">
        <ele>1735.5799999999999</ele>
        <time>2022-02-20T15:11:59Z</time>
      </trkpt>
      <trkpt lat="46.416169395670295" lon="8.415037924423814">
        <ele>1735.71</ele>
        <time>2022-02-20T15:12:28Z</time>
      </trkpt>
      <trkpt lat="46.416175849735737" lon="8.415019903331995">
        <ele>1735.79</ele>
        <time>2022-02-20T15:13:00Z</time>
      </trkpt>
      <trkpt lat="46.416171910241246" lon="8.415011605247855">
        <ele>1735.3900000000001</ele>
        <time>2022-02-20T15:13:30Z</time>
      </trkpt>
      <trkpt lat="46.416176436468959" lon="8.415014371275902">
        <ele>1735.1700000000001</ele>
        <time>2022-02-20T15:14:03Z</time>
      </trkpt>
      <trkpt lat="46.416173921898007" lon="8.41502845287323">
        <ele>1735.0599999999999</ele>
        <time>2022-02-20T15:14:34Z</time>
      </trkpt>
      <trkpt lat="46.416168976575136" lon="8.415048150345683">
        <ele>1734.6099999999999</ele>
        <time>2022-02-20T15:15:06Z</time>
      </trkpt>
      <trkpt lat="46.416164031252265" lon="8.415056113153696">
        <ele>1734.6099999999999</ele>
        <time>2022-02-20T15:15:30Z</time>
      </trkpt>
      <trkpt lat="46.416167803108692" lon="8.415029710158706">
        <ele>1734.96</ele>
        <time>2022-02-20T15:15:56Z</time>
      </trkpt>
      <trkpt lat="46.416166294366121" lon="8.415032560005784">
        <ele>1735.5899999999999</ele>
        <time>2022-02-20T15:16:14Z</time>
      </trkpt>
    </trkseg>
  </trk>

</gpx>